<?xml version="1.0" encoding="UTF-8" standalone="no" ?>
<gpx xmlns="http://www.topografix.com/GPX/1/1" xmlns:xsi="http://www.w3.org/2001/XMLSchema-instance" xsi:schemaLocation="http://www.topografix.com/GPX/1/1 http://www.topografix.com/GPX/1/1/gpx.xsd" version="1.1" creator="VisuGPX - https://www.visugpx.com">
  <metadata>
    <name>MN Say Rochefort point de vue</name>
    <desc><![CDATA[Départ Saint Arnoult carrefour de Guhermont, Ancienne voie ferré, Rochefort, point de vue et reour par GR1 carrefour du pendu.]]></desc>
  </metadata>
  <trk>
    <name><![CDATA[MN Say Rochefort point de vue]]></name>
    <trkseg>
      <trkpt lat="48.57776" lon="1.94856">
        <ele>120.40000152588</ele>
        <time>2020-05-26T07:11:05.000Z</time>
      </trkpt>
      <trkpt lat="48.57776" lon="1.94856">
        <ele>120.40000152588</ele>
        <time>2020-05-26T07:11:06.000Z</time>
      </trkpt>
      <trkpt lat="48.57777" lon="1.94859">
        <ele>121.59999847412</ele>
        <time>2020-05-26T07:11:56.000Z</time>
      </trkpt>
      <trkpt lat="48.57779" lon="1.94861">
        <ele>121.59999847412</ele>
        <time>2020-05-26T07:11:58.000Z</time>
      </trkpt>
      <trkpt lat="48.57782" lon="1.94864">
        <ele>121.59999847412</ele>
        <time>2020-05-26T07:12:02.000Z</time>
      </trkpt>
      <trkpt lat="48.57783" lon="1.94865">
        <ele>121.59999847412</ele>
        <time>2020-05-26T07:12:03.000Z</time>
      </trkpt>
      <trkpt lat="48.57784" lon="1.94865">
        <ele>121.59999847412</ele>
        <time>2020-05-26T07:12:05.000Z</time>
      </trkpt>
      <trkpt lat="48.57786" lon="1.94868">
        <ele>121.59999847412</ele>
        <time>2020-05-26T07:12:13.000Z</time>
      </trkpt>
      <trkpt lat="48.57786" lon="1.94868">
        <ele>121.59999847412</ele>
        <time>2020-05-26T07:12:14.000Z</time>
      </trkpt>
      <trkpt lat="48.57782" lon="1.94892">
        <ele>122.80000305176</ele>
        <time>2020-05-26T07:12:38.000Z</time>
      </trkpt>
      <trkpt lat="48.57782" lon="1.94894">
        <ele>122.80000305176</ele>
        <time>2020-05-26T07:12:40.000Z</time>
      </trkpt>
      <trkpt lat="48.57782" lon="1.94897">
        <ele>122.80000305176</ele>
        <time>2020-05-26T07:12:42.000Z</time>
      </trkpt>
      <trkpt lat="48.57783" lon="1.94904">
        <ele>122.80000305176</ele>
        <time>2020-05-26T07:12:46.000Z</time>
      </trkpt>
      <trkpt lat="48.57785" lon="1.94914">
        <ele>122.80000305176</ele>
        <time>2020-05-26T07:12:51.000Z</time>
      </trkpt>
      <trkpt lat="48.57785" lon="1.94915">
        <ele>122.80000305176</ele>
        <time>2020-05-26T07:12:53.000Z</time>
      </trkpt>
      <trkpt lat="48.57784" lon="1.9492">
        <ele>122.80000305176</ele>
        <time>2020-05-26T07:12:58.000Z</time>
      </trkpt>
      <trkpt lat="48.57784" lon="1.94924">
        <ele>122.80000305176</ele>
        <time>2020-05-26T07:13:00.000Z</time>
      </trkpt>
      <trkpt lat="48.57786" lon="1.94937">
        <ele>122.80000305176</ele>
        <time>2020-05-26T07:13:07.000Z</time>
      </trkpt>
      <trkpt lat="48.57788" lon="1.94949">
        <ele>122.80000305176</ele>
        <time>2020-05-26T07:13:13.000Z</time>
      </trkpt>
      <trkpt lat="48.57789" lon="1.94954">
        <ele>122.80000305176</ele>
        <time>2020-05-26T07:13:16.000Z</time>
      </trkpt>
      <trkpt lat="48.5779" lon="1.9496">
        <ele>122.80000305176</ele>
        <time>2020-05-26T07:13:19.000Z</time>
      </trkpt>
      <trkpt lat="48.57792" lon="1.94971">
        <ele>122.80000305176</ele>
        <time>2020-05-26T07:13:25.000Z</time>
      </trkpt>
      <trkpt lat="48.57791" lon="1.94978">
        <ele>122.80000305176</ele>
        <time>2020-05-26T07:13:31.000Z</time>
      </trkpt>
      <trkpt lat="48.57792" lon="1.9499">
        <ele>122.80000305176</ele>
        <time>2020-05-26T07:13:36.000Z</time>
      </trkpt>
      <trkpt lat="48.57792" lon="1.94999">
        <ele>122.80000305176</ele>
        <time>2020-05-26T07:13:41.000Z</time>
      </trkpt>
      <trkpt lat="48.57793" lon="1.95009">
        <ele>122.80000305176</ele>
        <time>2020-05-26T07:13:46.000Z</time>
      </trkpt>
      <trkpt lat="48.57795" lon="1.95022">
        <ele>122.80000305176</ele>
        <time>2020-05-26T07:13:52.000Z</time>
      </trkpt>
      <trkpt lat="48.57796" lon="1.95036">
        <ele>122.80000305176</ele>
        <time>2020-05-26T07:13:59.000Z</time>
      </trkpt>
      <trkpt lat="48.57796" lon="1.95038">
        <ele>122.80000305176</ele>
        <time>2020-05-26T07:14:00.000Z</time>
      </trkpt>
      <trkpt lat="48.57798" lon="1.95054">
        <ele>122.80000305176</ele>
        <time>2020-05-26T07:14:07.000Z</time>
      </trkpt>
      <trkpt lat="48.57801" lon="1.95068">
        <ele>122.80000305176</ele>
        <time>2020-05-26T07:14:13.000Z</time>
      </trkpt>
      <trkpt lat="48.57802" lon="1.95082">
        <ele>122.80000305176</ele>
        <time>2020-05-26T07:14:19.000Z</time>
      </trkpt>
      <trkpt lat="48.57802" lon="1.95087">
        <ele>122.80000305176</ele>
        <time>2020-05-26T07:14:21.000Z</time>
      </trkpt>
      <trkpt lat="48.57802" lon="1.95096">
        <ele>122.80000305176</ele>
        <time>2020-05-26T07:14:25.000Z</time>
      </trkpt>
      <trkpt lat="48.57804" lon="1.9511">
        <ele>122.80000305176</ele>
        <time>2020-05-26T07:14:30.000Z</time>
      </trkpt>
      <trkpt lat="48.57805" lon="1.95111">
        <ele>122.80000305176</ele>
        <time>2020-05-26T07:14:32.000Z</time>
      </trkpt>
      <trkpt lat="48.57808" lon="1.9513">
        <ele>122.80000305176</ele>
        <time>2020-05-26T07:14:42.000Z</time>
      </trkpt>
      <trkpt lat="48.57808" lon="1.95133">
        <ele>122.80000305176</ele>
        <time>2020-05-26T07:14:43.000Z</time>
      </trkpt>
      <trkpt lat="48.57809" lon="1.9515">
        <ele>122.80000305176</ele>
        <time>2020-05-26T07:14:50.000Z</time>
      </trkpt>
      <trkpt lat="48.57811" lon="1.95154">
        <ele>122.80000305176</ele>
        <time>2020-05-26T07:14:53.000Z</time>
      </trkpt>
      <trkpt lat="48.57862" lon="1.9527">
        <ele>129</ele>
        <time>2020-05-26T07:16:05.000Z</time>
      </trkpt>
      <trkpt lat="48.57863" lon="1.95272">
        <ele>129</ele>
        <time>2020-05-26T07:16:06.000Z</time>
      </trkpt>
      <trkpt lat="48.57865" lon="1.95276">
        <ele>129</ele>
        <time>2020-05-26T07:16:09.000Z</time>
      </trkpt>
      <trkpt lat="48.57872" lon="1.95296">
        <ele>131</ele>
        <time>2020-05-26T07:16:23.000Z</time>
      </trkpt>
      <trkpt lat="48.57873" lon="1.95298">
        <ele>131</ele>
        <time>2020-05-26T07:16:24.000Z</time>
      </trkpt>
      <trkpt lat="48.57875" lon="1.95306">
        <ele>131</ele>
        <time>2020-05-26T07:16:27.000Z</time>
      </trkpt>
      <trkpt lat="48.57876" lon="1.95309">
        <ele>131</ele>
        <time>2020-05-26T07:16:29.000Z</time>
      </trkpt>
      <trkpt lat="48.57877" lon="1.95316">
        <ele>131</ele>
        <time>2020-05-26T07:16:32.000Z</time>
      </trkpt>
      <trkpt lat="48.57881" lon="1.95329">
        <ele>131.80000305176</ele>
        <time>2020-05-26T07:16:39.000Z</time>
      </trkpt>
      <trkpt lat="48.57881" lon="1.95332">
        <ele>132.19999694824</ele>
        <time>2020-05-26T07:16:40.000Z</time>
      </trkpt>
      <trkpt lat="48.57881" lon="1.95334">
        <ele>132.60000610352</ele>
        <time>2020-05-26T07:16:41.000Z</time>
      </trkpt>
      <trkpt lat="48.57881" lon="1.95336">
        <ele>133.19999694824</ele>
        <time>2020-05-26T07:16:42.000Z</time>
      </trkpt>
      <trkpt lat="48.57884" lon="1.95342">
        <ele>133.19999694824</ele>
        <time>2020-05-26T07:16:45.000Z</time>
      </trkpt>
      <trkpt lat="48.5789" lon="1.95351">
        <ele>133.19999694824</ele>
        <time>2020-05-26T07:16:52.000Z</time>
      </trkpt>
      <trkpt lat="48.57893" lon="1.9536">
        <ele>133.19999694824</ele>
        <time>2020-05-26T07:16:58.000Z</time>
      </trkpt>
      <trkpt lat="48.57893" lon="1.95367">
        <ele>133.19999694824</ele>
        <time>2020-05-26T07:17:03.000Z</time>
      </trkpt>
      <trkpt lat="48.57892" lon="1.9537">
        <ele>133.60000610352</ele>
        <time>2020-05-26T07:17:04.000Z</time>
      </trkpt>
      <trkpt lat="48.57891" lon="1.95371">
        <ele>134</ele>
        <time>2020-05-26T07:17:05.000Z</time>
      </trkpt>
      <trkpt lat="48.57891" lon="1.95371">
        <ele>134.39999389648</ele>
        <time>2020-05-26T07:17:06.000Z</time>
      </trkpt>
      <trkpt lat="48.5789" lon="1.95373">
        <ele>134.80000305176</ele>
        <time>2020-05-26T07:17:07.000Z</time>
      </trkpt>
      <trkpt lat="48.5789" lon="1.95374">
        <ele>135.19999694824</ele>
        <time>2020-05-26T07:17:08.000Z</time>
      </trkpt>
      <trkpt lat="48.57888" lon="1.95373">
        <ele>135.19999694824</ele>
        <time>2020-05-26T07:17:11.000Z</time>
      </trkpt>
      <trkpt lat="48.57889" lon="1.95389">
        <ele>135.19999694824</ele>
        <time>2020-05-26T07:17:19.000Z</time>
      </trkpt>
      <trkpt lat="48.57888" lon="1.95395">
        <ele>135.19999694824</ele>
        <time>2020-05-26T07:17:22.000Z</time>
      </trkpt>
      <trkpt lat="48.57889" lon="1.954">
        <ele>135.19999694824</ele>
        <time>2020-05-26T07:17:24.000Z</time>
      </trkpt>
      <trkpt lat="48.57891" lon="1.95413">
        <ele>135.19999694824</ele>
        <time>2020-05-26T07:17:29.000Z</time>
      </trkpt>
      <trkpt lat="48.57892" lon="1.95427">
        <ele>135.19999694824</ele>
        <time>2020-05-26T07:17:35.000Z</time>
      </trkpt>
      <trkpt lat="48.57895" lon="1.95441">
        <ele>135.19999694824</ele>
        <time>2020-05-26T07:17:41.000Z</time>
      </trkpt>
      <trkpt lat="48.57896" lon="1.95452">
        <ele>135.19999694824</ele>
        <time>2020-05-26T07:17:47.000Z</time>
      </trkpt>
      <trkpt lat="48.57898" lon="1.95467">
        <ele>135.19999694824</ele>
        <time>2020-05-26T07:17:53.000Z</time>
      </trkpt>
      <trkpt lat="48.57898" lon="1.95471">
        <ele>135.19999694824</ele>
        <time>2020-05-26T07:17:55.000Z</time>
      </trkpt>
      <trkpt lat="48.57895" lon="1.95491">
        <ele>135.19999694824</ele>
        <time>2020-05-26T07:18:03.000Z</time>
      </trkpt>
      <trkpt lat="48.57896" lon="1.95495">
        <ele>135.19999694824</ele>
        <time>2020-05-26T07:18:05.000Z</time>
      </trkpt>
      <trkpt lat="48.57899" lon="1.95512">
        <ele>135.19999694824</ele>
        <time>2020-05-26T07:18:13.000Z</time>
      </trkpt>
      <trkpt lat="48.57899" lon="1.95518">
        <ele>135.19999694824</ele>
        <time>2020-05-26T07:18:16.000Z</time>
      </trkpt>
      <trkpt lat="48.57901" lon="1.95523">
        <ele>135.19999694824</ele>
        <time>2020-05-26T07:18:19.000Z</time>
      </trkpt>
      <trkpt lat="48.57902" lon="1.95534">
        <ele>135.19999694824</ele>
        <time>2020-05-26T07:18:23.000Z</time>
      </trkpt>
      <trkpt lat="48.57902" lon="1.95541">
        <ele>135.19999694824</ele>
        <time>2020-05-26T07:18:25.000Z</time>
      </trkpt>
      <trkpt lat="48.57902" lon="1.95546">
        <ele>135.19999694824</ele>
        <time>2020-05-26T07:18:27.000Z</time>
      </trkpt>
      <trkpt lat="48.57904" lon="1.95555">
        <ele>135.19999694824</ele>
        <time>2020-05-26T07:18:31.000Z</time>
      </trkpt>
      <trkpt lat="48.57908" lon="1.95567">
        <ele>135.19999694824</ele>
        <time>2020-05-26T07:18:36.000Z</time>
      </trkpt>
      <trkpt lat="48.5791" lon="1.95576">
        <ele>135.19999694824</ele>
        <time>2020-05-26T07:18:42.000Z</time>
      </trkpt>
      <trkpt lat="48.57911" lon="1.95582">
        <ele>135.19999694824</ele>
        <time>2020-05-26T07:18:45.000Z</time>
      </trkpt>
      <trkpt lat="48.57911" lon="1.95585">
        <ele>135.19999694824</ele>
        <time>2020-05-26T07:18:47.000Z</time>
      </trkpt>
      <trkpt lat="48.57912" lon="1.95587">
        <ele>135.19999694824</ele>
        <time>2020-05-26T07:18:48.000Z</time>
      </trkpt>
      <trkpt lat="48.57913" lon="1.95594">
        <ele>135.19999694824</ele>
        <time>2020-05-26T07:18:51.000Z</time>
      </trkpt>
      <trkpt lat="48.57916" lon="1.95605">
        <ele>135.19999694824</ele>
        <time>2020-05-26T07:18:55.000Z</time>
      </trkpt>
      <trkpt lat="48.57917" lon="1.95608">
        <ele>135.19999694824</ele>
        <time>2020-05-26T07:18:58.000Z</time>
      </trkpt>
      <trkpt lat="48.57918" lon="1.95615">
        <ele>135.19999694824</ele>
        <time>2020-05-26T07:19:03.000Z</time>
      </trkpt>
      <trkpt lat="48.57919" lon="1.95617">
        <ele>135.19999694824</ele>
        <time>2020-05-26T07:19:04.000Z</time>
      </trkpt>
      <trkpt lat="48.57919" lon="1.95622">
        <ele>135.19999694824</ele>
        <time>2020-05-26T07:19:08.000Z</time>
      </trkpt>
      <trkpt lat="48.5792" lon="1.95635">
        <ele>135.19999694824</ele>
        <time>2020-05-26T07:19:14.000Z</time>
      </trkpt>
      <trkpt lat="48.5792" lon="1.95638">
        <ele>135.19999694824</ele>
        <time>2020-05-26T07:19:15.000Z</time>
      </trkpt>
      <trkpt lat="48.57922" lon="1.95647">
        <ele>135.19999694824</ele>
        <time>2020-05-26T07:19:19.000Z</time>
      </trkpt>
      <trkpt lat="48.57924" lon="1.95651">
        <ele>135.19999694824</ele>
        <time>2020-05-26T07:19:21.000Z</time>
      </trkpt>
      <trkpt lat="48.57928" lon="1.95659">
        <ele>135.19999694824</ele>
        <time>2020-05-26T07:19:26.000Z</time>
      </trkpt>
      <trkpt lat="48.5793" lon="1.95666">
        <ele>135.19999694824</ele>
        <time>2020-05-26T07:19:30.000Z</time>
      </trkpt>
      <trkpt lat="48.57932" lon="1.95675">
        <ele>135.19999694824</ele>
        <time>2020-05-26T07:19:35.000Z</time>
      </trkpt>
      <trkpt lat="48.57934" lon="1.95688">
        <ele>135.19999694824</ele>
        <time>2020-05-26T07:19:42.000Z</time>
      </trkpt>
      <trkpt lat="48.57938" lon="1.95699">
        <ele>135.19999694824</ele>
        <time>2020-05-26T07:19:48.000Z</time>
      </trkpt>
      <trkpt lat="48.57941" lon="1.95709">
        <ele>135.19999694824</ele>
        <time>2020-05-26T07:19:54.000Z</time>
      </trkpt>
      <trkpt lat="48.57942" lon="1.95714">
        <ele>135.19999694824</ele>
        <time>2020-05-26T07:19:56.000Z</time>
      </trkpt>
      <trkpt lat="48.57943" lon="1.95721">
        <ele>135.19999694824</ele>
        <time>2020-05-26T07:20:00.000Z</time>
      </trkpt>
      <trkpt lat="48.57946" lon="1.95737">
        <ele>135.19999694824</ele>
        <time>2020-05-26T07:20:11.000Z</time>
      </trkpt>
      <trkpt lat="48.57949" lon="1.95747">
        <ele>135.19999694824</ele>
        <time>2020-05-26T07:20:14.000Z</time>
      </trkpt>
      <trkpt lat="48.57949" lon="1.95751">
        <ele>135.19999694824</ele>
        <time>2020-05-26T07:20:16.000Z</time>
      </trkpt>
      <trkpt lat="48.5795" lon="1.95756">
        <ele>134.80000305176</ele>
        <time>2020-05-26T07:20:18.000Z</time>
      </trkpt>
      <trkpt lat="48.57951" lon="1.95758">
        <ele>134.39999389648</ele>
        <time>2020-05-26T07:20:19.000Z</time>
      </trkpt>
      <trkpt lat="48.57952" lon="1.9576">
        <ele>134</ele>
        <time>2020-05-26T07:20:20.000Z</time>
      </trkpt>
      <trkpt lat="48.57952" lon="1.95763">
        <ele>133.60000610352</ele>
        <time>2020-05-26T07:20:21.000Z</time>
      </trkpt>
      <trkpt lat="48.57952" lon="1.95765">
        <ele>133</ele>
        <time>2020-05-26T07:20:22.000Z</time>
      </trkpt>
      <trkpt lat="48.57952" lon="1.95766">
        <ele>133</ele>
        <time>2020-05-26T07:20:23.000Z</time>
      </trkpt>
      <trkpt lat="48.57954" lon="1.95775">
        <ele>133</ele>
        <time>2020-05-26T07:20:28.000Z</time>
      </trkpt>
      <trkpt lat="48.57954" lon="1.95777">
        <ele>133</ele>
        <time>2020-05-26T07:20:29.000Z</time>
      </trkpt>
      <trkpt lat="48.57971" lon="1.95864">
        <ele>131</ele>
        <time>2020-05-26T07:21:30.000Z</time>
      </trkpt>
      <trkpt lat="48.57972" lon="1.95874">
        <ele>131</ele>
        <time>2020-05-26T07:21:33.000Z</time>
      </trkpt>
      <trkpt lat="48.57972" lon="1.95876">
        <ele>131</ele>
        <time>2020-05-26T07:21:34.000Z</time>
      </trkpt>
      <trkpt lat="48.57976" lon="1.95915">
        <ele>131</ele>
        <time>2020-05-26T07:21:51.000Z</time>
      </trkpt>
      <trkpt lat="48.57977" lon="1.95921">
        <ele>131</ele>
        <time>2020-05-26T07:21:53.000Z</time>
      </trkpt>
      <trkpt lat="48.57979" lon="1.95938">
        <ele>131</ele>
        <time>2020-05-26T07:21:59.000Z</time>
      </trkpt>
      <trkpt lat="48.5798" lon="1.9596">
        <ele>131</ele>
        <time>2020-05-26T07:22:04.000Z</time>
      </trkpt>
      <trkpt lat="48.57978" lon="1.95981">
        <ele>131</ele>
        <time>2020-05-26T07:22:15.000Z</time>
      </trkpt>
      <trkpt lat="48.57977" lon="1.95994">
        <ele>131</ele>
        <time>2020-05-26T07:22:21.000Z</time>
      </trkpt>
      <trkpt lat="48.57979" lon="1.96001">
        <ele>131</ele>
        <time>2020-05-26T07:22:26.000Z</time>
      </trkpt>
      <trkpt lat="48.57974" lon="1.96014">
        <ele>131</ele>
        <time>2020-05-26T07:22:31.000Z</time>
      </trkpt>
      <trkpt lat="48.57972" lon="1.9602">
        <ele>131</ele>
        <time>2020-05-26T07:22:34.000Z</time>
      </trkpt>
      <trkpt lat="48.57982" lon="1.96221">
        <ele>135.19999694824</ele>
        <time>2020-05-26T07:24:21.000Z</time>
      </trkpt>
      <trkpt lat="48.57982" lon="1.96223">
        <ele>135.19999694824</ele>
        <time>2020-05-26T07:24:22.000Z</time>
      </trkpt>
      <trkpt lat="48.57985" lon="1.96232">
        <ele>135.19999694824</ele>
        <time>2020-05-26T07:24:28.000Z</time>
      </trkpt>
      <trkpt lat="48.57986" lon="1.9624">
        <ele>135.60000610352</ele>
        <time>2020-05-26T07:24:33.000Z</time>
      </trkpt>
      <trkpt lat="48.57986" lon="1.96242">
        <ele>136</ele>
        <time>2020-05-26T07:24:34.000Z</time>
      </trkpt>
      <trkpt lat="48.57987" lon="1.96244">
        <ele>136.39999389648</ele>
        <time>2020-05-26T07:24:35.000Z</time>
      </trkpt>
      <trkpt lat="48.57987" lon="1.96247">
        <ele>136.80000305176</ele>
        <time>2020-05-26T07:24:36.000Z</time>
      </trkpt>
      <trkpt lat="48.57988" lon="1.9625">
        <ele>137.19999694824</ele>
        <time>2020-05-26T07:24:37.000Z</time>
      </trkpt>
      <trkpt lat="48.57989" lon="1.96253">
        <ele>137.19999694824</ele>
        <time>2020-05-26T07:24:39.000Z</time>
      </trkpt>
      <trkpt lat="48.57988" lon="1.96269">
        <ele>137.19999694824</ele>
        <time>2020-05-26T07:24:45.000Z</time>
      </trkpt>
      <trkpt lat="48.57988" lon="1.9627">
        <ele>137.19999694824</ele>
        <time>2020-05-26T07:24:46.000Z</time>
      </trkpt>
      <trkpt lat="48.5799" lon="1.96273">
        <ele>137.19999694824</ele>
        <time>2020-05-26T07:24:48.000Z</time>
      </trkpt>
      <trkpt lat="48.5799" lon="1.96277">
        <ele>137.19999694824</ele>
        <time>2020-05-26T07:24:50.000Z</time>
      </trkpt>
      <trkpt lat="48.57992" lon="1.96291">
        <ele>137.19999694824</ele>
        <time>2020-05-26T07:24:56.000Z</time>
      </trkpt>
      <trkpt lat="48.57999" lon="1.9632">
        <ele>139.39999389648</ele>
        <time>2020-05-26T07:25:16.000Z</time>
      </trkpt>
      <trkpt lat="48.57999" lon="1.96323">
        <ele>139.39999389648</ele>
        <time>2020-05-26T07:25:18.000Z</time>
      </trkpt>
      <trkpt lat="48.58015" lon="1.96417">
        <ele>143.39999389648</ele>
        <time>2020-05-26T07:26:07.000Z</time>
      </trkpt>
      <trkpt lat="48.58014" lon="1.96424">
        <ele>143.39999389648</ele>
        <time>2020-05-26T07:26:10.000Z</time>
      </trkpt>
      <trkpt lat="48.58013" lon="1.96436">
        <ele>143.39999389648</ele>
        <time>2020-05-26T07:26:13.000Z</time>
      </trkpt>
      <trkpt lat="48.58013" lon="1.96444">
        <ele>143.39999389648</ele>
        <time>2020-05-26T07:26:16.000Z</time>
      </trkpt>
      <trkpt lat="48.58014" lon="1.96447">
        <ele>143.39999389648</ele>
        <time>2020-05-26T07:26:17.000Z</time>
      </trkpt>
      <trkpt lat="48.58014" lon="1.96451">
        <ele>143.80000305176</ele>
        <time>2020-05-26T07:26:19.000Z</time>
      </trkpt>
      <trkpt lat="48.58015" lon="1.96452">
        <ele>144.19999694824</ele>
        <time>2020-05-26T07:26:20.000Z</time>
      </trkpt>
      <trkpt lat="48.58015" lon="1.96453">
        <ele>144.60000610352</ele>
        <time>2020-05-26T07:26:21.000Z</time>
      </trkpt>
      <trkpt lat="48.58016" lon="1.96456">
        <ele>145</ele>
        <time>2020-05-26T07:26:22.000Z</time>
      </trkpt>
      <trkpt lat="48.58016" lon="1.96458">
        <ele>145.60000610352</ele>
        <time>2020-05-26T07:26:23.000Z</time>
      </trkpt>
      <trkpt lat="48.58018" lon="1.96459">
        <ele>145.60000610352</ele>
        <time>2020-05-26T07:26:24.000Z</time>
      </trkpt>
      <trkpt lat="48.58019" lon="1.96465">
        <ele>145.60000610352</ele>
        <time>2020-05-26T07:26:26.000Z</time>
      </trkpt>
      <trkpt lat="48.58019" lon="1.96467">
        <ele>145.60000610352</ele>
        <time>2020-05-26T07:26:27.000Z</time>
      </trkpt>
      <trkpt lat="48.5802" lon="1.96475">
        <ele>145.60000610352</ele>
        <time>2020-05-26T07:26:31.000Z</time>
      </trkpt>
      <trkpt lat="48.58021" lon="1.96483">
        <ele>145.60000610352</ele>
        <time>2020-05-26T07:26:35.000Z</time>
      </trkpt>
      <trkpt lat="48.58021" lon="1.96484">
        <ele>145.60000610352</ele>
        <time>2020-05-26T07:26:36.000Z</time>
      </trkpt>
      <trkpt lat="48.58022" lon="1.96489">
        <ele>145.60000610352</ele>
        <time>2020-05-26T07:26:39.000Z</time>
      </trkpt>
      <trkpt lat="48.58021" lon="1.96496">
        <ele>145.60000610352</ele>
        <time>2020-05-26T07:26:42.000Z</time>
      </trkpt>
      <trkpt lat="48.58022" lon="1.96505">
        <ele>145.60000610352</ele>
        <time>2020-05-26T07:26:47.000Z</time>
      </trkpt>
      <trkpt lat="48.58022" lon="1.96513">
        <ele>145.60000610352</ele>
        <time>2020-05-26T07:26:52.000Z</time>
      </trkpt>
      <trkpt lat="48.58021" lon="1.96517">
        <ele>146</ele>
        <time>2020-05-26T07:26:54.000Z</time>
      </trkpt>
      <trkpt lat="48.58021" lon="1.96518">
        <ele>146.39999389648</ele>
        <time>2020-05-26T07:26:55.000Z</time>
      </trkpt>
      <trkpt lat="48.58022" lon="1.96521">
        <ele>146.80000305176</ele>
        <time>2020-05-26T07:26:56.000Z</time>
      </trkpt>
      <trkpt lat="48.58021" lon="1.96524">
        <ele>147.60000610352</ele>
        <time>2020-05-26T07:26:57.000Z</time>
      </trkpt>
      <trkpt lat="48.58021" lon="1.96529">
        <ele>147.60000610352</ele>
        <time>2020-05-26T07:26:59.000Z</time>
      </trkpt>
      <trkpt lat="48.58022" lon="1.96535">
        <ele>147.60000610352</ele>
        <time>2020-05-26T07:27:03.000Z</time>
      </trkpt>
      <trkpt lat="48.58023" lon="1.9654">
        <ele>147.60000610352</ele>
        <time>2020-05-26T07:27:05.000Z</time>
      </trkpt>
      <trkpt lat="48.58024" lon="1.96547">
        <ele>147.60000610352</ele>
        <time>2020-05-26T07:27:09.000Z</time>
      </trkpt>
      <trkpt lat="48.58024" lon="1.96548">
        <ele>147.60000610352</ele>
        <time>2020-05-26T07:27:10.000Z</time>
      </trkpt>
      <trkpt lat="48.58024" lon="1.96551">
        <ele>147.60000610352</ele>
        <time>2020-05-26T07:27:11.000Z</time>
      </trkpt>
      <trkpt lat="48.58024" lon="1.96558">
        <ele>147.60000610352</ele>
        <time>2020-05-26T07:27:15.000Z</time>
      </trkpt>
      <trkpt lat="48.58026" lon="1.96566">
        <ele>147.60000610352</ele>
        <time>2020-05-26T07:27:19.000Z</time>
      </trkpt>
      <trkpt lat="48.58028" lon="1.9657">
        <ele>147.60000610352</ele>
        <time>2020-05-26T07:27:21.000Z</time>
      </trkpt>
      <trkpt lat="48.58028" lon="1.96573">
        <ele>147.60000610352</ele>
        <time>2020-05-26T07:27:23.000Z</time>
      </trkpt>
      <trkpt lat="48.58029" lon="1.96579">
        <ele>147.60000610352</ele>
        <time>2020-05-26T07:27:27.000Z</time>
      </trkpt>
      <trkpt lat="48.58029" lon="1.96589">
        <ele>147.60000610352</ele>
        <time>2020-05-26T07:27:32.000Z</time>
      </trkpt>
      <trkpt lat="48.58031" lon="1.96594">
        <ele>147.60000610352</ele>
        <time>2020-05-26T07:27:35.000Z</time>
      </trkpt>
      <trkpt lat="48.58033" lon="1.96597">
        <ele>147.60000610352</ele>
        <time>2020-05-26T07:27:37.000Z</time>
      </trkpt>
      <trkpt lat="48.58033" lon="1.96599">
        <ele>148</ele>
        <time>2020-05-26T07:27:38.000Z</time>
      </trkpt>
      <trkpt lat="48.58033" lon="1.96633">
        <ele>149.60000610352</ele>
        <time>2020-05-26T07:27:54.000Z</time>
      </trkpt>
      <trkpt lat="48.58034" lon="1.9664">
        <ele>149.60000610352</ele>
        <time>2020-05-26T07:27:57.000Z</time>
      </trkpt>
      <trkpt lat="48.58036" lon="1.96649">
        <ele>149.60000610352</ele>
        <time>2020-05-26T07:28:01.000Z</time>
      </trkpt>
      <trkpt lat="48.58037" lon="1.96653">
        <ele>149.60000610352</ele>
        <time>2020-05-26T07:28:03.000Z</time>
      </trkpt>
      <trkpt lat="48.58039" lon="1.96665">
        <ele>149.60000610352</ele>
        <time>2020-05-26T07:28:08.000Z</time>
      </trkpt>
      <trkpt lat="48.5804" lon="1.96668">
        <ele>149.60000610352</ele>
        <time>2020-05-26T07:28:10.000Z</time>
      </trkpt>
      <trkpt lat="48.58046" lon="1.96708">
        <ele>148.80000305176</ele>
        <time>2020-05-26T07:28:33.000Z</time>
      </trkpt>
      <trkpt lat="48.58047" lon="1.96711">
        <ele>148.39999389648</ele>
        <time>2020-05-26T07:28:34.000Z</time>
      </trkpt>
      <trkpt lat="48.58047" lon="1.96714">
        <ele>148</ele>
        <time>2020-05-26T07:28:35.000Z</time>
      </trkpt>
      <trkpt lat="48.58047" lon="1.96716">
        <ele>147.60000610352</ele>
        <time>2020-05-26T07:28:36.000Z</time>
      </trkpt>
      <trkpt lat="48.58048" lon="1.96723">
        <ele>147.60000610352</ele>
        <time>2020-05-26T07:28:39.000Z</time>
      </trkpt>
      <trkpt lat="48.58052" lon="1.96734">
        <ele>147.60000610352</ele>
        <time>2020-05-26T07:28:45.000Z</time>
      </trkpt>
      <trkpt lat="48.58054" lon="1.96738">
        <ele>147.60000610352</ele>
        <time>2020-05-26T07:28:47.000Z</time>
      </trkpt>
      <trkpt lat="48.58054" lon="1.96746">
        <ele>147.60000610352</ele>
        <time>2020-05-26T07:28:50.000Z</time>
      </trkpt>
      <trkpt lat="48.58055" lon="1.96758">
        <ele>147.60000610352</ele>
        <time>2020-05-26T07:28:56.000Z</time>
      </trkpt>
      <trkpt lat="48.58056" lon="1.9676">
        <ele>147.60000610352</ele>
        <time>2020-05-26T07:28:57.000Z</time>
      </trkpt>
      <trkpt lat="48.58057" lon="1.96762">
        <ele>147.60000610352</ele>
        <time>2020-05-26T07:28:59.000Z</time>
      </trkpt>
      <trkpt lat="48.5806" lon="1.96785">
        <ele>147.60000610352</ele>
        <time>2020-05-26T07:29:10.000Z</time>
      </trkpt>
      <trkpt lat="48.58062" lon="1.96801">
        <ele>147.60000610352</ele>
        <time>2020-05-26T07:29:16.000Z</time>
      </trkpt>
      <trkpt lat="48.58064" lon="1.96812">
        <ele>147.60000610352</ele>
        <time>2020-05-26T07:29:21.000Z</time>
      </trkpt>
      <trkpt lat="48.58065" lon="1.96826">
        <ele>147.60000610352</ele>
        <time>2020-05-26T07:29:26.000Z</time>
      </trkpt>
      <trkpt lat="48.58069" lon="1.96833">
        <ele>147.60000610352</ele>
        <time>2020-05-26T07:29:30.000Z</time>
      </trkpt>
      <trkpt lat="48.5807" lon="1.96835">
        <ele>147.60000610352</ele>
        <time>2020-05-26T07:29:31.000Z</time>
      </trkpt>
      <trkpt lat="48.58072" lon="1.9684">
        <ele>147.60000610352</ele>
        <time>2020-05-26T07:29:34.000Z</time>
      </trkpt>
      <trkpt lat="48.58076" lon="1.9685">
        <ele>147.60000610352</ele>
        <time>2020-05-26T07:29:40.000Z</time>
      </trkpt>
      <trkpt lat="48.58079" lon="1.96861">
        <ele>147.60000610352</ele>
        <time>2020-05-26T07:29:44.000Z</time>
      </trkpt>
      <trkpt lat="48.58083" lon="1.96874">
        <ele>147.60000610352</ele>
        <time>2020-05-26T07:29:50.000Z</time>
      </trkpt>
      <trkpt lat="48.58085" lon="1.96884">
        <ele>147.60000610352</ele>
        <time>2020-05-26T07:29:55.000Z</time>
      </trkpt>
      <trkpt lat="48.58085" lon="1.96888">
        <ele>147.60000610352</ele>
        <time>2020-05-26T07:29:57.000Z</time>
      </trkpt>
      <trkpt lat="48.58086" lon="1.969">
        <ele>147.60000610352</ele>
        <time>2020-05-26T07:30:03.000Z</time>
      </trkpt>
      <trkpt lat="48.58088" lon="1.96903">
        <ele>147.60000610352</ele>
        <time>2020-05-26T07:30:05.000Z</time>
      </trkpt>
      <trkpt lat="48.5809" lon="1.96913">
        <ele>147.60000610352</ele>
        <time>2020-05-26T07:30:10.000Z</time>
      </trkpt>
      <trkpt lat="48.58096" lon="1.96945">
        <ele>147.60000610352</ele>
        <time>2020-05-26T07:30:24.000Z</time>
      </trkpt>
      <trkpt lat="48.58099" lon="1.96952">
        <ele>147.60000610352</ele>
        <time>2020-05-26T07:30:27.000Z</time>
      </trkpt>
      <trkpt lat="48.581" lon="1.96962">
        <ele>147.60000610352</ele>
        <time>2020-05-26T07:30:31.000Z</time>
      </trkpt>
      <trkpt lat="48.58099" lon="1.96973">
        <ele>147.60000610352</ele>
        <time>2020-05-26T07:30:36.000Z</time>
      </trkpt>
      <trkpt lat="48.58101" lon="1.9698">
        <ele>147.60000610352</ele>
        <time>2020-05-26T07:30:40.000Z</time>
      </trkpt>
      <trkpt lat="48.58103" lon="1.96985">
        <ele>147.60000610352</ele>
        <time>2020-05-26T07:30:43.000Z</time>
      </trkpt>
      <trkpt lat="48.58103" lon="1.96987">
        <ele>147.60000610352</ele>
        <time>2020-05-26T07:30:44.000Z</time>
      </trkpt>
      <trkpt lat="48.58107" lon="1.97">
        <ele>147.60000610352</ele>
        <time>2020-05-26T07:30:50.000Z</time>
      </trkpt>
      <trkpt lat="48.58107" lon="1.97005">
        <ele>147.60000610352</ele>
        <time>2020-05-26T07:30:52.000Z</time>
      </trkpt>
      <trkpt lat="48.58107" lon="1.97066">
        <ele>149.60000610352</ele>
        <time>2020-05-26T07:31:13.000Z</time>
      </trkpt>
      <trkpt lat="48.58108" lon="1.97068">
        <ele>149.60000610352</ele>
        <time>2020-05-26T07:31:14.000Z</time>
      </trkpt>
      <trkpt lat="48.58109" lon="1.97076">
        <ele>149.60000610352</ele>
        <time>2020-05-26T07:31:21.000Z</time>
      </trkpt>
      <trkpt lat="48.58112" lon="1.97112">
        <ele>151.60000610352</ele>
        <time>2020-05-26T07:31:47.000Z</time>
      </trkpt>
      <trkpt lat="48.58111" lon="1.97116">
        <ele>151.60000610352</ele>
        <time>2020-05-26T07:31:49.000Z</time>
      </trkpt>
      <trkpt lat="48.58117" lon="1.97151">
        <ele>151.60000610352</ele>
        <time>2020-05-26T07:32:18.000Z</time>
      </trkpt>
      <trkpt lat="48.58123" lon="1.97163">
        <ele>151.60000610352</ele>
        <time>2020-05-26T07:32:23.000Z</time>
      </trkpt>
      <trkpt lat="48.58123" lon="1.97167">
        <ele>151.60000610352</ele>
        <time>2020-05-26T07:32:25.000Z</time>
      </trkpt>
      <trkpt lat="48.5814" lon="1.97267">
        <ele>147.39999389648</ele>
        <time>2020-05-26T07:33:19.000Z</time>
      </trkpt>
      <trkpt lat="48.5814" lon="1.97268">
        <ele>147.39999389648</ele>
        <time>2020-05-26T07:33:20.000Z</time>
      </trkpt>
      <trkpt lat="48.58143" lon="1.97275">
        <ele>147</ele>
        <time>2020-05-26T07:33:24.000Z</time>
      </trkpt>
      <trkpt lat="48.58144" lon="1.97277">
        <ele>146.60000610352</ele>
        <time>2020-05-26T07:33:25.000Z</time>
      </trkpt>
      <trkpt lat="48.58146" lon="1.97278">
        <ele>146.19999694824</ele>
        <time>2020-05-26T07:33:26.000Z</time>
      </trkpt>
      <trkpt lat="48.58146" lon="1.9728">
        <ele>145.80000305176</ele>
        <time>2020-05-26T07:33:27.000Z</time>
      </trkpt>
      <trkpt lat="48.58146" lon="1.97281">
        <ele>145.39999389648</ele>
        <time>2020-05-26T07:33:28.000Z</time>
      </trkpt>
      <trkpt lat="48.58147" lon="1.97282">
        <ele>145.39999389648</ele>
        <time>2020-05-26T07:33:29.000Z</time>
      </trkpt>
      <trkpt lat="48.58149" lon="1.97288">
        <ele>145.39999389648</ele>
        <time>2020-05-26T07:33:32.000Z</time>
      </trkpt>
      <trkpt lat="48.58151" lon="1.9729">
        <ele>145.39999389648</ele>
        <time>2020-05-26T07:33:34.000Z</time>
      </trkpt>
      <trkpt lat="48.58155" lon="1.97301">
        <ele>145.39999389648</ele>
        <time>2020-05-26T07:33:39.000Z</time>
      </trkpt>
      <trkpt lat="48.58157" lon="1.97306">
        <ele>145.39999389648</ele>
        <time>2020-05-26T07:33:41.000Z</time>
      </trkpt>
      <trkpt lat="48.58161" lon="1.9732">
        <ele>145.39999389648</ele>
        <time>2020-05-26T07:33:45.000Z</time>
      </trkpt>
      <trkpt lat="48.58164" lon="1.97334">
        <ele>145.39999389648</ele>
        <time>2020-05-26T07:33:50.000Z</time>
      </trkpt>
      <trkpt lat="48.58169" lon="1.97341">
        <ele>145.39999389648</ele>
        <time>2020-05-26T07:33:56.000Z</time>
      </trkpt>
      <trkpt lat="48.58175" lon="1.97348">
        <ele>145.39999389648</ele>
        <time>2020-05-26T07:34:04.000Z</time>
      </trkpt>
      <trkpt lat="48.5818" lon="1.97355">
        <ele>145.39999389648</ele>
        <time>2020-05-26T07:34:09.000Z</time>
      </trkpt>
      <trkpt lat="48.58185" lon="1.97362">
        <ele>147.39999389648</ele>
        <time>2020-05-26T07:35:41.000Z</time>
      </trkpt>
      <trkpt lat="48.58187" lon="1.97366">
        <ele>147.39999389648</ele>
        <time>2020-05-26T07:35:46.000Z</time>
      </trkpt>
      <trkpt lat="48.58191" lon="1.97371">
        <ele>147.39999389648</ele>
        <time>2020-05-26T07:35:52.000Z</time>
      </trkpt>
      <trkpt lat="48.58194" lon="1.97378">
        <ele>147.39999389648</ele>
        <time>2020-05-26T07:35:57.000Z</time>
      </trkpt>
      <trkpt lat="48.58199" lon="1.97387">
        <ele>147.39999389648</ele>
        <time>2020-05-26T07:36:03.000Z</time>
      </trkpt>
      <trkpt lat="48.582" lon="1.97391">
        <ele>147.39999389648</ele>
        <time>2020-05-26T07:36:05.000Z</time>
      </trkpt>
      <trkpt lat="48.58201" lon="1.97392">
        <ele>147.39999389648</ele>
        <time>2020-05-26T07:36:06.000Z</time>
      </trkpt>
      <trkpt lat="48.58202" lon="1.97396">
        <ele>147.39999389648</ele>
        <time>2020-05-26T07:36:08.000Z</time>
      </trkpt>
      <trkpt lat="48.58202" lon="1.97406">
        <ele>147.39999389648</ele>
        <time>2020-05-26T07:36:12.000Z</time>
      </trkpt>
      <trkpt lat="48.58205" lon="1.9742">
        <ele>147.39999389648</ele>
        <time>2020-05-26T07:36:17.000Z</time>
      </trkpt>
      <trkpt lat="48.58208" lon="1.97433">
        <ele>147.39999389648</ele>
        <time>2020-05-26T07:36:22.000Z</time>
      </trkpt>
      <trkpt lat="48.58209" lon="1.97435">
        <ele>147.39999389648</ele>
        <time>2020-05-26T07:36:23.000Z</time>
      </trkpt>
      <trkpt lat="48.58211" lon="1.97442">
        <ele>147.39999389648</ele>
        <time>2020-05-26T07:36:27.000Z</time>
      </trkpt>
      <trkpt lat="48.58217" lon="1.97464">
        <ele>147.39999389648</ele>
        <time>2020-05-26T07:36:38.000Z</time>
      </trkpt>
      <trkpt lat="48.58218" lon="1.97468">
        <ele>147.39999389648</ele>
        <time>2020-05-26T07:36:41.000Z</time>
      </trkpt>
      <trkpt lat="48.58225" lon="1.97476">
        <ele>147.39999389648</ele>
        <time>2020-05-26T07:36:46.000Z</time>
      </trkpt>
      <trkpt lat="48.58229" lon="1.97486">
        <ele>147.39999389648</ele>
        <time>2020-05-26T07:36:51.000Z</time>
      </trkpt>
      <trkpt lat="48.5823" lon="1.97502">
        <ele>147.39999389648</ele>
        <time>2020-05-26T07:36:58.000Z</time>
      </trkpt>
      <trkpt lat="48.58232" lon="1.97506">
        <ele>147.39999389648</ele>
        <time>2020-05-26T07:37:02.000Z</time>
      </trkpt>
      <trkpt lat="48.58234" lon="1.9751">
        <ele>147.39999389648</ele>
        <time>2020-05-26T07:37:05.000Z</time>
      </trkpt>
      <trkpt lat="48.58235" lon="1.97512">
        <ele>147.39999389648</ele>
        <time>2020-05-26T07:37:06.000Z</time>
      </trkpt>
      <trkpt lat="48.5824" lon="1.97523">
        <ele>147.39999389648</ele>
        <time>2020-05-26T07:37:12.000Z</time>
      </trkpt>
      <trkpt lat="48.58243" lon="1.97528">
        <ele>147.39999389648</ele>
        <time>2020-05-26T07:37:16.000Z</time>
      </trkpt>
      <trkpt lat="48.5825" lon="1.97565">
        <ele>147.39999389648</ele>
        <time>2020-05-26T07:37:41.000Z</time>
      </trkpt>
      <trkpt lat="48.58255" lon="1.97574">
        <ele>147.39999389648</ele>
        <time>2020-05-26T07:37:46.000Z</time>
      </trkpt>
      <trkpt lat="48.58261" lon="1.97582">
        <ele>147.39999389648</ele>
        <time>2020-05-26T07:37:51.000Z</time>
      </trkpt>
      <trkpt lat="48.58265" lon="1.97596">
        <ele>147.39999389648</ele>
        <time>2020-05-26T07:37:58.000Z</time>
      </trkpt>
      <trkpt lat="48.5827" lon="1.97609">
        <ele>147.39999389648</ele>
        <time>2020-05-26T07:38:05.000Z</time>
      </trkpt>
      <trkpt lat="48.58269" lon="1.97619">
        <ele>147.39999389648</ele>
        <time>2020-05-26T07:38:10.000Z</time>
      </trkpt>
      <trkpt lat="48.58273" lon="1.97631">
        <ele>147.39999389648</ele>
        <time>2020-05-26T07:38:15.000Z</time>
      </trkpt>
      <trkpt lat="48.58279" lon="1.9764">
        <ele>147.80000305176</ele>
        <time>2020-05-26T07:38:19.000Z</time>
      </trkpt>
      <trkpt lat="48.5828" lon="1.97642">
        <ele>148.19999694824</ele>
        <time>2020-05-26T07:38:20.000Z</time>
      </trkpt>
      <trkpt lat="48.58282" lon="1.97644">
        <ele>148.60000610352</ele>
        <time>2020-05-26T07:38:21.000Z</time>
      </trkpt>
      <trkpt lat="48.58283" lon="1.97647">
        <ele>149</ele>
        <time>2020-05-26T07:38:22.000Z</time>
      </trkpt>
      <trkpt lat="48.58284" lon="1.97649">
        <ele>149.39999389648</ele>
        <time>2020-05-26T07:38:23.000Z</time>
      </trkpt>
      <trkpt lat="48.58286" lon="1.97654">
        <ele>149.39999389648</ele>
        <time>2020-05-26T07:38:26.000Z</time>
      </trkpt>
      <trkpt lat="48.58288" lon="1.97659">
        <ele>149.39999389648</ele>
        <time>2020-05-26T07:38:29.000Z</time>
      </trkpt>
      <trkpt lat="48.58301" lon="1.97692">
        <ele>149.39999389648</ele>
        <time>2020-05-26T07:38:47.000Z</time>
      </trkpt>
      <trkpt lat="48.58302" lon="1.97695">
        <ele>149.39999389648</ele>
        <time>2020-05-26T07:38:48.000Z</time>
      </trkpt>
      <trkpt lat="48.58305" lon="1.97704">
        <ele>149.39999389648</ele>
        <time>2020-05-26T07:38:53.000Z</time>
      </trkpt>
      <trkpt lat="48.58316" lon="1.97719">
        <ele>149.39999389648</ele>
        <time>2020-05-26T07:38:59.000Z</time>
      </trkpt>
      <trkpt lat="48.58321" lon="1.97729">
        <ele>149.39999389648</ele>
        <time>2020-05-26T07:39:03.000Z</time>
      </trkpt>
      <trkpt lat="48.58323" lon="1.97742">
        <ele>149.39999389648</ele>
        <time>2020-05-26T07:39:08.000Z</time>
      </trkpt>
      <trkpt lat="48.58324" lon="1.97754">
        <ele>149.39999389648</ele>
        <time>2020-05-26T07:39:15.000Z</time>
      </trkpt>
      <trkpt lat="48.5833" lon="1.97761">
        <ele>149.39999389648</ele>
        <time>2020-05-26T07:39:20.000Z</time>
      </trkpt>
      <trkpt lat="48.58333" lon="1.97769">
        <ele>149.39999389648</ele>
        <time>2020-05-26T07:39:25.000Z</time>
      </trkpt>
      <trkpt lat="48.58337" lon="1.97778">
        <ele>149.39999389648</ele>
        <time>2020-05-26T07:39:30.000Z</time>
      </trkpt>
      <trkpt lat="48.5834" lon="1.9778">
        <ele>149.39999389648</ele>
        <time>2020-05-26T07:39:34.000Z</time>
      </trkpt>
      <trkpt lat="48.58342" lon="1.97783">
        <ele>149.39999389648</ele>
        <time>2020-05-26T07:39:36.000Z</time>
      </trkpt>
      <trkpt lat="48.58345" lon="1.97787">
        <ele>149.39999389648</ele>
        <time>2020-05-26T07:39:38.000Z</time>
      </trkpt>
      <trkpt lat="48.58351" lon="1.97794">
        <ele>149.39999389648</ele>
        <time>2020-05-26T07:39:43.000Z</time>
      </trkpt>
      <trkpt lat="48.58353" lon="1.97797">
        <ele>149.39999389648</ele>
        <time>2020-05-26T07:39:45.000Z</time>
      </trkpt>
      <trkpt lat="48.58355" lon="1.97803">
        <ele>149.39999389648</ele>
        <time>2020-05-26T07:39:49.000Z</time>
      </trkpt>
      <trkpt lat="48.58355" lon="1.97805">
        <ele>149.39999389648</ele>
        <time>2020-05-26T07:39:50.000Z</time>
      </trkpt>
      <trkpt lat="48.58362" lon="1.97816">
        <ele>149.39999389648</ele>
        <time>2020-05-26T07:39:56.000Z</time>
      </trkpt>
      <trkpt lat="48.58363" lon="1.97819">
        <ele>149.39999389648</ele>
        <time>2020-05-26T07:39:58.000Z</time>
      </trkpt>
      <trkpt lat="48.58364" lon="1.97823">
        <ele>149.39999389648</ele>
        <time>2020-05-26T07:40:01.000Z</time>
      </trkpt>
      <trkpt lat="48.5837" lon="1.97834">
        <ele>149.39999389648</ele>
        <time>2020-05-26T07:40:07.000Z</time>
      </trkpt>
      <trkpt lat="48.58373" lon="1.97842">
        <ele>149.39999389648</ele>
        <time>2020-05-26T07:40:12.000Z</time>
      </trkpt>
      <trkpt lat="48.5838" lon="1.97849">
        <ele>149.39999389648</ele>
        <time>2020-05-26T07:40:17.000Z</time>
      </trkpt>
      <trkpt lat="48.58385" lon="1.97854">
        <ele>149.39999389648</ele>
        <time>2020-05-26T07:40:22.000Z</time>
      </trkpt>
      <trkpt lat="48.58397" lon="1.97865">
        <ele>149.39999389648</ele>
        <time>2020-05-26T07:40:30.000Z</time>
      </trkpt>
      <trkpt lat="48.584" lon="1.97868">
        <ele>149.39999389648</ele>
        <time>2020-05-26T07:40:34.000Z</time>
      </trkpt>
      <trkpt lat="48.58406" lon="1.97875">
        <ele>149.39999389648</ele>
        <time>2020-05-26T07:40:38.000Z</time>
      </trkpt>
      <trkpt lat="48.58408" lon="1.97875">
        <ele>149.39999389648</ele>
        <time>2020-05-26T07:40:39.000Z</time>
      </trkpt>
      <trkpt lat="48.5841" lon="1.97881">
        <ele>149.39999389648</ele>
        <time>2020-05-26T07:40:43.000Z</time>
      </trkpt>
      <trkpt lat="48.58411" lon="1.97883">
        <ele>149.39999389648</ele>
        <time>2020-05-26T07:40:44.000Z</time>
      </trkpt>
      <trkpt lat="48.58413" lon="1.97887">
        <ele>149.39999389648</ele>
        <time>2020-05-26T07:40:48.000Z</time>
      </trkpt>
      <trkpt lat="48.58421" lon="1.979">
        <ele>149.39999389648</ele>
        <time>2020-05-26T07:40:59.000Z</time>
      </trkpt>
      <trkpt lat="48.58424" lon="1.97906">
        <ele>149.39999389648</ele>
        <time>2020-05-26T07:41:02.000Z</time>
      </trkpt>
      <trkpt lat="48.58431" lon="1.97915">
        <ele>149.39999389648</ele>
        <time>2020-05-26T07:41:08.000Z</time>
      </trkpt>
      <trkpt lat="48.5844" lon="1.97925">
        <ele>149.39999389648</ele>
        <time>2020-05-26T07:41:16.000Z</time>
      </trkpt>
      <trkpt lat="48.58449" lon="1.97937">
        <ele>149.39999389648</ele>
        <time>2020-05-26T07:41:23.000Z</time>
      </trkpt>
      <trkpt lat="48.58453" lon="1.97941">
        <ele>149.39999389648</ele>
        <time>2020-05-26T07:41:28.000Z</time>
      </trkpt>
      <trkpt lat="48.58459" lon="1.9795">
        <ele>149.39999389648</ele>
        <time>2020-05-26T07:41:35.000Z</time>
      </trkpt>
      <trkpt lat="48.58466" lon="1.97958">
        <ele>149.39999389648</ele>
        <time>2020-05-26T07:41:42.000Z</time>
      </trkpt>
      <trkpt lat="48.5847" lon="1.97961">
        <ele>149.39999389648</ele>
        <time>2020-05-26T07:41:45.000Z</time>
      </trkpt>
      <trkpt lat="48.58475" lon="1.97966">
        <ele>149.39999389648</ele>
        <time>2020-05-26T07:41:49.000Z</time>
      </trkpt>
      <trkpt lat="48.58483" lon="1.97976">
        <ele>149.39999389648</ele>
        <time>2020-05-26T07:41:56.000Z</time>
      </trkpt>
      <trkpt lat="48.58488" lon="1.97983">
        <ele>149.39999389648</ele>
        <time>2020-05-26T07:42:02.000Z</time>
      </trkpt>
      <trkpt lat="48.58499" lon="1.97991">
        <ele>149.39999389648</ele>
        <time>2020-05-26T07:42:09.000Z</time>
      </trkpt>
      <trkpt lat="48.5851" lon="1.98003">
        <ele>149.39999389648</ele>
        <time>2020-05-26T07:42:14.000Z</time>
      </trkpt>
      <trkpt lat="48.58511" lon="1.98004">
        <ele>149.39999389648</ele>
        <time>2020-05-26T07:42:15.000Z</time>
      </trkpt>
      <trkpt lat="48.58518" lon="1.98009">
        <ele>149.39999389648</ele>
        <time>2020-05-26T07:42:20.000Z</time>
      </trkpt>
      <trkpt lat="48.58524" lon="1.98018">
        <ele>149.39999389648</ele>
        <time>2020-05-26T07:42:26.000Z</time>
      </trkpt>
      <trkpt lat="48.58524" lon="1.9802">
        <ele>149.39999389648</ele>
        <time>2020-05-26T07:42:27.000Z</time>
      </trkpt>
      <trkpt lat="48.58525" lon="1.9802">
        <ele>149.39999389648</ele>
        <time>2020-05-26T07:42:30.000Z</time>
      </trkpt>
      <trkpt lat="48.58529" lon="1.98025">
        <ele>149.39999389648</ele>
        <time>2020-05-26T07:42:32.000Z</time>
      </trkpt>
      <trkpt lat="48.58542" lon="1.98035">
        <ele>149.39999389648</ele>
        <time>2020-05-26T07:42:38.000Z</time>
      </trkpt>
      <trkpt lat="48.58552" lon="1.98048">
        <ele>149.39999389648</ele>
        <time>2020-05-26T07:42:44.000Z</time>
      </trkpt>
      <trkpt lat="48.58553" lon="1.9805">
        <ele>149.39999389648</ele>
        <time>2020-05-26T07:42:45.000Z</time>
      </trkpt>
      <trkpt lat="48.58557" lon="1.98055">
        <ele>149.39999389648</ele>
        <time>2020-05-26T07:42:49.000Z</time>
      </trkpt>
      <trkpt lat="48.58563" lon="1.98058">
        <ele>149.39999389648</ele>
        <time>2020-05-26T07:42:53.000Z</time>
      </trkpt>
      <trkpt lat="48.58565" lon="1.9806">
        <ele>149.39999389648</ele>
        <time>2020-05-26T07:42:55.000Z</time>
      </trkpt>
      <trkpt lat="48.58572" lon="1.98062">
        <ele>149.39999389648</ele>
        <time>2020-05-26T07:43:02.000Z</time>
      </trkpt>
      <trkpt lat="48.58574" lon="1.98065">
        <ele>149.39999389648</ele>
        <time>2020-05-26T07:43:06.000Z</time>
      </trkpt>
      <trkpt lat="48.58581" lon="1.98077">
        <ele>149.39999389648</ele>
        <time>2020-05-26T07:43:55.000Z</time>
      </trkpt>
      <trkpt lat="48.58581" lon="1.98078">
        <ele>149.39999389648</ele>
        <time>2020-05-26T07:43:56.000Z</time>
      </trkpt>
      <trkpt lat="48.58582" lon="1.98078">
        <ele>149.39999389648</ele>
        <time>2020-05-26T07:43:57.000Z</time>
      </trkpt>
      <trkpt lat="48.58582" lon="1.9808">
        <ele>149.39999389648</ele>
        <time>2020-05-26T07:43:58.000Z</time>
      </trkpt>
      <trkpt lat="48.58583" lon="1.98081">
        <ele>149.39999389648</ele>
        <time>2020-05-26T07:43:59.000Z</time>
      </trkpt>
      <trkpt lat="48.58583" lon="1.98082">
        <ele>149.39999389648</ele>
        <time>2020-05-26T07:44:00.000Z</time>
      </trkpt>
      <trkpt lat="48.58582" lon="1.98088">
        <ele>149.39999389648</ele>
        <time>2020-05-26T07:44:03.000Z</time>
      </trkpt>
      <trkpt lat="48.58581" lon="1.98095">
        <ele>149.39999389648</ele>
        <time>2020-05-26T07:44:07.000Z</time>
      </trkpt>
      <trkpt lat="48.58586" lon="1.98101">
        <ele>149.39999389648</ele>
        <time>2020-05-26T07:44:11.000Z</time>
      </trkpt>
      <trkpt lat="48.58587" lon="1.98103">
        <ele>149.39999389648</ele>
        <time>2020-05-26T07:44:12.000Z</time>
      </trkpt>
      <trkpt lat="48.58589" lon="1.98107">
        <ele>149.39999389648</ele>
        <time>2020-05-26T07:44:15.000Z</time>
      </trkpt>
      <trkpt lat="48.5859" lon="1.98109">
        <ele>149.39999389648</ele>
        <time>2020-05-26T07:44:16.000Z</time>
      </trkpt>
      <trkpt lat="48.5859" lon="1.98112">
        <ele>149.39999389648</ele>
        <time>2020-05-26T07:44:18.000Z</time>
      </trkpt>
      <trkpt lat="48.5859" lon="1.98115">
        <ele>149.39999389648</ele>
        <time>2020-05-26T07:44:21.000Z</time>
      </trkpt>
      <trkpt lat="48.5859" lon="1.98149">
        <ele>149.39999389648</ele>
        <time>2020-05-26T07:44:38.000Z</time>
      </trkpt>
      <trkpt lat="48.58591" lon="1.98151">
        <ele>149.39999389648</ele>
        <time>2020-05-26T07:44:39.000Z</time>
      </trkpt>
      <trkpt lat="48.58593" lon="1.9816">
        <ele>149.39999389648</ele>
        <time>2020-05-26T07:44:43.000Z</time>
      </trkpt>
      <trkpt lat="48.58593" lon="1.98162">
        <ele>149.39999389648</ele>
        <time>2020-05-26T07:44:44.000Z</time>
      </trkpt>
      <trkpt lat="48.58594" lon="1.98165">
        <ele>149.39999389648</ele>
        <time>2020-05-26T07:44:47.000Z</time>
      </trkpt>
      <trkpt lat="48.58591" lon="1.98169">
        <ele>149.39999389648</ele>
        <time>2020-05-26T07:44:53.000Z</time>
      </trkpt>
      <trkpt lat="48.58591" lon="1.9817">
        <ele>149.39999389648</ele>
        <time>2020-05-26T07:44:54.000Z</time>
      </trkpt>
      <trkpt lat="48.58589" lon="1.98174">
        <ele>149.39999389648</ele>
        <time>2020-05-26T07:44:59.000Z</time>
      </trkpt>
      <trkpt lat="48.58587" lon="1.98175">
        <ele>149.39999389648</ele>
        <time>2020-05-26T07:45:01.000Z</time>
      </trkpt>
      <trkpt lat="48.58586" lon="1.98176">
        <ele>149.39999389648</ele>
        <time>2020-05-26T07:45:04.000Z</time>
      </trkpt>
      <trkpt lat="48.58585" lon="1.98176">
        <ele>149.39999389648</ele>
        <time>2020-05-26T07:45:05.000Z</time>
      </trkpt>
      <trkpt lat="48.58582" lon="1.98176">
        <ele>149.39999389648</ele>
        <time>2020-05-26T07:45:10.000Z</time>
      </trkpt>
      <trkpt lat="48.58577" lon="1.98176">
        <ele>149.39999389648</ele>
        <time>2020-05-26T07:45:15.000Z</time>
      </trkpt>
      <trkpt lat="48.5857" lon="1.98178">
        <ele>149.39999389648</ele>
        <time>2020-05-26T07:45:21.000Z</time>
      </trkpt>
      <trkpt lat="48.58567" lon="1.98182">
        <ele>149.39999389648</ele>
        <time>2020-05-26T07:45:24.000Z</time>
      </trkpt>
      <trkpt lat="48.58566" lon="1.98185">
        <ele>149.39999389648</ele>
        <time>2020-05-26T07:45:26.000Z</time>
      </trkpt>
      <trkpt lat="48.58565" lon="1.98186">
        <ele>149.39999389648</ele>
        <time>2020-05-26T07:45:27.000Z</time>
      </trkpt>
      <trkpt lat="48.58562" lon="1.98192">
        <ele>149.39999389648</ele>
        <time>2020-05-26T07:45:31.000Z</time>
      </trkpt>
      <trkpt lat="48.58557" lon="1.98203">
        <ele>149.39999389648</ele>
        <time>2020-05-26T07:45:37.000Z</time>
      </trkpt>
      <trkpt lat="48.58556" lon="1.98205">
        <ele>149.39999389648</ele>
        <time>2020-05-26T07:45:38.000Z</time>
      </trkpt>
      <trkpt lat="48.58555" lon="1.9821">
        <ele>149.39999389648</ele>
        <time>2020-05-26T07:45:42.000Z</time>
      </trkpt>
      <trkpt lat="48.58554" lon="1.98212">
        <ele>149.39999389648</ele>
        <time>2020-05-26T07:45:43.000Z</time>
      </trkpt>
      <trkpt lat="48.58547" lon="1.98224">
        <ele>149</ele>
        <time>2020-05-26T07:45:50.000Z</time>
      </trkpt>
      <trkpt lat="48.58546" lon="1.98226">
        <ele>148.60000610352</ele>
        <time>2020-05-26T07:45:51.000Z</time>
      </trkpt>
      <trkpt lat="48.58546" lon="1.98228">
        <ele>148.19999694824</ele>
        <time>2020-05-26T07:45:52.000Z</time>
      </trkpt>
      <trkpt lat="48.58545" lon="1.9823">
        <ele>147.60000610352</ele>
        <time>2020-05-26T07:45:53.000Z</time>
      </trkpt>
      <trkpt lat="48.58544" lon="1.98232">
        <ele>147.19999694824</ele>
        <time>2020-05-26T07:45:54.000Z</time>
      </trkpt>
      <trkpt lat="48.5854" lon="1.98235">
        <ele>147.19999694824</ele>
        <time>2020-05-26T07:45:57.000Z</time>
      </trkpt>
      <trkpt lat="48.58537" lon="1.9824">
        <ele>147.19999694824</ele>
        <time>2020-05-26T07:46:00.000Z</time>
      </trkpt>
      <trkpt lat="48.58536" lon="1.98242">
        <ele>147.19999694824</ele>
        <time>2020-05-26T07:46:02.000Z</time>
      </trkpt>
      <trkpt lat="48.58533" lon="1.98247">
        <ele>147.19999694824</ele>
        <time>2020-05-26T07:46:06.000Z</time>
      </trkpt>
      <trkpt lat="48.58532" lon="1.98257">
        <ele>147.19999694824</ele>
        <time>2020-05-26T07:46:12.000Z</time>
      </trkpt>
      <trkpt lat="48.58532" lon="1.98265">
        <ele>147.19999694824</ele>
        <time>2020-05-26T07:46:17.000Z</time>
      </trkpt>
      <trkpt lat="48.58532" lon="1.98265">
        <ele>147.19999694824</ele>
        <time>2020-05-26T07:46:18.000Z</time>
      </trkpt>
      <trkpt lat="48.58531" lon="1.9827">
        <ele>147.19999694824</ele>
        <time>2020-05-26T07:46:29.000Z</time>
      </trkpt>
      <trkpt lat="48.58529" lon="1.98272">
        <ele>147.19999694824</ele>
        <time>2020-05-26T07:46:30.000Z</time>
      </trkpt>
      <trkpt lat="48.5853" lon="1.98273">
        <ele>147.19999694824</ele>
        <time>2020-05-26T07:46:31.000Z</time>
      </trkpt>
      <trkpt lat="48.58528" lon="1.98282">
        <ele>147.19999694824</ele>
        <time>2020-05-26T07:46:36.000Z</time>
      </trkpt>
      <trkpt lat="48.58527" lon="1.98292">
        <ele>147.19999694824</ele>
        <time>2020-05-26T07:46:41.000Z</time>
      </trkpt>
      <trkpt lat="48.58526" lon="1.98301">
        <ele>147.19999694824</ele>
        <time>2020-05-26T07:46:45.000Z</time>
      </trkpt>
      <trkpt lat="48.58526" lon="1.98305">
        <ele>147.19999694824</ele>
        <time>2020-05-26T07:46:47.000Z</time>
      </trkpt>
      <trkpt lat="48.58525" lon="1.98307">
        <ele>147.19999694824</ele>
        <time>2020-05-26T07:46:48.000Z</time>
      </trkpt>
      <trkpt lat="48.58526" lon="1.98311">
        <ele>147.19999694824</ele>
        <time>2020-05-26T07:46:50.000Z</time>
      </trkpt>
      <trkpt lat="48.58526" lon="1.98314">
        <ele>147.19999694824</ele>
        <time>2020-05-26T07:46:52.000Z</time>
      </trkpt>
      <trkpt lat="48.58527" lon="1.98318">
        <ele>147.19999694824</ele>
        <time>2020-05-26T07:46:54.000Z</time>
      </trkpt>
      <trkpt lat="48.58529" lon="1.98322">
        <ele>147.19999694824</ele>
        <time>2020-05-26T07:46:57.000Z</time>
      </trkpt>
      <trkpt lat="48.5853" lon="1.98324">
        <ele>147.19999694824</ele>
        <time>2020-05-26T07:46:58.000Z</time>
      </trkpt>
      <trkpt lat="48.58533" lon="1.98331">
        <ele>147.19999694824</ele>
        <time>2020-05-26T07:47:02.000Z</time>
      </trkpt>
      <trkpt lat="48.58532" lon="1.98335">
        <ele>147.19999694824</ele>
        <time>2020-05-26T07:47:05.000Z</time>
      </trkpt>
      <trkpt lat="48.58534" lon="1.98342">
        <ele>147.19999694824</ele>
        <time>2020-05-26T07:47:10.000Z</time>
      </trkpt>
      <trkpt lat="48.58539" lon="1.98349">
        <ele>147.19999694824</ele>
        <time>2020-05-26T07:47:14.000Z</time>
      </trkpt>
      <trkpt lat="48.58546" lon="1.98352">
        <ele>146.80000305176</ele>
        <time>2020-05-26T07:47:18.000Z</time>
      </trkpt>
      <trkpt lat="48.58548" lon="1.98353">
        <ele>146.39999389648</ele>
        <time>2020-05-26T07:47:19.000Z</time>
      </trkpt>
      <trkpt lat="48.58549" lon="1.98353">
        <ele>146</ele>
        <time>2020-05-26T07:47:20.000Z</time>
      </trkpt>
      <trkpt lat="48.5855" lon="1.98355">
        <ele>145.60000610352</ele>
        <time>2020-05-26T07:47:21.000Z</time>
      </trkpt>
      <trkpt lat="48.58551" lon="1.98355">
        <ele>145.19999694824</ele>
        <time>2020-05-26T07:47:22.000Z</time>
      </trkpt>
      <trkpt lat="48.58556" lon="1.98359">
        <ele>145.19999694824</ele>
        <time>2020-05-26T07:47:26.000Z</time>
      </trkpt>
      <trkpt lat="48.58566" lon="1.98362">
        <ele>145.19999694824</ele>
        <time>2020-05-26T07:47:32.000Z</time>
      </trkpt>
      <trkpt lat="48.58573" lon="1.98361">
        <ele>145.19999694824</ele>
        <time>2020-05-26T07:47:37.000Z</time>
      </trkpt>
      <trkpt lat="48.58583" lon="1.98363">
        <ele>145.19999694824</ele>
        <time>2020-05-26T07:47:43.000Z</time>
      </trkpt>
      <trkpt lat="48.58589" lon="1.9836">
        <ele>145.19999694824</ele>
        <time>2020-05-26T07:47:48.000Z</time>
      </trkpt>
      <trkpt lat="48.58594" lon="1.98359">
        <ele>145.19999694824</ele>
        <time>2020-05-26T07:47:53.000Z</time>
      </trkpt>
      <trkpt lat="48.586" lon="1.98356">
        <ele>145.19999694824</ele>
        <time>2020-05-26T07:47:59.000Z</time>
      </trkpt>
      <trkpt lat="48.58603" lon="1.98354">
        <ele>145.19999694824</ele>
        <time>2020-05-26T07:48:01.000Z</time>
      </trkpt>
      <trkpt lat="48.58609" lon="1.98354">
        <ele>144.80000305176</ele>
        <time>2020-05-26T07:48:05.000Z</time>
      </trkpt>
      <trkpt lat="48.5861" lon="1.98353">
        <ele>144.39999389648</ele>
        <time>2020-05-26T07:48:06.000Z</time>
      </trkpt>
      <trkpt lat="48.5861" lon="1.98353">
        <ele>144</ele>
        <time>2020-05-26T07:48:07.000Z</time>
      </trkpt>
      <trkpt lat="48.58612" lon="1.98352">
        <ele>143.39999389648</ele>
        <time>2020-05-26T07:48:08.000Z</time>
      </trkpt>
      <trkpt lat="48.58613" lon="1.98352">
        <ele>143</ele>
        <time>2020-05-26T07:48:09.000Z</time>
      </trkpt>
      <trkpt lat="48.58618" lon="1.98351">
        <ele>143</ele>
        <time>2020-05-26T07:48:12.000Z</time>
      </trkpt>
      <trkpt lat="48.58622" lon="1.98348">
        <ele>143</ele>
        <time>2020-05-26T07:48:15.000Z</time>
      </trkpt>
      <trkpt lat="48.58626" lon="1.98347">
        <ele>143</ele>
        <time>2020-05-26T07:48:19.000Z</time>
      </trkpt>
      <trkpt lat="48.58634" lon="1.98347">
        <ele>143</ele>
        <time>2020-05-26T07:48:24.000Z</time>
      </trkpt>
      <trkpt lat="48.58639" lon="1.98345">
        <ele>143</ele>
        <time>2020-05-26T07:48:28.000Z</time>
      </trkpt>
      <trkpt lat="48.58649" lon="1.98346">
        <ele>143</ele>
        <time>2020-05-26T07:48:33.000Z</time>
      </trkpt>
      <trkpt lat="48.58655" lon="1.98348">
        <ele>143</ele>
        <time>2020-05-26T07:48:36.000Z</time>
      </trkpt>
      <trkpt lat="48.58657" lon="1.98348">
        <ele>143</ele>
        <time>2020-05-26T07:48:37.000Z</time>
      </trkpt>
      <trkpt lat="48.58667" lon="1.98352">
        <ele>143</ele>
        <time>2020-05-26T07:48:42.000Z</time>
      </trkpt>
      <trkpt lat="48.58672" lon="1.98354">
        <ele>143</ele>
        <time>2020-05-26T07:48:45.000Z</time>
      </trkpt>
      <trkpt lat="48.58675" lon="1.98355">
        <ele>143</ele>
        <time>2020-05-26T07:48:47.000Z</time>
      </trkpt>
      <trkpt lat="48.58684" lon="1.98359">
        <ele>143</ele>
        <time>2020-05-26T07:48:52.000Z</time>
      </trkpt>
      <trkpt lat="48.58688" lon="1.98363">
        <ele>143</ele>
        <time>2020-05-26T07:48:58.000Z</time>
      </trkpt>
      <trkpt lat="48.58691" lon="1.98365">
        <ele>143</ele>
        <time>2020-05-26T07:49:01.000Z</time>
      </trkpt>
      <trkpt lat="48.58693" lon="1.98368">
        <ele>143</ele>
        <time>2020-05-26T07:49:02.000Z</time>
      </trkpt>
      <trkpt lat="48.58697" lon="1.98369">
        <ele>143</ele>
        <time>2020-05-26T07:49:04.000Z</time>
      </trkpt>
      <trkpt lat="48.58699" lon="1.9837">
        <ele>143</ele>
        <time>2020-05-26T07:49:05.000Z</time>
      </trkpt>
      <trkpt lat="48.58704" lon="1.98374">
        <ele>143</ele>
        <time>2020-05-26T07:49:08.000Z</time>
      </trkpt>
      <trkpt lat="48.58705" lon="1.98376">
        <ele>143</ele>
        <time>2020-05-26T07:49:09.000Z</time>
      </trkpt>
      <trkpt lat="48.58707" lon="1.98377">
        <ele>143</ele>
        <time>2020-05-26T07:49:10.000Z</time>
      </trkpt>
      <trkpt lat="48.58714" lon="1.98382">
        <ele>143</ele>
        <time>2020-05-26T07:49:16.000Z</time>
      </trkpt>
      <trkpt lat="48.58719" lon="1.98389">
        <ele>143</ele>
        <time>2020-05-26T07:49:22.000Z</time>
      </trkpt>
      <trkpt lat="48.58724" lon="1.98397">
        <ele>143</ele>
        <time>2020-05-26T07:49:29.000Z</time>
      </trkpt>
      <trkpt lat="48.5873" lon="1.98404">
        <ele>143</ele>
        <time>2020-05-26T07:49:34.000Z</time>
      </trkpt>
      <trkpt lat="48.58732" lon="1.98408">
        <ele>143</ele>
        <time>2020-05-26T07:49:38.000Z</time>
      </trkpt>
      <trkpt lat="48.58735" lon="1.98411">
        <ele>143</ele>
        <time>2020-05-26T07:49:40.000Z</time>
      </trkpt>
      <trkpt lat="48.58742" lon="1.9842">
        <ele>143</ele>
        <time>2020-05-26T07:49:46.000Z</time>
      </trkpt>
      <trkpt lat="48.58746" lon="1.98425">
        <ele>143</ele>
        <time>2020-05-26T07:49:51.000Z</time>
      </trkpt>
      <trkpt lat="48.5875" lon="1.9843">
        <ele>143</ele>
        <time>2020-05-26T07:49:55.000Z</time>
      </trkpt>
      <trkpt lat="48.5876" lon="1.9844">
        <ele>143</ele>
        <time>2020-05-26T07:50:01.000Z</time>
      </trkpt>
      <trkpt lat="48.58768" lon="1.98447">
        <ele>143</ele>
        <time>2020-05-26T07:50:07.000Z</time>
      </trkpt>
      <trkpt lat="48.58775" lon="1.98455">
        <ele>143</ele>
        <time>2020-05-26T07:50:13.000Z</time>
      </trkpt>
      <trkpt lat="48.5878" lon="1.98462">
        <ele>143</ele>
        <time>2020-05-26T07:50:18.000Z</time>
      </trkpt>
      <trkpt lat="48.58786" lon="1.98468">
        <ele>143</ele>
        <time>2020-05-26T07:50:22.000Z</time>
      </trkpt>
      <trkpt lat="48.58793" lon="1.98475">
        <ele>143</ele>
        <time>2020-05-26T07:50:28.000Z</time>
      </trkpt>
      <trkpt lat="48.58794" lon="1.98477">
        <ele>143</ele>
        <time>2020-05-26T07:50:30.000Z</time>
      </trkpt>
      <trkpt lat="48.588" lon="1.98485">
        <ele>143</ele>
        <time>2020-05-26T07:50:38.000Z</time>
      </trkpt>
      <trkpt lat="48.58802" lon="1.98487">
        <ele>143</ele>
        <time>2020-05-26T07:50:39.000Z</time>
      </trkpt>
      <trkpt lat="48.58806" lon="1.98494">
        <ele>143</ele>
        <time>2020-05-26T07:50:43.000Z</time>
      </trkpt>
      <trkpt lat="48.58813" lon="1.98498">
        <ele>143</ele>
        <time>2020-05-26T07:50:47.000Z</time>
      </trkpt>
      <trkpt lat="48.58816" lon="1.98501">
        <ele>143</ele>
        <time>2020-05-26T07:50:51.000Z</time>
      </trkpt>
      <trkpt lat="48.58819" lon="1.98506">
        <ele>143</ele>
        <time>2020-05-26T07:50:53.000Z</time>
      </trkpt>
      <trkpt lat="48.58822" lon="1.9851">
        <ele>143</ele>
        <time>2020-05-26T07:50:56.000Z</time>
      </trkpt>
      <trkpt lat="48.58829" lon="1.98519">
        <ele>143</ele>
        <time>2020-05-26T07:51:01.000Z</time>
      </trkpt>
      <trkpt lat="48.58835" lon="1.98525">
        <ele>143</ele>
        <time>2020-05-26T07:51:06.000Z</time>
      </trkpt>
      <trkpt lat="48.58839" lon="1.98528">
        <ele>143</ele>
        <time>2020-05-26T07:51:09.000Z</time>
      </trkpt>
      <trkpt lat="48.58842" lon="1.98531">
        <ele>143</ele>
        <time>2020-05-26T07:51:11.000Z</time>
      </trkpt>
      <trkpt lat="48.5885" lon="1.98539">
        <ele>143</ele>
        <time>2020-05-26T07:51:16.000Z</time>
      </trkpt>
      <trkpt lat="48.58856" lon="1.98546">
        <ele>143</ele>
        <time>2020-05-26T07:51:21.000Z</time>
      </trkpt>
      <trkpt lat="48.58859" lon="1.98551">
        <ele>143</ele>
        <time>2020-05-26T07:51:26.000Z</time>
      </trkpt>
      <trkpt lat="48.58866" lon="1.98558">
        <ele>143</ele>
        <time>2020-05-26T07:51:31.000Z</time>
      </trkpt>
      <trkpt lat="48.58872" lon="1.98568">
        <ele>143</ele>
        <time>2020-05-26T07:51:36.000Z</time>
      </trkpt>
      <trkpt lat="48.58877" lon="1.98571">
        <ele>143</ele>
        <time>2020-05-26T07:51:40.000Z</time>
      </trkpt>
      <trkpt lat="48.58882" lon="1.98576">
        <ele>143</ele>
        <time>2020-05-26T07:51:44.000Z</time>
      </trkpt>
      <trkpt lat="48.58887" lon="1.98579">
        <ele>143</ele>
        <time>2020-05-26T07:51:47.000Z</time>
      </trkpt>
      <trkpt lat="48.58889" lon="1.98582">
        <ele>143</ele>
        <time>2020-05-26T07:51:49.000Z</time>
      </trkpt>
      <trkpt lat="48.58893" lon="1.98584">
        <ele>143</ele>
        <time>2020-05-26T07:51:52.000Z</time>
      </trkpt>
      <trkpt lat="48.58895" lon="1.98585">
        <ele>143</ele>
        <time>2020-05-26T07:51:53.000Z</time>
      </trkpt>
      <trkpt lat="48.58901" lon="1.98594">
        <ele>143</ele>
        <time>2020-05-26T07:51:58.000Z</time>
      </trkpt>
      <trkpt lat="48.58904" lon="1.986">
        <ele>143</ele>
        <time>2020-05-26T07:52:03.000Z</time>
      </trkpt>
      <trkpt lat="48.58911" lon="1.98609">
        <ele>143</ele>
        <time>2020-05-26T07:52:09.000Z</time>
      </trkpt>
      <trkpt lat="48.58914" lon="1.98615">
        <ele>143</ele>
        <time>2020-05-26T07:52:14.000Z</time>
      </trkpt>
      <trkpt lat="48.58917" lon="1.98616">
        <ele>143</ele>
        <time>2020-05-26T07:52:16.000Z</time>
      </trkpt>
      <trkpt lat="48.58921" lon="1.9862">
        <ele>143</ele>
        <time>2020-05-26T07:52:20.000Z</time>
      </trkpt>
      <trkpt lat="48.58921" lon="1.98622">
        <ele>143</ele>
        <time>2020-05-26T07:52:22.000Z</time>
      </trkpt>
      <trkpt lat="48.58923" lon="1.98627">
        <ele>143</ele>
        <time>2020-05-26T07:52:26.000Z</time>
      </trkpt>
      <trkpt lat="48.58924" lon="1.98631">
        <ele>143</ele>
        <time>2020-05-26T07:52:28.000Z</time>
      </trkpt>
      <trkpt lat="48.58927" lon="1.98634">
        <ele>143</ele>
        <time>2020-05-26T07:52:33.000Z</time>
      </trkpt>
      <trkpt lat="48.58932" lon="1.98637">
        <ele>143</ele>
        <time>2020-05-26T07:52:37.000Z</time>
      </trkpt>
      <trkpt lat="48.58933" lon="1.98638">
        <ele>143</ele>
        <time>2020-05-26T07:52:39.000Z</time>
      </trkpt>
      <trkpt lat="48.58941" lon="1.98641">
        <ele>143</ele>
        <time>2020-05-26T07:52:44.000Z</time>
      </trkpt>
      <trkpt lat="48.58943" lon="1.98643">
        <ele>143</ele>
        <time>2020-05-26T07:52:45.000Z</time>
      </trkpt>
      <trkpt lat="48.58951" lon="1.98652">
        <ele>143</ele>
        <time>2020-05-26T07:52:50.000Z</time>
      </trkpt>
      <trkpt lat="48.58958" lon="1.98656">
        <ele>143</ele>
        <time>2020-05-26T07:52:54.000Z</time>
      </trkpt>
      <trkpt lat="48.58959" lon="1.9866">
        <ele>143</ele>
        <time>2020-05-26T07:52:58.000Z</time>
      </trkpt>
      <trkpt lat="48.58961" lon="1.98662">
        <ele>143</ele>
        <time>2020-05-26T07:52:59.000Z</time>
      </trkpt>
      <trkpt lat="48.58966" lon="1.98665">
        <ele>143</ele>
        <time>2020-05-26T07:53:03.000Z</time>
      </trkpt>
      <trkpt lat="48.58972" lon="1.98671">
        <ele>143</ele>
        <time>2020-05-26T07:53:08.000Z</time>
      </trkpt>
      <trkpt lat="48.58979" lon="1.98677">
        <ele>143</ele>
        <time>2020-05-26T07:53:13.000Z</time>
      </trkpt>
      <trkpt lat="48.58981" lon="1.98678">
        <ele>143</ele>
        <time>2020-05-26T07:53:14.000Z</time>
      </trkpt>
      <trkpt lat="48.58984" lon="1.98682">
        <ele>143</ele>
        <time>2020-05-26T07:53:16.000Z</time>
      </trkpt>
      <trkpt lat="48.58988" lon="1.98684">
        <ele>143</ele>
        <time>2020-05-26T07:53:19.000Z</time>
      </trkpt>
      <trkpt lat="48.58988" lon="1.98684">
        <ele>143</ele>
        <time>2020-05-26T07:53:20.000Z</time>
      </trkpt>
      <trkpt lat="48.58998" lon="1.98697">
        <ele>145.19999694824</ele>
        <time>2020-05-26T07:53:35.000Z</time>
      </trkpt>
      <trkpt lat="48.59001" lon="1.987">
        <ele>145.19999694824</ele>
        <time>2020-05-26T07:53:37.000Z</time>
      </trkpt>
      <trkpt lat="48.59007" lon="1.98709">
        <ele>145.19999694824</ele>
        <time>2020-05-26T07:53:44.000Z</time>
      </trkpt>
      <trkpt lat="48.59012" lon="1.98713">
        <ele>145.19999694824</ele>
        <time>2020-05-26T07:53:50.000Z</time>
      </trkpt>
      <trkpt lat="48.59017" lon="1.98722">
        <ele>145.19999694824</ele>
        <time>2020-05-26T07:53:55.000Z</time>
      </trkpt>
      <trkpt lat="48.59018" lon="1.98726">
        <ele>145.19999694824</ele>
        <time>2020-05-26T07:53:57.000Z</time>
      </trkpt>
      <trkpt lat="48.59025" lon="1.98733">
        <ele>145.19999694824</ele>
        <time>2020-05-26T07:54:01.000Z</time>
      </trkpt>
      <trkpt lat="48.59032" lon="1.98739">
        <ele>145.19999694824</ele>
        <time>2020-05-26T07:54:07.000Z</time>
      </trkpt>
      <trkpt lat="48.59037" lon="1.98742">
        <ele>145.19999694824</ele>
        <time>2020-05-26T07:54:11.000Z</time>
      </trkpt>
      <trkpt lat="48.59046" lon="1.9875">
        <ele>145.19999694824</ele>
        <time>2020-05-26T07:54:19.000Z</time>
      </trkpt>
      <trkpt lat="48.59051" lon="1.98754">
        <ele>145.60000610352</ele>
        <time>2020-05-26T07:54:22.000Z</time>
      </trkpt>
      <trkpt lat="48.59052" lon="1.98756">
        <ele>146</ele>
        <time>2020-05-26T07:54:23.000Z</time>
      </trkpt>
      <trkpt lat="48.59053" lon="1.98757">
        <ele>146.39999389648</ele>
        <time>2020-05-26T07:54:24.000Z</time>
      </trkpt>
      <trkpt lat="48.59055" lon="1.98758">
        <ele>146.80000305176</ele>
        <time>2020-05-26T07:54:25.000Z</time>
      </trkpt>
      <trkpt lat="48.59055" lon="1.98759">
        <ele>147.19999694824</ele>
        <time>2020-05-26T07:54:26.000Z</time>
      </trkpt>
      <trkpt lat="48.59057" lon="1.9876">
        <ele>147.19999694824</ele>
        <time>2020-05-26T07:54:27.000Z</time>
      </trkpt>
      <trkpt lat="48.59058" lon="1.98761">
        <ele>147.19999694824</ele>
        <time>2020-05-26T07:54:28.000Z</time>
      </trkpt>
      <trkpt lat="48.59063" lon="1.98767">
        <ele>147.19999694824</ele>
        <time>2020-05-26T07:54:35.000Z</time>
      </trkpt>
      <trkpt lat="48.59065" lon="1.98768">
        <ele>147.19999694824</ele>
        <time>2020-05-26T07:54:36.000Z</time>
      </trkpt>
      <trkpt lat="48.59071" lon="1.98773">
        <ele>147.19999694824</ele>
        <time>2020-05-26T07:54:40.000Z</time>
      </trkpt>
      <trkpt lat="48.59078" lon="1.98778">
        <ele>147.19999694824</ele>
        <time>2020-05-26T07:54:44.000Z</time>
      </trkpt>
      <trkpt lat="48.59088" lon="1.98787">
        <ele>147.19999694824</ele>
        <time>2020-05-26T07:54:50.000Z</time>
      </trkpt>
      <trkpt lat="48.59097" lon="1.98799">
        <ele>147.19999694824</ele>
        <time>2020-05-26T07:54:56.000Z</time>
      </trkpt>
      <trkpt lat="48.59104" lon="1.98804">
        <ele>147.19999694824</ele>
        <time>2020-05-26T07:55:01.000Z</time>
      </trkpt>
      <trkpt lat="48.59111" lon="1.9881">
        <ele>147.19999694824</ele>
        <time>2020-05-26T07:55:06.000Z</time>
      </trkpt>
      <trkpt lat="48.59119" lon="1.98818">
        <ele>147.19999694824</ele>
        <time>2020-05-26T07:55:12.000Z</time>
      </trkpt>
      <trkpt lat="48.59123" lon="1.98823">
        <ele>147.19999694824</ele>
        <time>2020-05-26T07:55:16.000Z</time>
      </trkpt>
      <trkpt lat="48.59127" lon="1.98828">
        <ele>147.19999694824</ele>
        <time>2020-05-26T07:55:19.000Z</time>
      </trkpt>
      <trkpt lat="48.5913" lon="1.9883">
        <ele>147.19999694824</ele>
        <time>2020-05-26T07:55:21.000Z</time>
      </trkpt>
      <trkpt lat="48.59134" lon="1.98833">
        <ele>147.19999694824</ele>
        <time>2020-05-26T07:55:24.000Z</time>
      </trkpt>
      <trkpt lat="48.5914" lon="1.98843">
        <ele>147.19999694824</ele>
        <time>2020-05-26T07:55:30.000Z</time>
      </trkpt>
      <trkpt lat="48.59145" lon="1.98847">
        <ele>147.19999694824</ele>
        <time>2020-05-26T07:55:33.000Z</time>
      </trkpt>
      <trkpt lat="48.59148" lon="1.9885">
        <ele>147.19999694824</ele>
        <time>2020-05-26T07:55:36.000Z</time>
      </trkpt>
      <trkpt lat="48.59149" lon="1.9885">
        <ele>147.19999694824</ele>
        <time>2020-05-26T07:55:37.000Z</time>
      </trkpt>
      <trkpt lat="48.59153" lon="1.98853">
        <ele>147.19999694824</ele>
        <time>2020-05-26T07:55:39.000Z</time>
      </trkpt>
      <trkpt lat="48.59156" lon="1.98855">
        <ele>147.19999694824</ele>
        <time>2020-05-26T07:55:41.000Z</time>
      </trkpt>
      <trkpt lat="48.59161" lon="1.9886">
        <ele>147.19999694824</ele>
        <time>2020-05-26T07:55:45.000Z</time>
      </trkpt>
      <trkpt lat="48.59167" lon="1.98868">
        <ele>147.19999694824</ele>
        <time>2020-05-26T07:55:50.000Z</time>
      </trkpt>
      <trkpt lat="48.59169" lon="1.98869">
        <ele>147.19999694824</ele>
        <time>2020-05-26T07:55:51.000Z</time>
      </trkpt>
      <trkpt lat="48.59173" lon="1.98875">
        <ele>147.19999694824</ele>
        <time>2020-05-26T07:55:55.000Z</time>
      </trkpt>
      <trkpt lat="48.59176" lon="1.98883">
        <ele>147.19999694824</ele>
        <time>2020-05-26T07:56:00.000Z</time>
      </trkpt>
      <trkpt lat="48.59175" lon="1.9889">
        <ele>147.19999694824</ele>
        <time>2020-05-26T07:56:05.000Z</time>
      </trkpt>
      <trkpt lat="48.59175" lon="1.98894">
        <ele>147.19999694824</ele>
        <time>2020-05-26T07:56:09.000Z</time>
      </trkpt>
      <trkpt lat="48.59177" lon="1.98896">
        <ele>147.19999694824</ele>
        <time>2020-05-26T07:56:14.000Z</time>
      </trkpt>
      <trkpt lat="48.59178" lon="1.98897">
        <ele>147.60000610352</ele>
        <time>2020-05-26T07:56:16.000Z</time>
      </trkpt>
      <trkpt lat="48.59178" lon="1.98899">
        <ele>148</ele>
        <time>2020-05-26T07:56:17.000Z</time>
      </trkpt>
      <trkpt lat="48.59178" lon="1.98901">
        <ele>148.39999389648</ele>
        <time>2020-05-26T07:56:18.000Z</time>
      </trkpt>
      <trkpt lat="48.59177" lon="1.98904">
        <ele>148.80000305176</ele>
        <time>2020-05-26T07:56:19.000Z</time>
      </trkpt>
      <trkpt lat="48.59178" lon="1.98905">
        <ele>149.39999389648</ele>
        <time>2020-05-26T07:56:20.000Z</time>
      </trkpt>
      <trkpt lat="48.5918" lon="1.98911">
        <ele>149.39999389648</ele>
        <time>2020-05-26T07:56:25.000Z</time>
      </trkpt>
      <trkpt lat="48.59181" lon="1.98915">
        <ele>149.39999389648</ele>
        <time>2020-05-26T07:56:28.000Z</time>
      </trkpt>
      <trkpt lat="48.59183" lon="1.98921">
        <ele>149.39999389648</ele>
        <time>2020-05-26T07:56:31.000Z</time>
      </trkpt>
      <trkpt lat="48.59184" lon="1.98922">
        <ele>149.80000305176</ele>
        <time>2020-05-26T07:56:33.000Z</time>
      </trkpt>
      <trkpt lat="48.59185" lon="1.98924">
        <ele>150.19999694824</ele>
        <time>2020-05-26T07:56:34.000Z</time>
      </trkpt>
      <trkpt lat="48.59186" lon="1.98926">
        <ele>150.60000610352</ele>
        <time>2020-05-26T07:56:35.000Z</time>
      </trkpt>
      <trkpt lat="48.59187" lon="1.98928">
        <ele>151</ele>
        <time>2020-05-26T07:56:36.000Z</time>
      </trkpt>
      <trkpt lat="48.59187" lon="1.98929">
        <ele>151.39999389648</ele>
        <time>2020-05-26T07:56:37.000Z</time>
      </trkpt>
      <trkpt lat="48.59189" lon="1.98931">
        <ele>151.39999389648</ele>
        <time>2020-05-26T07:56:39.000Z</time>
      </trkpt>
      <trkpt lat="48.59191" lon="1.98931">
        <ele>151.39999389648</ele>
        <time>2020-05-26T07:56:40.000Z</time>
      </trkpt>
      <trkpt lat="48.59193" lon="1.98934">
        <ele>151.39999389648</ele>
        <time>2020-05-26T07:56:42.000Z</time>
      </trkpt>
      <trkpt lat="48.59196" lon="1.98938">
        <ele>151.39999389648</ele>
        <time>2020-05-26T07:56:45.000Z</time>
      </trkpt>
      <trkpt lat="48.59195" lon="1.98948">
        <ele>151.39999389648</ele>
        <time>2020-05-26T07:56:50.000Z</time>
      </trkpt>
      <trkpt lat="48.59203" lon="1.98944">
        <ele>151.39999389648</ele>
        <time>2020-05-26T08:00:19.000Z</time>
      </trkpt>
      <trkpt lat="48.59204" lon="1.98944">
        <ele>151.39999389648</ele>
        <time>2020-05-26T08:00:20.000Z</time>
      </trkpt>
      <trkpt lat="48.59209" lon="1.98939">
        <ele>151.39999389648</ele>
        <time>2020-05-26T08:00:24.000Z</time>
      </trkpt>
      <trkpt lat="48.5921" lon="1.98936">
        <ele>151.39999389648</ele>
        <time>2020-05-26T08:00:26.000Z</time>
      </trkpt>
      <trkpt lat="48.59215" lon="1.98928">
        <ele>151.39999389648</ele>
        <time>2020-05-26T08:00:32.000Z</time>
      </trkpt>
      <trkpt lat="48.59216" lon="1.98926">
        <ele>151.39999389648</ele>
        <time>2020-05-26T08:00:33.000Z</time>
      </trkpt>
      <trkpt lat="48.59219" lon="1.98919">
        <ele>151.39999389648</ele>
        <time>2020-05-26T08:00:38.000Z</time>
      </trkpt>
      <trkpt lat="48.59226" lon="1.9891">
        <ele>151.39999389648</ele>
        <time>2020-05-26T08:00:44.000Z</time>
      </trkpt>
      <trkpt lat="48.59228" lon="1.98906">
        <ele>151.39999389648</ele>
        <time>2020-05-26T08:00:46.000Z</time>
      </trkpt>
      <trkpt lat="48.59232" lon="1.98898">
        <ele>151.39999389648</ele>
        <time>2020-05-26T08:00:49.000Z</time>
      </trkpt>
      <trkpt lat="48.59241" lon="1.98886">
        <ele>151.39999389648</ele>
        <time>2020-05-26T08:00:56.000Z</time>
      </trkpt>
      <trkpt lat="48.59251" lon="1.98879">
        <ele>151.39999389648</ele>
        <time>2020-05-26T08:01:04.000Z</time>
      </trkpt>
      <trkpt lat="48.59259" lon="1.98872">
        <ele>151.39999389648</ele>
        <time>2020-05-26T08:01:11.000Z</time>
      </trkpt>
      <trkpt lat="48.5927" lon="1.98866">
        <ele>151.39999389648</ele>
        <time>2020-05-26T08:01:19.000Z</time>
      </trkpt>
      <trkpt lat="48.59279" lon="1.98861">
        <ele>151.39999389648</ele>
        <time>2020-05-26T08:01:25.000Z</time>
      </trkpt>
      <trkpt lat="48.59288" lon="1.98858">
        <ele>151.39999389648</ele>
        <time>2020-05-26T08:01:31.000Z</time>
      </trkpt>
      <trkpt lat="48.59297" lon="1.98856">
        <ele>151.39999389648</ele>
        <time>2020-05-26T08:01:38.000Z</time>
      </trkpt>
      <trkpt lat="48.59301" lon="1.98854">
        <ele>151.39999389648</ele>
        <time>2020-05-26T08:01:42.000Z</time>
      </trkpt>
      <trkpt lat="48.59304" lon="1.98853">
        <ele>151.39999389648</ele>
        <time>2020-05-26T08:01:44.000Z</time>
      </trkpt>
      <trkpt lat="48.59312" lon="1.9885">
        <ele>151.39999389648</ele>
        <time>2020-05-26T08:01:50.000Z</time>
      </trkpt>
      <trkpt lat="48.5932" lon="1.98848">
        <ele>151.39999389648</ele>
        <time>2020-05-26T08:01:56.000Z</time>
      </trkpt>
      <trkpt lat="48.59328" lon="1.98845">
        <ele>151.39999389648</ele>
        <time>2020-05-26T08:02:01.000Z</time>
      </trkpt>
      <trkpt lat="48.59332" lon="1.98841">
        <ele>151.39999389648</ele>
        <time>2020-05-26T08:02:04.000Z</time>
      </trkpt>
      <trkpt lat="48.59338" lon="1.98837">
        <ele>151.39999389648</ele>
        <time>2020-05-26T08:02:08.000Z</time>
      </trkpt>
      <trkpt lat="48.59342" lon="1.98837">
        <ele>151.39999389648</ele>
        <time>2020-05-26T08:02:11.000Z</time>
      </trkpt>
      <trkpt lat="48.59352" lon="1.98833">
        <ele>151.39999389648</ele>
        <time>2020-05-26T08:02:18.000Z</time>
      </trkpt>
      <trkpt lat="48.5936" lon="1.98831">
        <ele>151.39999389648</ele>
        <time>2020-05-26T08:02:23.000Z</time>
      </trkpt>
      <trkpt lat="48.59369" lon="1.98828">
        <ele>151.39999389648</ele>
        <time>2020-05-26T08:02:29.000Z</time>
      </trkpt>
      <trkpt lat="48.59369" lon="1.98827">
        <ele>151.39999389648</ele>
        <time>2020-05-26T08:02:30.000Z</time>
      </trkpt>
      <trkpt lat="48.5937" lon="1.98827">
        <ele>151.39999389648</ele>
        <time>2020-05-26T08:02:31.000Z</time>
      </trkpt>
      <trkpt lat="48.59387" lon="1.98823">
        <ele>149.39999389648</ele>
        <time>2020-05-26T08:02:52.000Z</time>
      </trkpt>
      <trkpt lat="48.59391" lon="1.98821">
        <ele>149.39999389648</ele>
        <time>2020-05-26T08:02:54.000Z</time>
      </trkpt>
      <trkpt lat="48.59399" lon="1.98818">
        <ele>149.39999389648</ele>
        <time>2020-05-26T08:03:00.000Z</time>
      </trkpt>
      <trkpt lat="48.59404" lon="1.98816">
        <ele>149.39999389648</ele>
        <time>2020-05-26T08:03:04.000Z</time>
      </trkpt>
      <trkpt lat="48.59408" lon="1.98815">
        <ele>149.39999389648</ele>
        <time>2020-05-26T08:03:07.000Z</time>
      </trkpt>
      <trkpt lat="48.59412" lon="1.98816">
        <ele>149.39999389648</ele>
        <time>2020-05-26T08:03:09.000Z</time>
      </trkpt>
      <trkpt lat="48.59414" lon="1.98818">
        <ele>149.39999389648</ele>
        <time>2020-05-26T08:03:11.000Z</time>
      </trkpt>
      <trkpt lat="48.59418" lon="1.98818">
        <ele>149.39999389648</ele>
        <time>2020-05-26T08:03:13.000Z</time>
      </trkpt>
      <trkpt lat="48.59425" lon="1.98817">
        <ele>149.39999389648</ele>
        <time>2020-05-26T08:03:17.000Z</time>
      </trkpt>
      <trkpt lat="48.59434" lon="1.98817">
        <ele>149.39999389648</ele>
        <time>2020-05-26T08:03:24.000Z</time>
      </trkpt>
      <trkpt lat="48.5944" lon="1.98815">
        <ele>149.39999389648</ele>
        <time>2020-05-26T08:03:30.000Z</time>
      </trkpt>
      <trkpt lat="48.59447" lon="1.98813">
        <ele>149.39999389648</ele>
        <time>2020-05-26T08:03:36.000Z</time>
      </trkpt>
      <trkpt lat="48.59448" lon="1.98813">
        <ele>149.39999389648</ele>
        <time>2020-05-26T08:03:37.000Z</time>
      </trkpt>
      <trkpt lat="48.59453" lon="1.98809">
        <ele>149.39999389648</ele>
        <time>2020-05-26T08:03:42.000Z</time>
      </trkpt>
      <trkpt lat="48.59454" lon="1.98809">
        <ele>149.39999389648</ele>
        <time>2020-05-26T08:03:43.000Z</time>
      </trkpt>
      <trkpt lat="48.59458" lon="1.98808">
        <ele>149.39999389648</ele>
        <time>2020-05-26T08:03:46.000Z</time>
      </trkpt>
      <trkpt lat="48.5946" lon="1.98808">
        <ele>149.39999389648</ele>
        <time>2020-05-26T08:03:47.000Z</time>
      </trkpt>
      <trkpt lat="48.59465" lon="1.98808">
        <ele>149.80000305176</ele>
        <time>2020-05-26T08:03:52.000Z</time>
      </trkpt>
      <trkpt lat="48.59467" lon="1.98808">
        <ele>150.19999694824</ele>
        <time>2020-05-26T08:03:53.000Z</time>
      </trkpt>
      <trkpt lat="48.59468" lon="1.98808">
        <ele>150.60000610352</ele>
        <time>2020-05-26T08:03:54.000Z</time>
      </trkpt>
      <trkpt lat="48.5947" lon="1.98807">
        <ele>151.39999389648</ele>
        <time>2020-05-26T08:03:55.000Z</time>
      </trkpt>
      <trkpt lat="48.59477" lon="1.98807">
        <ele>151.39999389648</ele>
        <time>2020-05-26T08:04:00.000Z</time>
      </trkpt>
      <trkpt lat="48.59481" lon="1.98807">
        <ele>151.39999389648</ele>
        <time>2020-05-26T08:04:04.000Z</time>
      </trkpt>
      <trkpt lat="48.59483" lon="1.98807">
        <ele>151.39999389648</ele>
        <time>2020-05-26T08:04:06.000Z</time>
      </trkpt>
      <trkpt lat="48.59484" lon="1.98807">
        <ele>151.39999389648</ele>
        <time>2020-05-26T08:04:07.000Z</time>
      </trkpt>
      <trkpt lat="48.59488" lon="1.98805">
        <ele>151.39999389648</ele>
        <time>2020-05-26T08:04:10.000Z</time>
      </trkpt>
      <trkpt lat="48.5949" lon="1.98803">
        <ele>151.39999389648</ele>
        <time>2020-05-26T08:04:13.000Z</time>
      </trkpt>
      <trkpt lat="48.59492" lon="1.988">
        <ele>151.39999389648</ele>
        <time>2020-05-26T08:04:16.000Z</time>
      </trkpt>
      <trkpt lat="48.59492" lon="1.98798">
        <ele>151.39999389648</ele>
        <time>2020-05-26T08:04:19.000Z</time>
      </trkpt>
      <trkpt lat="48.59489" lon="1.98792">
        <ele>151.39999389648</ele>
        <time>2020-05-26T08:04:24.000Z</time>
      </trkpt>
      <trkpt lat="48.59488" lon="1.98789">
        <ele>151.39999389648</ele>
        <time>2020-05-26T08:04:26.000Z</time>
      </trkpt>
      <trkpt lat="48.59485" lon="1.98782">
        <ele>151.39999389648</ele>
        <time>2020-05-26T08:04:32.000Z</time>
      </trkpt>
      <trkpt lat="48.59483" lon="1.9878">
        <ele>151.39999389648</ele>
        <time>2020-05-26T08:04:34.000Z</time>
      </trkpt>
      <trkpt lat="48.59482" lon="1.98777">
        <ele>151.39999389648</ele>
        <time>2020-05-26T08:04:36.000Z</time>
      </trkpt>
      <trkpt lat="48.59474" lon="1.98763">
        <ele>149.80000305176</ele>
        <time>2020-05-26T08:04:45.000Z</time>
      </trkpt>
      <trkpt lat="48.59473" lon="1.98762">
        <ele>149.39999389648</ele>
        <time>2020-05-26T08:04:46.000Z</time>
      </trkpt>
      <trkpt lat="48.59467" lon="1.98752">
        <ele>149.39999389648</ele>
        <time>2020-05-26T08:04:53.000Z</time>
      </trkpt>
      <trkpt lat="48.59461" lon="1.98739">
        <ele>149.39999389648</ele>
        <time>2020-05-26T08:04:59.000Z</time>
      </trkpt>
      <trkpt lat="48.59456" lon="1.98728">
        <ele>149.39999389648</ele>
        <time>2020-05-26T08:05:06.000Z</time>
      </trkpt>
      <trkpt lat="48.59451" lon="1.98721">
        <ele>149.39999389648</ele>
        <time>2020-05-26T08:05:12.000Z</time>
      </trkpt>
      <trkpt lat="48.59446" lon="1.98717">
        <ele>149.39999389648</ele>
        <time>2020-05-26T08:05:16.000Z</time>
      </trkpt>
      <trkpt lat="48.59445" lon="1.98716">
        <ele>149</ele>
        <time>2020-05-26T08:05:18.000Z</time>
      </trkpt>
      <trkpt lat="48.59445" lon="1.98715">
        <ele>148.60000610352</ele>
        <time>2020-05-26T08:05:19.000Z</time>
      </trkpt>
      <trkpt lat="48.59444" lon="1.98714">
        <ele>148.19999694824</ele>
        <time>2020-05-26T08:05:20.000Z</time>
      </trkpt>
      <trkpt lat="48.59443" lon="1.98712">
        <ele>147.80000305176</ele>
        <time>2020-05-26T08:05:21.000Z</time>
      </trkpt>
      <trkpt lat="48.59442" lon="1.9871">
        <ele>147.39999389648</ele>
        <time>2020-05-26T08:05:22.000Z</time>
      </trkpt>
      <trkpt lat="48.59441" lon="1.98706">
        <ele>147.39999389648</ele>
        <time>2020-05-26T08:05:24.000Z</time>
      </trkpt>
      <trkpt lat="48.59436" lon="1.98701">
        <ele>147.39999389648</ele>
        <time>2020-05-26T08:05:29.000Z</time>
      </trkpt>
      <trkpt lat="48.5943" lon="1.98691">
        <ele>147.39999389648</ele>
        <time>2020-05-26T08:05:35.000Z</time>
      </trkpt>
      <trkpt lat="48.59424" lon="1.98683">
        <ele>147.39999389648</ele>
        <time>2020-05-26T08:05:40.000Z</time>
      </trkpt>
      <trkpt lat="48.5942" lon="1.98677">
        <ele>147.39999389648</ele>
        <time>2020-05-26T08:05:44.000Z</time>
      </trkpt>
      <trkpt lat="48.59419" lon="1.98676">
        <ele>147.39999389648</ele>
        <time>2020-05-26T08:05:45.000Z</time>
      </trkpt>
      <trkpt lat="48.59414" lon="1.98669">
        <ele>147.39999389648</ele>
        <time>2020-05-26T08:05:50.000Z</time>
      </trkpt>
      <trkpt lat="48.59408" lon="1.98654">
        <ele>147.39999389648</ele>
        <time>2020-05-26T08:05:57.000Z</time>
      </trkpt>
      <trkpt lat="48.59401" lon="1.98641">
        <ele>147.39999389648</ele>
        <time>2020-05-26T08:06:03.000Z</time>
      </trkpt>
      <trkpt lat="48.59395" lon="1.98628">
        <ele>147.39999389648</ele>
        <time>2020-05-26T08:06:09.000Z</time>
      </trkpt>
      <trkpt lat="48.59387" lon="1.98613">
        <ele>147.39999389648</ele>
        <time>2020-05-26T08:06:15.000Z</time>
      </trkpt>
      <trkpt lat="48.59382" lon="1.98601">
        <ele>147.39999389648</ele>
        <time>2020-05-26T08:06:21.000Z</time>
      </trkpt>
      <trkpt lat="48.59377" lon="1.98591">
        <ele>147.39999389648</ele>
        <time>2020-05-26T08:06:26.000Z</time>
      </trkpt>
      <trkpt lat="48.59371" lon="1.98576">
        <ele>147.39999389648</ele>
        <time>2020-05-26T08:06:34.000Z</time>
      </trkpt>
      <trkpt lat="48.59363" lon="1.98562">
        <ele>147</ele>
        <time>2020-05-26T08:06:41.000Z</time>
      </trkpt>
      <trkpt lat="48.59361" lon="1.98561">
        <ele>146.60000610352</ele>
        <time>2020-05-26T08:06:42.000Z</time>
      </trkpt>
      <trkpt lat="48.5936" lon="1.98559">
        <ele>146.19999694824</ele>
        <time>2020-05-26T08:06:43.000Z</time>
      </trkpt>
      <trkpt lat="48.59359" lon="1.98558">
        <ele>145.80000305176</ele>
        <time>2020-05-26T08:06:44.000Z</time>
      </trkpt>
      <trkpt lat="48.59357" lon="1.98556">
        <ele>145.39999389648</ele>
        <time>2020-05-26T08:06:45.000Z</time>
      </trkpt>
      <trkpt lat="48.59356" lon="1.98555">
        <ele>145.39999389648</ele>
        <time>2020-05-26T08:06:46.000Z</time>
      </trkpt>
      <trkpt lat="48.5935" lon="1.98546">
        <ele>145.39999389648</ele>
        <time>2020-05-26T08:06:51.000Z</time>
      </trkpt>
      <trkpt lat="48.59343" lon="1.98531">
        <ele>145.39999389648</ele>
        <time>2020-05-26T08:06:58.000Z</time>
      </trkpt>
      <trkpt lat="48.59335" lon="1.9852">
        <ele>145.39999389648</ele>
        <time>2020-05-26T08:07:05.000Z</time>
      </trkpt>
      <trkpt lat="48.59328" lon="1.98511">
        <ele>145.39999389648</ele>
        <time>2020-05-26T08:07:13.000Z</time>
      </trkpt>
      <trkpt lat="48.5932" lon="1.98503">
        <ele>145.39999389648</ele>
        <time>2020-05-26T08:07:20.000Z</time>
      </trkpt>
      <trkpt lat="48.5931" lon="1.98494">
        <ele>145.39999389648</ele>
        <time>2020-05-26T08:07:27.000Z</time>
      </trkpt>
      <trkpt lat="48.59309" lon="1.98493">
        <ele>145.39999389648</ele>
        <time>2020-05-26T08:07:28.000Z</time>
      </trkpt>
      <trkpt lat="48.59298" lon="1.98484">
        <ele>145.39999389648</ele>
        <time>2020-05-26T08:07:37.000Z</time>
      </trkpt>
      <trkpt lat="48.59292" lon="1.9848">
        <ele>145.39999389648</ele>
        <time>2020-05-26T08:07:40.000Z</time>
      </trkpt>
      <trkpt lat="48.59283" lon="1.98472">
        <ele>145.39999389648</ele>
        <time>2020-05-26T08:07:47.000Z</time>
      </trkpt>
      <trkpt lat="48.59274" lon="1.98464">
        <ele>145.39999389648</ele>
        <time>2020-05-26T08:07:55.000Z</time>
      </trkpt>
      <trkpt lat="48.59268" lon="1.98456">
        <ele>145.39999389648</ele>
        <time>2020-05-26T08:08:01.000Z</time>
      </trkpt>
      <trkpt lat="48.59266" lon="1.98452">
        <ele>145.80000305176</ele>
        <time>2020-05-26T08:08:04.000Z</time>
      </trkpt>
      <trkpt lat="48.59264" lon="1.98451">
        <ele>146.19999694824</ele>
        <time>2020-05-26T08:08:05.000Z</time>
      </trkpt>
      <trkpt lat="48.59262" lon="1.9845">
        <ele>146.60000610352</ele>
        <time>2020-05-26T08:08:06.000Z</time>
      </trkpt>
      <trkpt lat="48.59261" lon="1.98449">
        <ele>147</ele>
        <time>2020-05-26T08:08:07.000Z</time>
      </trkpt>
      <trkpt lat="48.5926" lon="1.98447">
        <ele>147.39999389648</ele>
        <time>2020-05-26T08:08:08.000Z</time>
      </trkpt>
      <trkpt lat="48.59256" lon="1.98443">
        <ele>147.39999389648</ele>
        <time>2020-05-26T08:08:11.000Z</time>
      </trkpt>
      <trkpt lat="48.59253" lon="1.9844">
        <ele>147.39999389648</ele>
        <time>2020-05-26T08:08:14.000Z</time>
      </trkpt>
      <trkpt lat="48.59244" lon="1.98434">
        <ele>147.39999389648</ele>
        <time>2020-05-26T08:08:22.000Z</time>
      </trkpt>
      <trkpt lat="48.59237" lon="1.98429">
        <ele>147.39999389648</ele>
        <time>2020-05-26T08:08:28.000Z</time>
      </trkpt>
      <trkpt lat="48.59229" lon="1.98421">
        <ele>147.39999389648</ele>
        <time>2020-05-26T08:08:34.000Z</time>
      </trkpt>
      <trkpt lat="48.59221" lon="1.98415">
        <ele>147.80000305176</ele>
        <time>2020-05-26T08:08:39.000Z</time>
      </trkpt>
      <trkpt lat="48.5922" lon="1.98415">
        <ele>148.19999694824</ele>
        <time>2020-05-26T08:08:40.000Z</time>
      </trkpt>
      <trkpt lat="48.59219" lon="1.98414">
        <ele>148.60000610352</ele>
        <time>2020-05-26T08:08:41.000Z</time>
      </trkpt>
      <trkpt lat="48.59219" lon="1.98413">
        <ele>149</ele>
        <time>2020-05-26T08:08:42.000Z</time>
      </trkpt>
      <trkpt lat="48.59218" lon="1.98412">
        <ele>149.39999389648</ele>
        <time>2020-05-26T08:08:43.000Z</time>
      </trkpt>
      <trkpt lat="48.59214" lon="1.98409">
        <ele>149.39999389648</ele>
        <time>2020-05-26T08:08:46.000Z</time>
      </trkpt>
      <trkpt lat="48.59206" lon="1.98406">
        <ele>149.39999389648</ele>
        <time>2020-05-26T08:08:52.000Z</time>
      </trkpt>
      <trkpt lat="48.59199" lon="1.98397">
        <ele>149.39999389648</ele>
        <time>2020-05-26T08:08:59.000Z</time>
      </trkpt>
      <trkpt lat="48.59191" lon="1.9839">
        <ele>149.39999389648</ele>
        <time>2020-05-26T08:09:06.000Z</time>
      </trkpt>
      <trkpt lat="48.59189" lon="1.9839">
        <ele>149.39999389648</ele>
        <time>2020-05-26T08:09:07.000Z</time>
      </trkpt>
      <trkpt lat="48.59184" lon="1.98384">
        <ele>149.39999389648</ele>
        <time>2020-05-26T08:09:12.000Z</time>
      </trkpt>
      <trkpt lat="48.59176" lon="1.98376">
        <ele>149.39999389648</ele>
        <time>2020-05-26T08:09:20.000Z</time>
      </trkpt>
      <trkpt lat="48.5917" lon="1.98374">
        <ele>149.39999389648</ele>
        <time>2020-05-26T08:09:26.000Z</time>
      </trkpt>
      <trkpt lat="48.59167" lon="1.98363">
        <ele>149.39999389648</ele>
        <time>2020-05-26T08:09:32.000Z</time>
      </trkpt>
      <trkpt lat="48.59163" lon="1.98349">
        <ele>149.39999389648</ele>
        <time>2020-05-26T08:09:39.000Z</time>
      </trkpt>
      <trkpt lat="48.59159" lon="1.98332">
        <ele>149.39999389648</ele>
        <time>2020-05-26T08:09:48.000Z</time>
      </trkpt>
      <trkpt lat="48.59174" lon="1.98283">
        <ele>151.60000610352</ele>
        <time>2020-05-26T08:10:19.000Z</time>
      </trkpt>
      <trkpt lat="48.59176" lon="1.98279">
        <ele>151.60000610352</ele>
        <time>2020-05-26T08:10:21.000Z</time>
      </trkpt>
      <trkpt lat="48.59176" lon="1.98275">
        <ele>151.60000610352</ele>
        <time>2020-05-26T08:10:24.000Z</time>
      </trkpt>
      <trkpt lat="48.59183" lon="1.98264">
        <ele>153.60000610352</ele>
        <time>2020-05-26T08:10:33.000Z</time>
      </trkpt>
      <trkpt lat="48.59184" lon="1.98262">
        <ele>153.60000610352</ele>
        <time>2020-05-26T08:10:34.000Z</time>
      </trkpt>
      <trkpt lat="48.59187" lon="1.98252">
        <ele>153.60000610352</ele>
        <time>2020-05-26T08:10:40.000Z</time>
      </trkpt>
      <trkpt lat="48.59188" lon="1.98249">
        <ele>153.60000610352</ele>
        <time>2020-05-26T08:10:41.000Z</time>
      </trkpt>
      <trkpt lat="48.59191" lon="1.98239">
        <ele>153.60000610352</ele>
        <time>2020-05-26T08:10:45.000Z</time>
      </trkpt>
      <trkpt lat="48.59192" lon="1.98237">
        <ele>153.60000610352</ele>
        <time>2020-05-26T08:10:46.000Z</time>
      </trkpt>
      <trkpt lat="48.59193" lon="1.98232">
        <ele>154</ele>
        <time>2020-05-26T08:10:48.000Z</time>
      </trkpt>
      <trkpt lat="48.59193" lon="1.98232">
        <ele>154.39999389648</ele>
        <time>2020-05-26T08:10:49.000Z</time>
      </trkpt>
      <trkpt lat="48.59194" lon="1.98231">
        <ele>154.80000305176</ele>
        <time>2020-05-26T08:10:50.000Z</time>
      </trkpt>
      <trkpt lat="48.59194" lon="1.9823">
        <ele>155.19999694824</ele>
        <time>2020-05-26T08:10:51.000Z</time>
      </trkpt>
      <trkpt lat="48.59195" lon="1.98229">
        <ele>155.60000610352</ele>
        <time>2020-05-26T08:10:52.000Z</time>
      </trkpt>
      <trkpt lat="48.59196" lon="1.98227">
        <ele>155.60000610352</ele>
        <time>2020-05-26T08:10:55.000Z</time>
      </trkpt>
      <trkpt lat="48.59202" lon="1.98206">
        <ele>155.60000610352</ele>
        <time>2020-05-26T08:11:08.000Z</time>
      </trkpt>
      <trkpt lat="48.59206" lon="1.98195">
        <ele>155.60000610352</ele>
        <time>2020-05-26T08:11:15.000Z</time>
      </trkpt>
      <trkpt lat="48.5921" lon="1.98177">
        <ele>155.60000610352</ele>
        <time>2020-05-26T08:11:22.000Z</time>
      </trkpt>
      <trkpt lat="48.5921" lon="1.98171">
        <ele>156</ele>
        <time>2020-05-26T08:11:25.000Z</time>
      </trkpt>
      <trkpt lat="48.5921" lon="1.98167">
        <ele>156.39999389648</ele>
        <time>2020-05-26T08:11:26.000Z</time>
      </trkpt>
      <trkpt lat="48.59211" lon="1.98163">
        <ele>156.80000305176</ele>
        <time>2020-05-26T08:11:27.000Z</time>
      </trkpt>
      <trkpt lat="48.59211" lon="1.98161">
        <ele>157.19999694824</ele>
        <time>2020-05-26T08:11:28.000Z</time>
      </trkpt>
      <trkpt lat="48.59211" lon="1.98158">
        <ele>157.60000610352</ele>
        <time>2020-05-26T08:11:29.000Z</time>
      </trkpt>
      <trkpt lat="48.59212" lon="1.98149">
        <ele>157.60000610352</ele>
        <time>2020-05-26T08:11:33.000Z</time>
      </trkpt>
      <trkpt lat="48.59213" lon="1.98147">
        <ele>157.60000610352</ele>
        <time>2020-05-26T08:11:34.000Z</time>
      </trkpt>
      <trkpt lat="48.59217" lon="1.98141">
        <ele>157.60000610352</ele>
        <time>2020-05-26T08:11:39.000Z</time>
      </trkpt>
      <trkpt lat="48.59218" lon="1.9813">
        <ele>157.60000610352</ele>
        <time>2020-05-26T08:11:44.000Z</time>
      </trkpt>
      <trkpt lat="48.59219" lon="1.98126">
        <ele>157.60000610352</ele>
        <time>2020-05-26T08:11:46.000Z</time>
      </trkpt>
      <trkpt lat="48.59219" lon="1.98124">
        <ele>158.19999694824</ele>
        <time>2020-05-26T08:11:47.000Z</time>
      </trkpt>
      <trkpt lat="48.59219" lon="1.98122">
        <ele>158.60000610352</ele>
        <time>2020-05-26T08:11:48.000Z</time>
      </trkpt>
      <trkpt lat="48.5922" lon="1.98121">
        <ele>159</ele>
        <time>2020-05-26T08:11:49.000Z</time>
      </trkpt>
      <trkpt lat="48.5922" lon="1.98118">
        <ele>159.39999389648</ele>
        <time>2020-05-26T08:11:50.000Z</time>
      </trkpt>
      <trkpt lat="48.5922" lon="1.98117">
        <ele>159.80000305176</ele>
        <time>2020-05-26T08:11:51.000Z</time>
      </trkpt>
      <trkpt lat="48.59221" lon="1.9811">
        <ele>159.80000305176</ele>
        <time>2020-05-26T08:11:56.000Z</time>
      </trkpt>
      <trkpt lat="48.59223" lon="1.98099">
        <ele>159.80000305176</ele>
        <time>2020-05-26T08:12:02.000Z</time>
      </trkpt>
      <trkpt lat="48.59223" lon="1.98096">
        <ele>160.19999694824</ele>
        <time>2020-05-26T08:12:03.000Z</time>
      </trkpt>
      <trkpt lat="48.59223" lon="1.98095">
        <ele>160.60000610352</ele>
        <time>2020-05-26T08:12:04.000Z</time>
      </trkpt>
      <trkpt lat="48.59223" lon="1.98094">
        <ele>161</ele>
        <time>2020-05-26T08:12:05.000Z</time>
      </trkpt>
      <trkpt lat="48.59223" lon="1.98093">
        <ele>161.39999389648</ele>
        <time>2020-05-26T08:12:06.000Z</time>
      </trkpt>
      <trkpt lat="48.59223" lon="1.98092">
        <ele>161.80000305176</ele>
        <time>2020-05-26T08:12:07.000Z</time>
      </trkpt>
      <trkpt lat="48.59224" lon="1.98091">
        <ele>161.80000305176</ele>
        <time>2020-05-26T08:12:08.000Z</time>
      </trkpt>
      <trkpt lat="48.59225" lon="1.98087">
        <ele>161.80000305176</ele>
        <time>2020-05-26T08:12:11.000Z</time>
      </trkpt>
      <trkpt lat="48.59246" lon="1.98027">
        <ele>168</ele>
        <time>2020-05-26T08:12:53.000Z</time>
      </trkpt>
      <trkpt lat="48.59248" lon="1.98024">
        <ele>168</ele>
        <time>2020-05-26T08:12:55.000Z</time>
      </trkpt>
      <trkpt lat="48.59253" lon="1.98021">
        <ele>168</ele>
        <time>2020-05-26T08:13:01.000Z</time>
      </trkpt>
      <trkpt lat="48.59258" lon="1.98022">
        <ele>168.39999389648</ele>
        <time>2020-05-26T08:13:07.000Z</time>
      </trkpt>
      <trkpt lat="48.59259" lon="1.98022">
        <ele>168.80000305176</ele>
        <time>2020-05-26T08:13:08.000Z</time>
      </trkpt>
      <trkpt lat="48.5926" lon="1.98022">
        <ele>169.19999694824</ele>
        <time>2020-05-26T08:13:09.000Z</time>
      </trkpt>
      <trkpt lat="48.59261" lon="1.98022">
        <ele>169.60000610352</ele>
        <time>2020-05-26T08:13:10.000Z</time>
      </trkpt>
      <trkpt lat="48.59262" lon="1.98022">
        <ele>170</ele>
        <time>2020-05-26T08:13:11.000Z</time>
      </trkpt>
      <trkpt lat="48.59265" lon="1.98024">
        <ele>170</ele>
        <time>2020-05-26T08:13:14.000Z</time>
      </trkpt>
      <trkpt lat="48.59272" lon="1.98024">
        <ele>170</ele>
        <time>2020-05-26T08:13:20.000Z</time>
      </trkpt>
      <trkpt lat="48.59277" lon="1.98025">
        <ele>170.80000305176</ele>
        <time>2020-05-26T08:13:25.000Z</time>
      </trkpt>
      <trkpt lat="48.59279" lon="1.98025">
        <ele>171.39999389648</ele>
        <time>2020-05-26T08:13:26.000Z</time>
      </trkpt>
      <trkpt lat="48.5928" lon="1.98025">
        <ele>171.80000305176</ele>
        <time>2020-05-26T08:13:27.000Z</time>
      </trkpt>
      <trkpt lat="48.5928" lon="1.98026">
        <ele>172.19999694824</ele>
        <time>2020-05-26T08:13:28.000Z</time>
      </trkpt>
      <trkpt lat="48.59285" lon="1.98025">
        <ele>172.19999694824</ele>
        <time>2020-05-26T08:13:33.000Z</time>
      </trkpt>
      <trkpt lat="48.59289" lon="1.98025">
        <ele>172.19999694824</ele>
        <time>2020-05-26T08:13:37.000Z</time>
      </trkpt>
      <trkpt lat="48.5929" lon="1.98024">
        <ele>172.19999694824</ele>
        <time>2020-05-26T08:13:39.000Z</time>
      </trkpt>
      <trkpt lat="48.59291" lon="1.98024">
        <ele>172.60000610352</ele>
        <time>2020-05-26T08:13:41.000Z</time>
      </trkpt>
      <trkpt lat="48.59292" lon="1.98024">
        <ele>173</ele>
        <time>2020-05-26T08:13:42.000Z</time>
      </trkpt>
      <trkpt lat="48.59293" lon="1.98023">
        <ele>173.39999389648</ele>
        <time>2020-05-26T08:13:43.000Z</time>
      </trkpt>
      <trkpt lat="48.59294" lon="1.98024">
        <ele>173.80000305176</ele>
        <time>2020-05-26T08:13:44.000Z</time>
      </trkpt>
      <trkpt lat="48.59295" lon="1.98024">
        <ele>174.19999694824</ele>
        <time>2020-05-26T08:13:45.000Z</time>
      </trkpt>
      <trkpt lat="48.59296" lon="1.98024">
        <ele>174.19999694824</ele>
        <time>2020-05-26T08:13:46.000Z</time>
      </trkpt>
      <trkpt lat="48.593" lon="1.98024">
        <ele>174.19999694824</ele>
        <time>2020-05-26T08:13:51.000Z</time>
      </trkpt>
      <trkpt lat="48.59301" lon="1.98024">
        <ele>174.60000610352</ele>
        <time>2020-05-26T08:13:52.000Z</time>
      </trkpt>
      <trkpt lat="48.59302" lon="1.98024">
        <ele>175</ele>
        <time>2020-05-26T08:13:53.000Z</time>
      </trkpt>
      <trkpt lat="48.59303" lon="1.98024">
        <ele>175.39999389648</ele>
        <time>2020-05-26T08:13:54.000Z</time>
      </trkpt>
      <trkpt lat="48.59304" lon="1.98024">
        <ele>175.80000305176</ele>
        <time>2020-05-26T08:13:55.000Z</time>
      </trkpt>
      <trkpt lat="48.59305" lon="1.98024">
        <ele>176.19999694824</ele>
        <time>2020-05-26T08:13:56.000Z</time>
      </trkpt>
      <trkpt lat="48.59308" lon="1.98023">
        <ele>176.19999694824</ele>
        <time>2020-05-26T08:14:00.000Z</time>
      </trkpt>
      <trkpt lat="48.59311" lon="1.98021">
        <ele>176.19999694824</ele>
        <time>2020-05-26T08:14:04.000Z</time>
      </trkpt>
      <trkpt lat="48.59313" lon="1.98021">
        <ele>176.60000610352</ele>
        <time>2020-05-26T08:14:07.000Z</time>
      </trkpt>
      <trkpt lat="48.59314" lon="1.9802">
        <ele>177</ele>
        <time>2020-05-26T08:14:08.000Z</time>
      </trkpt>
      <trkpt lat="48.59315" lon="1.9802">
        <ele>177.39999389648</ele>
        <time>2020-05-26T08:14:09.000Z</time>
      </trkpt>
      <trkpt lat="48.59315" lon="1.9802">
        <ele>177.80000305176</ele>
        <time>2020-05-26T08:14:10.000Z</time>
      </trkpt>
      <trkpt lat="48.59316" lon="1.98019">
        <ele>178.19999694824</ele>
        <time>2020-05-26T08:14:11.000Z</time>
      </trkpt>
      <trkpt lat="48.59318" lon="1.98018">
        <ele>178.19999694824</ele>
        <time>2020-05-26T08:14:13.000Z</time>
      </trkpt>
      <trkpt lat="48.59322" lon="1.98014">
        <ele>178.19999694824</ele>
        <time>2020-05-26T08:14:20.000Z</time>
      </trkpt>
      <trkpt lat="48.59325" lon="1.98013">
        <ele>178.60000610352</ele>
        <time>2020-05-26T08:14:23.000Z</time>
      </trkpt>
      <trkpt lat="48.59325" lon="1.98013">
        <ele>179</ele>
        <time>2020-05-26T08:14:24.000Z</time>
      </trkpt>
      <trkpt lat="48.59326" lon="1.98013">
        <ele>179.39999389648</ele>
        <time>2020-05-26T08:14:25.000Z</time>
      </trkpt>
      <trkpt lat="48.59327" lon="1.98013">
        <ele>179.80000305176</ele>
        <time>2020-05-26T08:14:26.000Z</time>
      </trkpt>
      <trkpt lat="48.59327" lon="1.98013">
        <ele>180.19999694824</ele>
        <time>2020-05-26T08:14:27.000Z</time>
      </trkpt>
      <trkpt lat="48.59329" lon="1.98012">
        <ele>180.19999694824</ele>
        <time>2020-05-26T08:14:32.000Z</time>
      </trkpt>
      <trkpt lat="48.59349" lon="1.98007">
        <ele>178.39999389648</ele>
        <time>2020-05-26T08:22:24.000Z</time>
      </trkpt>
      <trkpt lat="48.59349" lon="1.98006">
        <ele>178.39999389648</ele>
        <time>2020-05-26T08:22:25.000Z</time>
      </trkpt>
      <trkpt lat="48.59352" lon="1.97997">
        <ele>178.39999389648</ele>
        <time>2020-05-26T08:22:32.000Z</time>
      </trkpt>
      <trkpt lat="48.59358" lon="1.97985">
        <ele>178.39999389648</ele>
        <time>2020-05-26T08:22:39.000Z</time>
      </trkpt>
      <trkpt lat="48.5936" lon="1.97979">
        <ele>178.39999389648</ele>
        <time>2020-05-26T08:22:42.000Z</time>
      </trkpt>
      <trkpt lat="48.59362" lon="1.97975">
        <ele>178.39999389648</ele>
        <time>2020-05-26T08:22:44.000Z</time>
      </trkpt>
      <trkpt lat="48.59362" lon="1.97972">
        <ele>178.39999389648</ele>
        <time>2020-05-26T08:22:46.000Z</time>
      </trkpt>
      <trkpt lat="48.59364" lon="1.97965">
        <ele>178.39999389648</ele>
        <time>2020-05-26T08:22:50.000Z</time>
      </trkpt>
      <trkpt lat="48.59365" lon="1.97952">
        <ele>178.39999389648</ele>
        <time>2020-05-26T08:22:56.000Z</time>
      </trkpt>
      <trkpt lat="48.59365" lon="1.97947">
        <ele>178.39999389648</ele>
        <time>2020-05-26T08:22:59.000Z</time>
      </trkpt>
      <trkpt lat="48.59365" lon="1.97941">
        <ele>178.39999389648</ele>
        <time>2020-05-26T08:23:02.000Z</time>
      </trkpt>
      <trkpt lat="48.59366" lon="1.97938">
        <ele>178.39999389648</ele>
        <time>2020-05-26T08:23:04.000Z</time>
      </trkpt>
      <trkpt lat="48.59367" lon="1.97932">
        <ele>178.39999389648</ele>
        <time>2020-05-26T08:23:07.000Z</time>
      </trkpt>
      <trkpt lat="48.59367" lon="1.9793">
        <ele>178.39999389648</ele>
        <time>2020-05-26T08:23:08.000Z</time>
      </trkpt>
      <trkpt lat="48.59368" lon="1.97921">
        <ele>178.39999389648</ele>
        <time>2020-05-26T08:23:13.000Z</time>
      </trkpt>
      <trkpt lat="48.59368" lon="1.97918">
        <ele>178.39999389648</ele>
        <time>2020-05-26T08:23:15.000Z</time>
      </trkpt>
      <trkpt lat="48.59368" lon="1.97914">
        <ele>178.39999389648</ele>
        <time>2020-05-26T08:23:17.000Z</time>
      </trkpt>
      <trkpt lat="48.59368" lon="1.9791">
        <ele>178.39999389648</ele>
        <time>2020-05-26T08:23:19.000Z</time>
      </trkpt>
      <trkpt lat="48.59365" lon="1.97899">
        <ele>178.39999389648</ele>
        <time>2020-05-26T08:23:25.000Z</time>
      </trkpt>
      <trkpt lat="48.59362" lon="1.97886">
        <ele>178.39999389648</ele>
        <time>2020-05-26T08:23:31.000Z</time>
      </trkpt>
      <trkpt lat="48.5936" lon="1.97882">
        <ele>178.39999389648</ele>
        <time>2020-05-26T08:23:33.000Z</time>
      </trkpt>
      <trkpt lat="48.59358" lon="1.97876">
        <ele>178.39999389648</ele>
        <time>2020-05-26T08:23:36.000Z</time>
      </trkpt>
      <trkpt lat="48.59356" lon="1.97867">
        <ele>178.39999389648</ele>
        <time>2020-05-26T08:23:41.000Z</time>
      </trkpt>
      <trkpt lat="48.59353" lon="1.97859">
        <ele>178.39999389648</ele>
        <time>2020-05-26T08:23:45.000Z</time>
      </trkpt>
      <trkpt lat="48.59352" lon="1.97855">
        <ele>178.39999389648</ele>
        <time>2020-05-26T08:23:48.000Z</time>
      </trkpt>
      <trkpt lat="48.59352" lon="1.97853">
        <ele>178.39999389648</ele>
        <time>2020-05-26T08:23:49.000Z</time>
      </trkpt>
      <trkpt lat="48.5935" lon="1.97846">
        <ele>178.39999389648</ele>
        <time>2020-05-26T08:23:53.000Z</time>
      </trkpt>
      <trkpt lat="48.59347" lon="1.9784">
        <ele>178.39999389648</ele>
        <time>2020-05-26T08:23:57.000Z</time>
      </trkpt>
      <trkpt lat="48.59345" lon="1.97836">
        <ele>178.39999389648</ele>
        <time>2020-05-26T08:23:59.000Z</time>
      </trkpt>
      <trkpt lat="48.59341" lon="1.97825">
        <ele>178.39999389648</ele>
        <time>2020-05-26T08:24:05.000Z</time>
      </trkpt>
      <trkpt lat="48.59337" lon="1.9781">
        <ele>178.39999389648</ele>
        <time>2020-05-26T08:24:12.000Z</time>
      </trkpt>
      <trkpt lat="48.59338" lon="1.97804">
        <ele>178.39999389648</ele>
        <time>2020-05-26T08:24:17.000Z</time>
      </trkpt>
      <trkpt lat="48.59338" lon="1.97804">
        <ele>178.39999389648</ele>
        <time>2020-05-26T08:24:18.000Z</time>
      </trkpt>
      <trkpt lat="48.59338" lon="1.97775">
        <ele>178.39999389648</ele>
        <time>2020-05-26T08:24:29.000Z</time>
      </trkpt>
      <trkpt lat="48.5934" lon="1.97769">
        <ele>178.39999389648</ele>
        <time>2020-05-26T08:24:31.000Z</time>
      </trkpt>
      <trkpt lat="48.5934" lon="1.97762">
        <ele>178.39999389648</ele>
        <time>2020-05-26T08:24:33.000Z</time>
      </trkpt>
      <trkpt lat="48.59343" lon="1.97754">
        <ele>178.39999389648</ele>
        <time>2020-05-26T08:24:37.000Z</time>
      </trkpt>
      <trkpt lat="48.59346" lon="1.97742">
        <ele>178.39999389648</ele>
        <time>2020-05-26T08:24:42.000Z</time>
      </trkpt>
      <trkpt lat="48.59352" lon="1.97725">
        <ele>178.39999389648</ele>
        <time>2020-05-26T08:24:49.000Z</time>
      </trkpt>
      <trkpt lat="48.59354" lon="1.97723">
        <ele>178.39999389648</ele>
        <time>2020-05-26T08:24:52.000Z</time>
      </trkpt>
      <trkpt lat="48.59356" lon="1.97723">
        <ele>178.39999389648</ele>
        <time>2020-05-26T08:24:54.000Z</time>
      </trkpt>
      <trkpt lat="48.59366" lon="1.97719">
        <ele>178.39999389648</ele>
        <time>2020-05-26T08:25:01.000Z</time>
      </trkpt>
      <trkpt lat="48.59372" lon="1.97717">
        <ele>178.39999389648</ele>
        <time>2020-05-26T08:25:05.000Z</time>
      </trkpt>
      <trkpt lat="48.59373" lon="1.97716">
        <ele>178.39999389648</ele>
        <time>2020-05-26T08:25:06.000Z</time>
      </trkpt>
      <trkpt lat="48.59375" lon="1.97716">
        <ele>178.39999389648</ele>
        <time>2020-05-26T08:25:10.000Z</time>
      </trkpt>
      <trkpt lat="48.59377" lon="1.97718">
        <ele>178.39999389648</ele>
        <time>2020-05-26T08:25:50.000Z</time>
      </trkpt>
      <trkpt lat="48.59382" lon="1.97721">
        <ele>178.39999389648</ele>
        <time>2020-05-26T08:25:54.000Z</time>
      </trkpt>
      <trkpt lat="48.59384" lon="1.97723">
        <ele>178.39999389648</ele>
        <time>2020-05-26T08:25:56.000Z</time>
      </trkpt>
      <trkpt lat="48.59388" lon="1.97724">
        <ele>178.39999389648</ele>
        <time>2020-05-26T08:26:01.000Z</time>
      </trkpt>
      <trkpt lat="48.59393" lon="1.97726">
        <ele>178.39999389648</ele>
        <time>2020-05-26T08:26:04.000Z</time>
      </trkpt>
      <trkpt lat="48.59395" lon="1.97726">
        <ele>178.39999389648</ele>
        <time>2020-05-26T08:26:06.000Z</time>
      </trkpt>
      <trkpt lat="48.59404" lon="1.9773">
        <ele>178.39999389648</ele>
        <time>2020-05-26T08:26:11.000Z</time>
      </trkpt>
      <trkpt lat="48.59405" lon="1.9773">
        <ele>178.39999389648</ele>
        <time>2020-05-26T08:26:12.000Z</time>
      </trkpt>
      <trkpt lat="48.59406" lon="1.97731">
        <ele>178.39999389648</ele>
        <time>2020-05-26T08:26:13.000Z</time>
      </trkpt>
      <trkpt lat="48.59414" lon="1.97734">
        <ele>178.39999389648</ele>
        <time>2020-05-26T08:26:18.000Z</time>
      </trkpt>
      <trkpt lat="48.59423" lon="1.97737">
        <ele>178.39999389648</ele>
        <time>2020-05-26T08:26:24.000Z</time>
      </trkpt>
      <trkpt lat="48.59423" lon="1.97735">
        <ele>178.39999389648</ele>
        <time>2020-05-26T08:26:28.000Z</time>
      </trkpt>
      <trkpt lat="48.59422" lon="1.97734">
        <ele>178.39999389648</ele>
        <time>2020-05-26T08:26:29.000Z</time>
      </trkpt>
      <trkpt lat="48.59422" lon="1.97733">
        <ele>178</ele>
        <time>2020-05-26T08:26:30.000Z</time>
      </trkpt>
      <trkpt lat="48.59422" lon="1.97731">
        <ele>177.60000610352</ele>
        <time>2020-05-26T08:26:31.000Z</time>
      </trkpt>
      <trkpt lat="48.59422" lon="1.97728">
        <ele>177.19999694824</ele>
        <time>2020-05-26T08:26:32.000Z</time>
      </trkpt>
      <trkpt lat="48.59423" lon="1.97726">
        <ele>176.19999694824</ele>
        <time>2020-05-26T08:26:33.000Z</time>
      </trkpt>
      <trkpt lat="48.59423" lon="1.97722">
        <ele>176.19999694824</ele>
        <time>2020-05-26T08:26:35.000Z</time>
      </trkpt>
      <trkpt lat="48.59427" lon="1.97714">
        <ele>176.19999694824</ele>
        <time>2020-05-26T08:26:41.000Z</time>
      </trkpt>
      <trkpt lat="48.59427" lon="1.9771">
        <ele>175.80000305176</ele>
        <time>2020-05-26T08:26:44.000Z</time>
      </trkpt>
      <trkpt lat="48.59427" lon="1.97708">
        <ele>175.39999389648</ele>
        <time>2020-05-26T08:26:45.000Z</time>
      </trkpt>
      <trkpt lat="48.59426" lon="1.97706">
        <ele>175</ele>
        <time>2020-05-26T08:26:46.000Z</time>
      </trkpt>
      <trkpt lat="48.59424" lon="1.97702">
        <ele>174.60000610352</ele>
        <time>2020-05-26T08:26:47.000Z</time>
      </trkpt>
      <trkpt lat="48.59422" lon="1.977">
        <ele>174.19999694824</ele>
        <time>2020-05-26T08:26:48.000Z</time>
      </trkpt>
      <trkpt lat="48.5942" lon="1.97692">
        <ele>174.19999694824</ele>
        <time>2020-05-26T08:26:51.000Z</time>
      </trkpt>
      <trkpt lat="48.5942" lon="1.97683">
        <ele>174.19999694824</ele>
        <time>2020-05-26T08:26:54.000Z</time>
      </trkpt>
      <trkpt lat="48.5942" lon="1.97677">
        <ele>174.19999694824</ele>
        <time>2020-05-26T08:26:56.000Z</time>
      </trkpt>
      <trkpt lat="48.5942" lon="1.97675">
        <ele>173.60000610352</ele>
        <time>2020-05-26T08:26:57.000Z</time>
      </trkpt>
      <trkpt lat="48.59421" lon="1.97673">
        <ele>172.80000305176</ele>
        <time>2020-05-26T08:26:58.000Z</time>
      </trkpt>
      <trkpt lat="48.59421" lon="1.97671">
        <ele>172.19999694824</ele>
        <time>2020-05-26T08:26:59.000Z</time>
      </trkpt>
      <trkpt lat="48.59421" lon="1.97669">
        <ele>171.80000305176</ele>
        <time>2020-05-26T08:27:00.000Z</time>
      </trkpt>
      <trkpt lat="48.59422" lon="1.97663">
        <ele>171.80000305176</ele>
        <time>2020-05-26T08:27:03.000Z</time>
      </trkpt>
      <trkpt lat="48.59421" lon="1.97658">
        <ele>171.80000305176</ele>
        <time>2020-05-26T08:27:05.000Z</time>
      </trkpt>
      <trkpt lat="48.5942" lon="1.9765">
        <ele>171.39999389648</ele>
        <time>2020-05-26T08:27:08.000Z</time>
      </trkpt>
      <trkpt lat="48.59421" lon="1.97649">
        <ele>171</ele>
        <time>2020-05-26T08:27:09.000Z</time>
      </trkpt>
      <trkpt lat="48.59422" lon="1.97647">
        <ele>170.60000610352</ele>
        <time>2020-05-26T08:27:10.000Z</time>
      </trkpt>
      <trkpt lat="48.59423" lon="1.97645">
        <ele>170</ele>
        <time>2020-05-26T08:27:11.000Z</time>
      </trkpt>
      <trkpt lat="48.59423" lon="1.97643">
        <ele>169.60000610352</ele>
        <time>2020-05-26T08:27:12.000Z</time>
      </trkpt>
      <trkpt lat="48.59423" lon="1.9764">
        <ele>169.60000610352</ele>
        <time>2020-05-26T08:27:14.000Z</time>
      </trkpt>
      <trkpt lat="48.59422" lon="1.97633">
        <ele>169.60000610352</ele>
        <time>2020-05-26T08:27:17.000Z</time>
      </trkpt>
      <trkpt lat="48.59423" lon="1.97627">
        <ele>169.60000610352</ele>
        <time>2020-05-26T08:27:19.000Z</time>
      </trkpt>
      <trkpt lat="48.59424" lon="1.9762">
        <ele>169.60000610352</ele>
        <time>2020-05-26T08:27:22.000Z</time>
      </trkpt>
      <trkpt lat="48.59424" lon="1.97616">
        <ele>169.19999694824</ele>
        <time>2020-05-26T08:27:24.000Z</time>
      </trkpt>
      <trkpt lat="48.59424" lon="1.97613">
        <ele>168.80000305176</ele>
        <time>2020-05-26T08:27:25.000Z</time>
      </trkpt>
      <trkpt lat="48.59425" lon="1.9761">
        <ele>168.39999389648</ele>
        <time>2020-05-26T08:27:26.000Z</time>
      </trkpt>
      <trkpt lat="48.59426" lon="1.97607">
        <ele>168</ele>
        <time>2020-05-26T08:27:27.000Z</time>
      </trkpt>
      <trkpt lat="48.59427" lon="1.97604">
        <ele>167.60000610352</ele>
        <time>2020-05-26T08:27:28.000Z</time>
      </trkpt>
      <trkpt lat="48.59431" lon="1.97592">
        <ele>167.60000610352</ele>
        <time>2020-05-26T08:27:32.000Z</time>
      </trkpt>
      <trkpt lat="48.59437" lon="1.97577">
        <ele>167.60000610352</ele>
        <time>2020-05-26T08:27:38.000Z</time>
      </trkpt>
      <trkpt lat="48.59442" lon="1.97568">
        <ele>167.19999694824</ele>
        <time>2020-05-26T08:27:42.000Z</time>
      </trkpt>
      <trkpt lat="48.59443" lon="1.97564">
        <ele>166.80000305176</ele>
        <time>2020-05-26T08:27:43.000Z</time>
      </trkpt>
      <trkpt lat="48.59445" lon="1.97561">
        <ele>166.39999389648</ele>
        <time>2020-05-26T08:27:44.000Z</time>
      </trkpt>
      <trkpt lat="48.59446" lon="1.97559">
        <ele>165.80000305176</ele>
        <time>2020-05-26T08:27:45.000Z</time>
      </trkpt>
      <trkpt lat="48.59447" lon="1.97557">
        <ele>165.39999389648</ele>
        <time>2020-05-26T08:27:46.000Z</time>
      </trkpt>
      <trkpt lat="48.59449" lon="1.97553">
        <ele>165.39999389648</ele>
        <time>2020-05-26T08:27:48.000Z</time>
      </trkpt>
      <trkpt lat="48.59453" lon="1.97546">
        <ele>165.39999389648</ele>
        <time>2020-05-26T08:27:52.000Z</time>
      </trkpt>
      <trkpt lat="48.59454" lon="1.97542">
        <ele>165.39999389648</ele>
        <time>2020-05-26T08:27:54.000Z</time>
      </trkpt>
      <trkpt lat="48.59457" lon="1.97536">
        <ele>165.39999389648</ele>
        <time>2020-05-26T08:27:58.000Z</time>
      </trkpt>
      <trkpt lat="48.5946" lon="1.97532">
        <ele>165.39999389648</ele>
        <time>2020-05-26T08:28:00.000Z</time>
      </trkpt>
      <trkpt lat="48.59461" lon="1.97528">
        <ele>165.39999389648</ele>
        <time>2020-05-26T08:28:02.000Z</time>
      </trkpt>
      <trkpt lat="48.59463" lon="1.97524">
        <ele>165.39999389648</ele>
        <time>2020-05-26T08:28:05.000Z</time>
      </trkpt>
      <trkpt lat="48.59464" lon="1.97521">
        <ele>165.39999389648</ele>
        <time>2020-05-26T08:28:06.000Z</time>
      </trkpt>
      <trkpt lat="48.59464" lon="1.97518">
        <ele>165</ele>
        <time>2020-05-26T08:28:07.000Z</time>
      </trkpt>
      <trkpt lat="48.59465" lon="1.97517">
        <ele>164.60000610352</ele>
        <time>2020-05-26T08:28:08.000Z</time>
      </trkpt>
      <trkpt lat="48.59465" lon="1.97515">
        <ele>164.19999694824</ele>
        <time>2020-05-26T08:28:09.000Z</time>
      </trkpt>
      <trkpt lat="48.59465" lon="1.97514">
        <ele>163.80000305176</ele>
        <time>2020-05-26T08:28:10.000Z</time>
      </trkpt>
      <trkpt lat="48.59465" lon="1.97512">
        <ele>163.39999389648</ele>
        <time>2020-05-26T08:28:11.000Z</time>
      </trkpt>
      <trkpt lat="48.59465" lon="1.97509">
        <ele>163.39999389648</ele>
        <time>2020-05-26T08:28:13.000Z</time>
      </trkpt>
      <trkpt lat="48.59465" lon="1.97503">
        <ele>163.39999389648</ele>
        <time>2020-05-26T08:28:17.000Z</time>
      </trkpt>
      <trkpt lat="48.59465" lon="1.97495">
        <ele>163.39999389648</ele>
        <time>2020-05-26T08:28:22.000Z</time>
      </trkpt>
      <trkpt lat="48.59463" lon="1.9749">
        <ele>163</ele>
        <time>2020-05-26T08:28:24.000Z</time>
      </trkpt>
      <trkpt lat="48.59464" lon="1.97486">
        <ele>162.60000610352</ele>
        <time>2020-05-26T08:28:25.000Z</time>
      </trkpt>
      <trkpt lat="48.59463" lon="1.97484">
        <ele>162.19999694824</ele>
        <time>2020-05-26T08:28:26.000Z</time>
      </trkpt>
      <trkpt lat="48.59463" lon="1.97481">
        <ele>161.80000305176</ele>
        <time>2020-05-26T08:28:27.000Z</time>
      </trkpt>
      <trkpt lat="48.59464" lon="1.97479">
        <ele>161.39999389648</ele>
        <time>2020-05-26T08:28:28.000Z</time>
      </trkpt>
      <trkpt lat="48.59465" lon="1.97477">
        <ele>161.39999389648</ele>
        <time>2020-05-26T08:28:29.000Z</time>
      </trkpt>
      <trkpt lat="48.59464" lon="1.97475">
        <ele>161.39999389648</ele>
        <time>2020-05-26T08:28:30.000Z</time>
      </trkpt>
      <trkpt lat="48.59465" lon="1.97468">
        <ele>161.39999389648</ele>
        <time>2020-05-26T08:28:33.000Z</time>
      </trkpt>
      <trkpt lat="48.59466" lon="1.97458">
        <ele>161.39999389648</ele>
        <time>2020-05-26T08:28:38.000Z</time>
      </trkpt>
      <trkpt lat="48.59469" lon="1.97438">
        <ele>161.39999389648</ele>
        <time>2020-05-26T08:28:45.000Z</time>
      </trkpt>
      <trkpt lat="48.5947" lon="1.97432">
        <ele>161.39999389648</ele>
        <time>2020-05-26T08:28:49.000Z</time>
      </trkpt>
      <trkpt lat="48.5947" lon="1.97428">
        <ele>161.39999389648</ele>
        <time>2020-05-26T08:28:52.000Z</time>
      </trkpt>
      <trkpt lat="48.59471" lon="1.9742">
        <ele>161.39999389648</ele>
        <time>2020-05-26T08:28:57.000Z</time>
      </trkpt>
      <trkpt lat="48.5947" lon="1.97419">
        <ele>161.39999389648</ele>
        <time>2020-05-26T08:28:58.000Z</time>
      </trkpt>
      <trkpt lat="48.59468" lon="1.97412">
        <ele>161.39999389648</ele>
        <time>2020-05-26T08:29:02.000Z</time>
      </trkpt>
      <trkpt lat="48.59469" lon="1.97409">
        <ele>161.39999389648</ele>
        <time>2020-05-26T08:29:04.000Z</time>
      </trkpt>
      <trkpt lat="48.59468" lon="1.97396">
        <ele>161.39999389648</ele>
        <time>2020-05-26T08:29:10.000Z</time>
      </trkpt>
      <trkpt lat="48.59467" lon="1.97389">
        <ele>161.39999389648</ele>
        <time>2020-05-26T08:29:14.000Z</time>
      </trkpt>
      <trkpt lat="48.59468" lon="1.97387">
        <ele>161.39999389648</ele>
        <time>2020-05-26T08:29:15.000Z</time>
      </trkpt>
      <trkpt lat="48.59468" lon="1.97376">
        <ele>161.39999389648</ele>
        <time>2020-05-26T08:29:21.000Z</time>
      </trkpt>
      <trkpt lat="48.59467" lon="1.97374">
        <ele>161.39999389648</ele>
        <time>2020-05-26T08:29:22.000Z</time>
      </trkpt>
      <trkpt lat="48.59467" lon="1.97371">
        <ele>161.39999389648</ele>
        <time>2020-05-26T08:29:25.000Z</time>
      </trkpt>
      <trkpt lat="48.59466" lon="1.97359">
        <ele>161.39999389648</ele>
        <time>2020-05-26T08:29:31.000Z</time>
      </trkpt>
      <trkpt lat="48.59465" lon="1.97352">
        <ele>161.80000305176</ele>
        <time>2020-05-26T08:29:35.000Z</time>
      </trkpt>
      <trkpt lat="48.59465" lon="1.97349">
        <ele>162.19999694824</ele>
        <time>2020-05-26T08:29:36.000Z</time>
      </trkpt>
      <trkpt lat="48.59464" lon="1.97348">
        <ele>162.60000610352</ele>
        <time>2020-05-26T08:29:37.000Z</time>
      </trkpt>
      <trkpt lat="48.59464" lon="1.97348">
        <ele>163</ele>
        <time>2020-05-26T08:29:38.000Z</time>
      </trkpt>
      <trkpt lat="48.59463" lon="1.97346">
        <ele>163.60000610352</ele>
        <time>2020-05-26T08:29:39.000Z</time>
      </trkpt>
      <trkpt lat="48.59463" lon="1.97341">
        <ele>163.60000610352</ele>
        <time>2020-05-26T08:29:43.000Z</time>
      </trkpt>
      <trkpt lat="48.59463" lon="1.97338">
        <ele>163.60000610352</ele>
        <time>2020-05-26T08:29:44.000Z</time>
      </trkpt>
      <trkpt lat="48.59463" lon="1.97336">
        <ele>164</ele>
        <time>2020-05-26T08:29:45.000Z</time>
      </trkpt>
      <trkpt lat="48.59463" lon="1.97335">
        <ele>164.39999389648</ele>
        <time>2020-05-26T08:29:46.000Z</time>
      </trkpt>
      <trkpt lat="48.59463" lon="1.97334">
        <ele>164.80000305176</ele>
        <time>2020-05-26T08:29:47.000Z</time>
      </trkpt>
      <trkpt lat="48.59463" lon="1.97333">
        <ele>165.39999389648</ele>
        <time>2020-05-26T08:29:48.000Z</time>
      </trkpt>
      <trkpt lat="48.59463" lon="1.97332">
        <ele>165.80000305176</ele>
        <time>2020-05-26T08:29:49.000Z</time>
      </trkpt>
      <trkpt lat="48.59463" lon="1.9733">
        <ele>165.80000305176</ele>
        <time>2020-05-26T08:29:50.000Z</time>
      </trkpt>
      <trkpt lat="48.59463" lon="1.97327">
        <ele>166.19999694824</ele>
        <time>2020-05-26T08:29:52.000Z</time>
      </trkpt>
      <trkpt lat="48.59463" lon="1.97326">
        <ele>166.60000610352</ele>
        <time>2020-05-26T08:29:53.000Z</time>
      </trkpt>
      <trkpt lat="48.59463" lon="1.97326">
        <ele>167</ele>
        <time>2020-05-26T08:29:54.000Z</time>
      </trkpt>
      <trkpt lat="48.59428" lon="1.97254">
        <ele>176.19999694824</ele>
        <time>2020-05-26T08:30:58.000Z</time>
      </trkpt>
      <trkpt lat="48.59428" lon="1.97252">
        <ele>176.19999694824</ele>
        <time>2020-05-26T08:30:59.000Z</time>
      </trkpt>
      <trkpt lat="48.59427" lon="1.97245">
        <ele>176.19999694824</ele>
        <time>2020-05-26T08:31:04.000Z</time>
      </trkpt>
      <trkpt lat="48.59427" lon="1.97243">
        <ele>177</ele>
        <time>2020-05-26T08:31:05.000Z</time>
      </trkpt>
      <trkpt lat="48.59427" lon="1.97241">
        <ele>177.60000610352</ele>
        <time>2020-05-26T08:31:06.000Z</time>
      </trkpt>
      <trkpt lat="48.59426" lon="1.9724">
        <ele>178</ele>
        <time>2020-05-26T08:31:07.000Z</time>
      </trkpt>
      <trkpt lat="48.59426" lon="1.97238">
        <ele>178.39999389648</ele>
        <time>2020-05-26T08:31:08.000Z</time>
      </trkpt>
      <trkpt lat="48.59427" lon="1.97237">
        <ele>178.39999389648</ele>
        <time>2020-05-26T08:31:09.000Z</time>
      </trkpt>
      <trkpt lat="48.59427" lon="1.97224">
        <ele>178.39999389648</ele>
        <time>2020-05-26T08:31:17.000Z</time>
      </trkpt>
      <trkpt lat="48.59429" lon="1.97216">
        <ele>178.39999389648</ele>
        <time>2020-05-26T08:31:22.000Z</time>
      </trkpt>
      <trkpt lat="48.59434" lon="1.97203">
        <ele>178.39999389648</ele>
        <time>2020-05-26T08:31:30.000Z</time>
      </trkpt>
      <trkpt lat="48.59439" lon="1.97192">
        <ele>178.39999389648</ele>
        <time>2020-05-26T08:31:36.000Z</time>
      </trkpt>
      <trkpt lat="48.59439" lon="1.97178">
        <ele>178.39999389648</ele>
        <time>2020-05-26T08:31:43.000Z</time>
      </trkpt>
      <trkpt lat="48.59438" lon="1.97167">
        <ele>178.39999389648</ele>
        <time>2020-05-26T08:31:48.000Z</time>
      </trkpt>
      <trkpt lat="48.59435" lon="1.97154">
        <ele>178.39999389648</ele>
        <time>2020-05-26T08:31:55.000Z</time>
      </trkpt>
      <trkpt lat="48.59434" lon="1.97143">
        <ele>178.39999389648</ele>
        <time>2020-05-26T08:32:01.000Z</time>
      </trkpt>
      <trkpt lat="48.59435" lon="1.97129">
        <ele>178.39999389648</ele>
        <time>2020-05-26T08:32:08.000Z</time>
      </trkpt>
      <trkpt lat="48.59435" lon="1.97116">
        <ele>178.39999389648</ele>
        <time>2020-05-26T08:32:15.000Z</time>
      </trkpt>
      <trkpt lat="48.59434" lon="1.97105">
        <ele>178.39999389648</ele>
        <time>2020-05-26T08:32:21.000Z</time>
      </trkpt>
      <trkpt lat="48.59435" lon="1.97093">
        <ele>178.39999389648</ele>
        <time>2020-05-26T08:32:27.000Z</time>
      </trkpt>
      <trkpt lat="48.59431" lon="1.97081">
        <ele>178.39999389648</ele>
        <time>2020-05-26T08:32:34.000Z</time>
      </trkpt>
      <trkpt lat="48.59428" lon="1.97069">
        <ele>178.39999389648</ele>
        <time>2020-05-26T08:32:40.000Z</time>
      </trkpt>
      <trkpt lat="48.59427" lon="1.97055">
        <ele>178.39999389648</ele>
        <time>2020-05-26T08:32:47.000Z</time>
      </trkpt>
      <trkpt lat="48.59422" lon="1.9704">
        <ele>178.39999389648</ele>
        <time>2020-05-26T08:32:55.000Z</time>
      </trkpt>
      <trkpt lat="48.59421" lon="1.97029">
        <ele>178.39999389648</ele>
        <time>2020-05-26T08:33:01.000Z</time>
      </trkpt>
      <trkpt lat="48.59421" lon="1.97017">
        <ele>178.39999389648</ele>
        <time>2020-05-26T08:33:07.000Z</time>
      </trkpt>
      <trkpt lat="48.59423" lon="1.97006">
        <ele>178.39999389648</ele>
        <time>2020-05-26T08:33:13.000Z</time>
      </trkpt>
      <trkpt lat="48.59425" lon="1.96991">
        <ele>178.39999389648</ele>
        <time>2020-05-26T08:33:20.000Z</time>
      </trkpt>
      <trkpt lat="48.59426" lon="1.96978">
        <ele>178.39999389648</ele>
        <time>2020-05-26T08:33:27.000Z</time>
      </trkpt>
      <trkpt lat="48.59426" lon="1.96975">
        <ele>178.39999389648</ele>
        <time>2020-05-26T08:33:29.000Z</time>
      </trkpt>
      <trkpt lat="48.59424" lon="1.9697">
        <ele>178.39999389648</ele>
        <time>2020-05-26T08:33:33.000Z</time>
      </trkpt>
      <trkpt lat="48.5942" lon="1.96963">
        <ele>178.39999389648</ele>
        <time>2020-05-26T08:33:39.000Z</time>
      </trkpt>
      <trkpt lat="48.59414" lon="1.96954">
        <ele>178.39999389648</ele>
        <time>2020-05-26T08:33:46.000Z</time>
      </trkpt>
      <trkpt lat="48.5941" lon="1.9694">
        <ele>178.39999389648</ele>
        <time>2020-05-26T08:33:53.000Z</time>
      </trkpt>
      <trkpt lat="48.59408" lon="1.96927">
        <ele>178.39999389648</ele>
        <time>2020-05-26T08:34:00.000Z</time>
      </trkpt>
      <trkpt lat="48.59406" lon="1.96913">
        <ele>178.39999389648</ele>
        <time>2020-05-26T08:34:07.000Z</time>
      </trkpt>
      <trkpt lat="48.59404" lon="1.96902">
        <ele>178.39999389648</ele>
        <time>2020-05-26T08:34:14.000Z</time>
      </trkpt>
      <trkpt lat="48.59404" lon="1.96898">
        <ele>178.39999389648</ele>
        <time>2020-05-26T08:34:16.000Z</time>
      </trkpt>
      <trkpt lat="48.59406" lon="1.96891">
        <ele>178.39999389648</ele>
        <time>2020-05-26T08:34:20.000Z</time>
      </trkpt>
      <trkpt lat="48.5941" lon="1.96882">
        <ele>178.39999389648</ele>
        <time>2020-05-26T08:34:26.000Z</time>
      </trkpt>
      <trkpt lat="48.59413" lon="1.96877">
        <ele>178.39999389648</ele>
        <time>2020-05-26T08:34:30.000Z</time>
      </trkpt>
      <trkpt lat="48.59418" lon="1.96867">
        <ele>178.39999389648</ele>
        <time>2020-05-26T08:34:36.000Z</time>
      </trkpt>
      <trkpt lat="48.59424" lon="1.9686">
        <ele>178.39999389648</ele>
        <time>2020-05-26T08:34:42.000Z</time>
      </trkpt>
      <trkpt lat="48.59426" lon="1.96859">
        <ele>178</ele>
        <time>2020-05-26T08:34:44.000Z</time>
      </trkpt>
      <trkpt lat="48.59428" lon="1.96859">
        <ele>177.60000610352</ele>
        <time>2020-05-26T08:34:45.000Z</time>
      </trkpt>
      <trkpt lat="48.59429" lon="1.96859">
        <ele>177.19999694824</ele>
        <time>2020-05-26T08:34:46.000Z</time>
      </trkpt>
      <trkpt lat="48.5943" lon="1.96858">
        <ele>176.80000305176</ele>
        <time>2020-05-26T08:34:47.000Z</time>
      </trkpt>
      <trkpt lat="48.59432" lon="1.96857">
        <ele>176.19999694824</ele>
        <time>2020-05-26T08:34:48.000Z</time>
      </trkpt>
      <trkpt lat="48.59433" lon="1.96857">
        <ele>176.19999694824</ele>
        <time>2020-05-26T08:34:49.000Z</time>
      </trkpt>
      <trkpt lat="48.59442" lon="1.96853">
        <ele>175.80000305176</ele>
        <time>2020-05-26T08:34:56.000Z</time>
      </trkpt>
      <trkpt lat="48.59443" lon="1.96852">
        <ele>175.39999389648</ele>
        <time>2020-05-26T08:34:57.000Z</time>
      </trkpt>
      <trkpt lat="48.59443" lon="1.9685">
        <ele>175</ele>
        <time>2020-05-26T08:34:58.000Z</time>
      </trkpt>
      <trkpt lat="48.59444" lon="1.96849">
        <ele>174.60000610352</ele>
        <time>2020-05-26T08:34:59.000Z</time>
      </trkpt>
      <trkpt lat="48.59444" lon="1.96847">
        <ele>174.19999694824</ele>
        <time>2020-05-26T08:35:00.000Z</time>
      </trkpt>
      <trkpt lat="48.59444" lon="1.96845">
        <ele>174.19999694824</ele>
        <time>2020-05-26T08:35:01.000Z</time>
      </trkpt>
      <trkpt lat="48.59445" lon="1.9684">
        <ele>174.19999694824</ele>
        <time>2020-05-26T08:35:04.000Z</time>
      </trkpt>
      <trkpt lat="48.59446" lon="1.96834">
        <ele>174.19999694824</ele>
        <time>2020-05-26T08:35:07.000Z</time>
      </trkpt>
      <trkpt lat="48.59446" lon="1.96832">
        <ele>173.80000305176</ele>
        <time>2020-05-26T08:35:08.000Z</time>
      </trkpt>
      <trkpt lat="48.59446" lon="1.9683">
        <ele>173.39999389648</ele>
        <time>2020-05-26T08:35:09.000Z</time>
      </trkpt>
      <trkpt lat="48.59445" lon="1.96828">
        <ele>173</ele>
        <time>2020-05-26T08:35:10.000Z</time>
      </trkpt>
      <trkpt lat="48.59445" lon="1.96827">
        <ele>172.60000610352</ele>
        <time>2020-05-26T08:35:11.000Z</time>
      </trkpt>
      <trkpt lat="48.59445" lon="1.96825">
        <ele>172.19999694824</ele>
        <time>2020-05-26T08:35:12.000Z</time>
      </trkpt>
      <trkpt lat="48.59444" lon="1.96824">
        <ele>172.19999694824</ele>
        <time>2020-05-26T08:35:13.000Z</time>
      </trkpt>
      <trkpt lat="48.59442" lon="1.96813">
        <ele>172.19999694824</ele>
        <time>2020-05-26T08:35:20.000Z</time>
      </trkpt>
      <trkpt lat="48.59442" lon="1.96809">
        <ele>171.80000305176</ele>
        <time>2020-05-26T08:35:22.000Z</time>
      </trkpt>
      <trkpt lat="48.59441" lon="1.96808">
        <ele>171.19999694824</ele>
        <time>2020-05-26T08:35:23.000Z</time>
      </trkpt>
      <trkpt lat="48.5944" lon="1.96806">
        <ele>170.80000305176</ele>
        <time>2020-05-26T08:35:24.000Z</time>
      </trkpt>
      <trkpt lat="48.59439" lon="1.96804">
        <ele>170.39999389648</ele>
        <time>2020-05-26T08:35:25.000Z</time>
      </trkpt>
      <trkpt lat="48.59438" lon="1.96803">
        <ele>170</ele>
        <time>2020-05-26T08:35:26.000Z</time>
      </trkpt>
      <trkpt lat="48.59435" lon="1.9679">
        <ele>170</ele>
        <time>2020-05-26T08:35:33.000Z</time>
      </trkpt>
      <trkpt lat="48.59432" lon="1.9678">
        <ele>169.60000610352</ele>
        <time>2020-05-26T08:35:38.000Z</time>
      </trkpt>
      <trkpt lat="48.59431" lon="1.96778">
        <ele>169.19999694824</ele>
        <time>2020-05-26T08:35:39.000Z</time>
      </trkpt>
      <trkpt lat="48.59431" lon="1.96777">
        <ele>168.60000610352</ele>
        <time>2020-05-26T08:35:40.000Z</time>
      </trkpt>
      <trkpt lat="48.5943" lon="1.96776">
        <ele>168.19999694824</ele>
        <time>2020-05-26T08:35:41.000Z</time>
      </trkpt>
      <trkpt lat="48.59429" lon="1.96774">
        <ele>167.80000305176</ele>
        <time>2020-05-26T08:35:42.000Z</time>
      </trkpt>
      <trkpt lat="48.59426" lon="1.96766">
        <ele>167.80000305176</ele>
        <time>2020-05-26T08:35:47.000Z</time>
      </trkpt>
      <trkpt lat="48.59422" lon="1.96758">
        <ele>167.80000305176</ele>
        <time>2020-05-26T08:35:52.000Z</time>
      </trkpt>
      <trkpt lat="48.59421" lon="1.96753">
        <ele>167.39999389648</ele>
        <time>2020-05-26T08:35:55.000Z</time>
      </trkpt>
      <trkpt lat="48.5942" lon="1.96752">
        <ele>167</ele>
        <time>2020-05-26T08:35:56.000Z</time>
      </trkpt>
      <trkpt lat="48.5942" lon="1.9675">
        <ele>166.60000610352</ele>
        <time>2020-05-26T08:35:57.000Z</time>
      </trkpt>
      <trkpt lat="48.59419" lon="1.96749">
        <ele>166.19999694824</ele>
        <time>2020-05-26T08:35:58.000Z</time>
      </trkpt>
      <trkpt lat="48.59419" lon="1.96747">
        <ele>165.80000305176</ele>
        <time>2020-05-26T08:35:59.000Z</time>
      </trkpt>
      <trkpt lat="48.59417" lon="1.96744">
        <ele>165.80000305176</ele>
        <time>2020-05-26T08:36:02.000Z</time>
      </trkpt>
      <trkpt lat="48.59417" lon="1.96742">
        <ele>165.80000305176</ele>
        <time>2020-05-26T08:36:04.000Z</time>
      </trkpt>
      <trkpt lat="48.59417" lon="1.96739">
        <ele>165.80000305176</ele>
        <time>2020-05-26T08:36:19.000Z</time>
      </trkpt>
      <trkpt lat="48.59417" lon="1.96735">
        <ele>165.80000305176</ele>
        <time>2020-05-26T08:36:21.000Z</time>
      </trkpt>
      <trkpt lat="48.59418" lon="1.96726">
        <ele>165.39999389648</ele>
        <time>2020-05-26T08:36:26.000Z</time>
      </trkpt>
      <trkpt lat="48.59418" lon="1.96724">
        <ele>164.60000610352</ele>
        <time>2020-05-26T08:36:27.000Z</time>
      </trkpt>
      <trkpt lat="48.59418" lon="1.96722">
        <ele>164.19999694824</ele>
        <time>2020-05-26T08:36:28.000Z</time>
      </trkpt>
      <trkpt lat="48.59418" lon="1.9672">
        <ele>163.80000305176</ele>
        <time>2020-05-26T08:36:29.000Z</time>
      </trkpt>
      <trkpt lat="48.59418" lon="1.96717">
        <ele>163.80000305176</ele>
        <time>2020-05-26T08:36:31.000Z</time>
      </trkpt>
      <trkpt lat="48.59417" lon="1.96709">
        <ele>163.80000305176</ele>
        <time>2020-05-26T08:36:35.000Z</time>
      </trkpt>
      <trkpt lat="48.59415" lon="1.96704">
        <ele>163.39999389648</ele>
        <time>2020-05-26T08:36:38.000Z</time>
      </trkpt>
      <trkpt lat="48.59414" lon="1.96702">
        <ele>163</ele>
        <time>2020-05-26T08:36:39.000Z</time>
      </trkpt>
      <trkpt lat="48.59414" lon="1.96701">
        <ele>162.60000610352</ele>
        <time>2020-05-26T08:36:40.000Z</time>
      </trkpt>
      <trkpt lat="48.59413" lon="1.96699">
        <ele>162.19999694824</ele>
        <time>2020-05-26T08:36:41.000Z</time>
      </trkpt>
      <trkpt lat="48.59413" lon="1.96697">
        <ele>161.80000305176</ele>
        <time>2020-05-26T08:36:42.000Z</time>
      </trkpt>
      <trkpt lat="48.59411" lon="1.96693">
        <ele>161.80000305176</ele>
        <time>2020-05-26T08:36:45.000Z</time>
      </trkpt>
      <trkpt lat="48.59407" lon="1.96689">
        <ele>161.80000305176</ele>
        <time>2020-05-26T08:36:51.000Z</time>
      </trkpt>
      <trkpt lat="48.59406" lon="1.96686">
        <ele>161.80000305176</ele>
        <time>2020-05-26T08:36:55.000Z</time>
      </trkpt>
      <trkpt lat="48.59399" lon="1.96687">
        <ele>161.19999694824</ele>
        <time>2020-05-26T08:37:39.000Z</time>
      </trkpt>
      <trkpt lat="48.59398" lon="1.96687">
        <ele>160.80000305176</ele>
        <time>2020-05-26T08:37:40.000Z</time>
      </trkpt>
      <trkpt lat="48.59397" lon="1.96686">
        <ele>160</ele>
        <time>2020-05-26T08:37:41.000Z</time>
      </trkpt>
      <trkpt lat="48.59396" lon="1.96685">
        <ele>159.60000610352</ele>
        <time>2020-05-26T08:37:42.000Z</time>
      </trkpt>
      <trkpt lat="48.59393" lon="1.96684">
        <ele>159.60000610352</ele>
        <time>2020-05-26T08:37:45.000Z</time>
      </trkpt>
      <trkpt lat="48.59387" lon="1.9668">
        <ele>159.60000610352</ele>
        <time>2020-05-26T08:37:51.000Z</time>
      </trkpt>
      <trkpt lat="48.59381" lon="1.96677">
        <ele>159.60000610352</ele>
        <time>2020-05-26T08:37:57.000Z</time>
      </trkpt>
      <trkpt lat="48.59378" lon="1.96675">
        <ele>159.60000610352</ele>
        <time>2020-05-26T08:38:01.000Z</time>
      </trkpt>
      <trkpt lat="48.59368" lon="1.96671">
        <ele>157.39999389648</ele>
        <time>2020-05-26T08:38:18.000Z</time>
      </trkpt>
      <trkpt lat="48.59367" lon="1.9667">
        <ele>157</ele>
        <time>2020-05-26T08:38:19.000Z</time>
      </trkpt>
      <trkpt lat="48.59366" lon="1.9667">
        <ele>156.60000610352</ele>
        <time>2020-05-26T08:38:20.000Z</time>
      </trkpt>
      <trkpt lat="48.59365" lon="1.96669">
        <ele>156.19999694824</ele>
        <time>2020-05-26T08:38:21.000Z</time>
      </trkpt>
      <trkpt lat="48.59364" lon="1.96669">
        <ele>155.80000305176</ele>
        <time>2020-05-26T08:38:22.000Z</time>
      </trkpt>
      <trkpt lat="48.59364" lon="1.96669">
        <ele>155.19999694824</ele>
        <time>2020-05-26T08:38:23.000Z</time>
      </trkpt>
      <trkpt lat="48.59363" lon="1.96669">
        <ele>154.80000305176</ele>
        <time>2020-05-26T08:38:25.000Z</time>
      </trkpt>
      <trkpt lat="48.59362" lon="1.96668">
        <ele>154.39999389648</ele>
        <time>2020-05-26T08:38:26.000Z</time>
      </trkpt>
      <trkpt lat="48.59361" lon="1.96668">
        <ele>154</ele>
        <time>2020-05-26T08:38:27.000Z</time>
      </trkpt>
      <trkpt lat="48.5936" lon="1.96667">
        <ele>153.60000610352</ele>
        <time>2020-05-26T08:38:28.000Z</time>
      </trkpt>
      <trkpt lat="48.59359" lon="1.96667">
        <ele>153.19999694824</ele>
        <time>2020-05-26T08:38:29.000Z</time>
      </trkpt>
      <trkpt lat="48.59357" lon="1.96667">
        <ele>153.19999694824</ele>
        <time>2020-05-26T08:38:32.000Z</time>
      </trkpt>
      <trkpt lat="48.59356" lon="1.96666">
        <ele>152.80000305176</ele>
        <time>2020-05-26T08:38:33.000Z</time>
      </trkpt>
      <trkpt lat="48.59355" lon="1.96665">
        <ele>152.39999389648</ele>
        <time>2020-05-26T08:38:34.000Z</time>
      </trkpt>
      <trkpt lat="48.59354" lon="1.96664">
        <ele>152</ele>
        <time>2020-05-26T08:38:35.000Z</time>
      </trkpt>
      <trkpt lat="48.59353" lon="1.96664">
        <ele>151.60000610352</ele>
        <time>2020-05-26T08:38:36.000Z</time>
      </trkpt>
      <trkpt lat="48.59352" lon="1.96663">
        <ele>151.19999694824</ele>
        <time>2020-05-26T08:38:37.000Z</time>
      </trkpt>
      <trkpt lat="48.59351" lon="1.96661">
        <ele>151.19999694824</ele>
        <time>2020-05-26T08:38:39.000Z</time>
      </trkpt>
      <trkpt lat="48.59347" lon="1.96659">
        <ele>150.80000305176</ele>
        <time>2020-05-26T08:38:43.000Z</time>
      </trkpt>
      <trkpt lat="48.59346" lon="1.96658">
        <ele>150.39999389648</ele>
        <time>2020-05-26T08:38:44.000Z</time>
      </trkpt>
      <trkpt lat="48.59345" lon="1.96658">
        <ele>149.80000305176</ele>
        <time>2020-05-26T08:38:45.000Z</time>
      </trkpt>
      <trkpt lat="48.59344" lon="1.96657">
        <ele>149.39999389648</ele>
        <time>2020-05-26T08:38:46.000Z</time>
      </trkpt>
      <trkpt lat="48.59343" lon="1.96656">
        <ele>149</ele>
        <time>2020-05-26T08:38:47.000Z</time>
      </trkpt>
      <trkpt lat="48.59315" lon="1.96649">
        <ele>147</ele>
        <time>2020-05-26T08:39:08.000Z</time>
      </trkpt>
      <trkpt lat="48.59313" lon="1.96648">
        <ele>147</ele>
        <time>2020-05-26T08:39:10.000Z</time>
      </trkpt>
      <trkpt lat="48.59311" lon="1.96647">
        <ele>147</ele>
        <time>2020-05-26T08:39:12.000Z</time>
      </trkpt>
      <trkpt lat="48.5931" lon="1.96646">
        <ele>146.60000610352</ele>
        <time>2020-05-26T08:39:13.000Z</time>
      </trkpt>
      <trkpt lat="48.59309" lon="1.96646">
        <ele>146.19999694824</ele>
        <time>2020-05-26T08:39:14.000Z</time>
      </trkpt>
      <trkpt lat="48.59308" lon="1.96645">
        <ele>145.39999389648</ele>
        <time>2020-05-26T08:39:15.000Z</time>
      </trkpt>
      <trkpt lat="48.59307" lon="1.96644">
        <ele>145</ele>
        <time>2020-05-26T08:39:16.000Z</time>
      </trkpt>
      <trkpt lat="48.59305" lon="1.96644">
        <ele>145</ele>
        <time>2020-05-26T08:39:18.000Z</time>
      </trkpt>
      <trkpt lat="48.59295" lon="1.96636">
        <ele>144.19999694824</ele>
        <time>2020-05-26T08:39:29.000Z</time>
      </trkpt>
      <trkpt lat="48.59293" lon="1.96636">
        <ele>143.80000305176</ele>
        <time>2020-05-26T08:39:30.000Z</time>
      </trkpt>
      <trkpt lat="48.59291" lon="1.96635">
        <ele>143.39999389648</ele>
        <time>2020-05-26T08:39:31.000Z</time>
      </trkpt>
      <trkpt lat="48.59288" lon="1.96634">
        <ele>143</ele>
        <time>2020-05-26T08:39:32.000Z</time>
      </trkpt>
      <trkpt lat="48.5928" lon="1.96632">
        <ele>143</ele>
        <time>2020-05-26T08:39:35.000Z</time>
      </trkpt>
      <trkpt lat="48.59277" lon="1.96631">
        <ele>143</ele>
        <time>2020-05-26T08:39:38.000Z</time>
      </trkpt>
      <trkpt lat="48.5923" lon="1.96542">
        <ele>136.60000610352</ele>
        <time>2020-05-26T08:44:45.000Z</time>
      </trkpt>
      <trkpt lat="48.59231" lon="1.96541">
        <ele>136.60000610352</ele>
        <time>2020-05-26T08:44:46.000Z</time>
      </trkpt>
      <trkpt lat="48.59235" lon="1.96537">
        <ele>136.60000610352</ele>
        <time>2020-05-26T08:44:51.000Z</time>
      </trkpt>
      <trkpt lat="48.59237" lon="1.96531">
        <ele>136.60000610352</ele>
        <time>2020-05-26T08:44:54.000Z</time>
      </trkpt>
      <trkpt lat="48.5924" lon="1.96525">
        <ele>137</ele>
        <time>2020-05-26T08:44:56.000Z</time>
      </trkpt>
      <trkpt lat="48.59241" lon="1.96523">
        <ele>137.39999389648</ele>
        <time>2020-05-26T08:44:57.000Z</time>
      </trkpt>
      <trkpt lat="48.59242" lon="1.96522">
        <ele>137.80000305176</ele>
        <time>2020-05-26T08:44:58.000Z</time>
      </trkpt>
      <trkpt lat="48.59242" lon="1.96521">
        <ele>138.19999694824</ele>
        <time>2020-05-26T08:44:59.000Z</time>
      </trkpt>
      <trkpt lat="48.59267" lon="1.96496">
        <ele>140.80000305176</ele>
        <time>2020-05-26T08:45:19.000Z</time>
      </trkpt>
      <trkpt lat="48.5927" lon="1.96492">
        <ele>140.80000305176</ele>
        <time>2020-05-26T08:45:21.000Z</time>
      </trkpt>
      <trkpt lat="48.59278" lon="1.96488">
        <ele>141.19999694824</ele>
        <time>2020-05-26T08:45:27.000Z</time>
      </trkpt>
      <trkpt lat="48.59279" lon="1.96487">
        <ele>141.60000610352</ele>
        <time>2020-05-26T08:45:28.000Z</time>
      </trkpt>
      <trkpt lat="48.5928" lon="1.96487">
        <ele>142</ele>
        <time>2020-05-26T08:45:29.000Z</time>
      </trkpt>
      <trkpt lat="48.59282" lon="1.96487">
        <ele>142.39999389648</ele>
        <time>2020-05-26T08:45:30.000Z</time>
      </trkpt>
      <trkpt lat="48.59283" lon="1.96486">
        <ele>143</ele>
        <time>2020-05-26T08:45:31.000Z</time>
      </trkpt>
      <trkpt lat="48.59287" lon="1.96484">
        <ele>143</ele>
        <time>2020-05-26T08:45:34.000Z</time>
      </trkpt>
      <trkpt lat="48.59289" lon="1.96484">
        <ele>143</ele>
        <time>2020-05-26T08:45:36.000Z</time>
      </trkpt>
      <trkpt lat="48.59293" lon="1.96483">
        <ele>143</ele>
        <time>2020-05-26T08:45:40.000Z</time>
      </trkpt>
      <trkpt lat="48.59295" lon="1.96484">
        <ele>143.39999389648</ele>
        <time>2020-05-26T08:45:42.000Z</time>
      </trkpt>
      <trkpt lat="48.59297" lon="1.96485">
        <ele>143.80000305176</ele>
        <time>2020-05-26T08:45:43.000Z</time>
      </trkpt>
      <trkpt lat="48.59298" lon="1.96485">
        <ele>144.19999694824</ele>
        <time>2020-05-26T08:45:44.000Z</time>
      </trkpt>
      <trkpt lat="48.59299" lon="1.96485">
        <ele>144.60000610352</ele>
        <time>2020-05-26T08:45:45.000Z</time>
      </trkpt>
      <trkpt lat="48.593" lon="1.96485">
        <ele>145</ele>
        <time>2020-05-26T08:45:46.000Z</time>
      </trkpt>
      <trkpt lat="48.593" lon="1.96486">
        <ele>145</ele>
        <time>2020-05-26T08:45:47.000Z</time>
      </trkpt>
      <trkpt lat="48.59306" lon="1.96488">
        <ele>145</ele>
        <time>2020-05-26T08:45:51.000Z</time>
      </trkpt>
      <trkpt lat="48.59313" lon="1.96494">
        <ele>145</ele>
        <time>2020-05-26T08:45:57.000Z</time>
      </trkpt>
      <trkpt lat="48.59316" lon="1.96496">
        <ele>145.39999389648</ele>
        <time>2020-05-26T08:46:00.000Z</time>
      </trkpt>
      <trkpt lat="48.59317" lon="1.96497">
        <ele>145.80000305176</ele>
        <time>2020-05-26T08:46:01.000Z</time>
      </trkpt>
      <trkpt lat="48.59319" lon="1.96497">
        <ele>146.19999694824</ele>
        <time>2020-05-26T08:46:02.000Z</time>
      </trkpt>
      <trkpt lat="48.5932" lon="1.96497">
        <ele>146.60000610352</ele>
        <time>2020-05-26T08:46:03.000Z</time>
      </trkpt>
      <trkpt lat="48.59322" lon="1.96498">
        <ele>147</ele>
        <time>2020-05-26T08:46:04.000Z</time>
      </trkpt>
      <trkpt lat="48.59323" lon="1.96498">
        <ele>147</ele>
        <time>2020-05-26T08:46:05.000Z</time>
      </trkpt>
      <trkpt lat="48.59325" lon="1.965">
        <ele>147</ele>
        <time>2020-05-26T08:46:08.000Z</time>
      </trkpt>
      <trkpt lat="48.59333" lon="1.96507">
        <ele>147</ele>
        <time>2020-05-26T08:46:15.000Z</time>
      </trkpt>
      <trkpt lat="48.5934" lon="1.96516">
        <ele>147</ele>
        <time>2020-05-26T08:46:22.000Z</time>
      </trkpt>
      <trkpt lat="48.59345" lon="1.9652">
        <ele>147</ele>
        <time>2020-05-26T08:46:27.000Z</time>
      </trkpt>
      <trkpt lat="48.59352" lon="1.96527">
        <ele>147.39999389648</ele>
        <time>2020-05-26T08:46:33.000Z</time>
      </trkpt>
      <trkpt lat="48.59353" lon="1.96528">
        <ele>147.80000305176</ele>
        <time>2020-05-26T08:46:34.000Z</time>
      </trkpt>
      <trkpt lat="48.59353" lon="1.9653">
        <ele>148.19999694824</ele>
        <time>2020-05-26T08:46:35.000Z</time>
      </trkpt>
      <trkpt lat="48.59354" lon="1.96531">
        <ele>148.80000305176</ele>
        <time>2020-05-26T08:46:36.000Z</time>
      </trkpt>
      <trkpt lat="48.59355" lon="1.96532">
        <ele>149.19999694824</ele>
        <time>2020-05-26T08:46:37.000Z</time>
      </trkpt>
      <trkpt lat="48.59358" lon="1.96533">
        <ele>149.19999694824</ele>
        <time>2020-05-26T08:46:39.000Z</time>
      </trkpt>
      <trkpt lat="48.59366" lon="1.9654">
        <ele>149.19999694824</ele>
        <time>2020-05-26T08:46:45.000Z</time>
      </trkpt>
      <trkpt lat="48.59371" lon="1.96545">
        <ele>149.19999694824</ele>
        <time>2020-05-26T08:46:50.000Z</time>
      </trkpt>
      <trkpt lat="48.59372" lon="1.96546">
        <ele>149.60000610352</ele>
        <time>2020-05-26T08:46:51.000Z</time>
      </trkpt>
      <trkpt lat="48.59374" lon="1.96547">
        <ele>150</ele>
        <time>2020-05-26T08:46:52.000Z</time>
      </trkpt>
      <trkpt lat="48.59375" lon="1.96549">
        <ele>150.39999389648</ele>
        <time>2020-05-26T08:46:53.000Z</time>
      </trkpt>
      <trkpt lat="48.59377" lon="1.9655">
        <ele>150.80000305176</ele>
        <time>2020-05-26T08:46:54.000Z</time>
      </trkpt>
      <trkpt lat="48.59378" lon="1.96551">
        <ele>151.19999694824</ele>
        <time>2020-05-26T08:46:55.000Z</time>
      </trkpt>
      <trkpt lat="48.59381" lon="1.96554">
        <ele>151.19999694824</ele>
        <time>2020-05-26T08:46:57.000Z</time>
      </trkpt>
      <trkpt lat="48.59387" lon="1.9656">
        <ele>151.19999694824</ele>
        <time>2020-05-26T08:47:03.000Z</time>
      </trkpt>
      <trkpt lat="48.59388" lon="1.96562">
        <ele>151.60000610352</ele>
        <time>2020-05-26T08:47:04.000Z</time>
      </trkpt>
      <trkpt lat="48.59389" lon="1.96562">
        <ele>152</ele>
        <time>2020-05-26T08:47:05.000Z</time>
      </trkpt>
      <trkpt lat="48.5939" lon="1.96563">
        <ele>152.39999389648</ele>
        <time>2020-05-26T08:47:06.000Z</time>
      </trkpt>
      <trkpt lat="48.59391" lon="1.96564">
        <ele>152.80000305176</ele>
        <time>2020-05-26T08:47:07.000Z</time>
      </trkpt>
      <trkpt lat="48.59392" lon="1.96565">
        <ele>153.19999694824</ele>
        <time>2020-05-26T08:47:08.000Z</time>
      </trkpt>
      <trkpt lat="48.59395" lon="1.96568">
        <ele>153.19999694824</ele>
        <time>2020-05-26T08:47:11.000Z</time>
      </trkpt>
      <trkpt lat="48.59398" lon="1.96571">
        <ele>153.19999694824</ele>
        <time>2020-05-26T08:47:14.000Z</time>
      </trkpt>
      <trkpt lat="48.59404" lon="1.96574">
        <ele>153.19999694824</ele>
        <time>2020-05-26T08:47:19.000Z</time>
      </trkpt>
      <trkpt lat="48.59406" lon="1.96577">
        <ele>153.80000305176</ele>
        <time>2020-05-26T08:47:21.000Z</time>
      </trkpt>
      <trkpt lat="48.59407" lon="1.96578">
        <ele>154.19999694824</ele>
        <time>2020-05-26T08:47:22.000Z</time>
      </trkpt>
      <trkpt lat="48.59408" lon="1.96579">
        <ele>154.60000610352</ele>
        <time>2020-05-26T08:47:23.000Z</time>
      </trkpt>
      <trkpt lat="48.59409" lon="1.9658">
        <ele>155</ele>
        <time>2020-05-26T08:47:24.000Z</time>
      </trkpt>
      <trkpt lat="48.5941" lon="1.96582">
        <ele>155.39999389648</ele>
        <time>2020-05-26T08:47:25.000Z</time>
      </trkpt>
      <trkpt lat="48.59411" lon="1.96583">
        <ele>155.39999389648</ele>
        <time>2020-05-26T08:47:26.000Z</time>
      </trkpt>
      <trkpt lat="48.59417" lon="1.9659">
        <ele>155.39999389648</ele>
        <time>2020-05-26T08:47:32.000Z</time>
      </trkpt>
      <trkpt lat="48.59421" lon="1.96593">
        <ele>155.80000305176</ele>
        <time>2020-05-26T08:47:36.000Z</time>
      </trkpt>
      <trkpt lat="48.59421" lon="1.96595">
        <ele>156.19999694824</ele>
        <time>2020-05-26T08:47:37.000Z</time>
      </trkpt>
      <trkpt lat="48.59422" lon="1.96596">
        <ele>156.60000610352</ele>
        <time>2020-05-26T08:47:38.000Z</time>
      </trkpt>
      <trkpt lat="48.59423" lon="1.96597">
        <ele>157</ele>
        <time>2020-05-26T08:47:39.000Z</time>
      </trkpt>
      <trkpt lat="48.59425" lon="1.96598">
        <ele>157.39999389648</ele>
        <time>2020-05-26T08:47:40.000Z</time>
      </trkpt>
      <trkpt lat="48.59426" lon="1.96599">
        <ele>157.39999389648</ele>
        <time>2020-05-26T08:47:42.000Z</time>
      </trkpt>
      <trkpt lat="48.59429" lon="1.96602">
        <ele>157.39999389648</ele>
        <time>2020-05-26T08:47:44.000Z</time>
      </trkpt>
      <trkpt lat="48.59435" lon="1.96606">
        <ele>157.39999389648</ele>
        <time>2020-05-26T08:47:49.000Z</time>
      </trkpt>
      <trkpt lat="48.59435" lon="1.96606">
        <ele>157.39999389648</ele>
        <time>2020-05-26T08:47:50.000Z</time>
      </trkpt>
      <trkpt lat="48.59436" lon="1.96608">
        <ele>157.39999389648</ele>
        <time>2020-05-26T08:47:53.000Z</time>
      </trkpt>
      <trkpt lat="48.5944" lon="1.96603">
        <ele>157.39999389648</ele>
        <time>2020-05-26T08:47:59.000Z</time>
      </trkpt>
      <trkpt lat="48.59441" lon="1.96602">
        <ele>157.39999389648</ele>
        <time>2020-05-26T08:48:00.000Z</time>
      </trkpt>
      <trkpt lat="48.59446" lon="1.96591">
        <ele>157.39999389648</ele>
        <time>2020-05-26T08:48:08.000Z</time>
      </trkpt>
      <trkpt lat="48.59452" lon="1.96581">
        <ele>157.39999389648</ele>
        <time>2020-05-26T08:48:15.000Z</time>
      </trkpt>
      <trkpt lat="48.59459" lon="1.96571">
        <ele>157.39999389648</ele>
        <time>2020-05-26T08:48:22.000Z</time>
      </trkpt>
      <trkpt lat="48.59465" lon="1.96559">
        <ele>157.39999389648</ele>
        <time>2020-05-26T08:48:29.000Z</time>
      </trkpt>
      <trkpt lat="48.59471" lon="1.96549">
        <ele>157.39999389648</ele>
        <time>2020-05-26T08:48:36.000Z</time>
      </trkpt>
      <trkpt lat="48.59474" lon="1.96543">
        <ele>157.80000305176</ele>
        <time>2020-05-26T08:48:39.000Z</time>
      </trkpt>
      <trkpt lat="48.59474" lon="1.96542">
        <ele>158.19999694824</ele>
        <time>2020-05-26T08:48:40.000Z</time>
      </trkpt>
      <trkpt lat="48.59475" lon="1.9654">
        <ele>158.60000610352</ele>
        <time>2020-05-26T08:48:41.000Z</time>
      </trkpt>
      <trkpt lat="48.59476" lon="1.96538">
        <ele>159.39999389648</ele>
        <time>2020-05-26T08:48:42.000Z</time>
      </trkpt>
      <trkpt lat="48.59479" lon="1.96531">
        <ele>159.39999389648</ele>
        <time>2020-05-26T08:48:48.000Z</time>
      </trkpt>
      <trkpt lat="48.5948" lon="1.96528">
        <ele>159.39999389648</ele>
        <time>2020-05-26T08:48:51.000Z</time>
      </trkpt>
      <trkpt lat="48.59484" lon="1.96518">
        <ele>159.39999389648</ele>
        <time>2020-05-26T08:48:56.000Z</time>
      </trkpt>
      <trkpt lat="48.59485" lon="1.96514">
        <ele>159.39999389648</ele>
        <time>2020-05-26T08:48:58.000Z</time>
      </trkpt>
      <trkpt lat="48.59487" lon="1.96511">
        <ele>159.80000305176</ele>
        <time>2020-05-26T08:49:00.000Z</time>
      </trkpt>
      <trkpt lat="48.59488" lon="1.9651">
        <ele>160.19999694824</ele>
        <time>2020-05-26T08:49:01.000Z</time>
      </trkpt>
      <trkpt lat="48.59489" lon="1.96508">
        <ele>160.60000610352</ele>
        <time>2020-05-26T08:49:02.000Z</time>
      </trkpt>
      <trkpt lat="48.5949" lon="1.96506">
        <ele>161</ele>
        <time>2020-05-26T08:49:03.000Z</time>
      </trkpt>
      <trkpt lat="48.5949" lon="1.96505">
        <ele>161.39999389648</ele>
        <time>2020-05-26T08:49:04.000Z</time>
      </trkpt>
      <trkpt lat="48.59495" lon="1.96494">
        <ele>161.39999389648</ele>
        <time>2020-05-26T08:49:11.000Z</time>
      </trkpt>
      <trkpt lat="48.59498" lon="1.96483">
        <ele>161.39999389648</ele>
        <time>2020-05-26T08:49:17.000Z</time>
      </trkpt>
      <trkpt lat="48.59502" lon="1.96477">
        <ele>161.39999389648</ele>
        <time>2020-05-26T08:49:21.000Z</time>
      </trkpt>
      <trkpt lat="48.59503" lon="1.96475">
        <ele>161.39999389648</ele>
        <time>2020-05-26T08:49:23.000Z</time>
      </trkpt>
      <trkpt lat="48.59509" lon="1.96467">
        <ele>161.80000305176</ele>
        <time>2020-05-26T08:49:28.000Z</time>
      </trkpt>
      <trkpt lat="48.59509" lon="1.96465">
        <ele>162.19999694824</ele>
        <time>2020-05-26T08:49:29.000Z</time>
      </trkpt>
      <trkpt lat="48.5951" lon="1.96463">
        <ele>162.60000610352</ele>
        <time>2020-05-26T08:49:30.000Z</time>
      </trkpt>
      <trkpt lat="48.59511" lon="1.96462">
        <ele>163.19999694824</ele>
        <time>2020-05-26T08:49:31.000Z</time>
      </trkpt>
      <trkpt lat="48.59511" lon="1.9646">
        <ele>163.60000610352</ele>
        <time>2020-05-26T08:49:32.000Z</time>
      </trkpt>
      <trkpt lat="48.59515" lon="1.96451">
        <ele>163.60000610352</ele>
        <time>2020-05-26T08:49:38.000Z</time>
      </trkpt>
      <trkpt lat="48.59516" lon="1.9645">
        <ele>163.60000610352</ele>
        <time>2020-05-26T08:49:39.000Z</time>
      </trkpt>
      <trkpt lat="48.59518" lon="1.96443">
        <ele>163.60000610352</ele>
        <time>2020-05-26T08:49:44.000Z</time>
      </trkpt>
      <trkpt lat="48.59522" lon="1.96436">
        <ele>164</ele>
        <time>2020-05-26T08:49:48.000Z</time>
      </trkpt>
      <trkpt lat="48.59522" lon="1.96435">
        <ele>164.39999389648</ele>
        <time>2020-05-26T08:49:49.000Z</time>
      </trkpt>
      <trkpt lat="48.59523" lon="1.96434">
        <ele>164.80000305176</ele>
        <time>2020-05-26T08:49:50.000Z</time>
      </trkpt>
      <trkpt lat="48.59523" lon="1.96433">
        <ele>165.19999694824</ele>
        <time>2020-05-26T08:49:51.000Z</time>
      </trkpt>
      <trkpt lat="48.59524" lon="1.9643">
        <ele>165.60000610352</ele>
        <time>2020-05-26T08:49:52.000Z</time>
      </trkpt>
      <trkpt lat="48.59527" lon="1.96426">
        <ele>165.60000610352</ele>
        <time>2020-05-26T08:49:55.000Z</time>
      </trkpt>
      <trkpt lat="48.59533" lon="1.96415">
        <ele>165.60000610352</ele>
        <time>2020-05-26T08:50:02.000Z</time>
      </trkpt>
      <trkpt lat="48.59537" lon="1.96406">
        <ele>165.60000610352</ele>
        <time>2020-05-26T08:50:08.000Z</time>
      </trkpt>
      <trkpt lat="48.5954" lon="1.96399">
        <ele>166</ele>
        <time>2020-05-26T08:50:13.000Z</time>
      </trkpt>
      <trkpt lat="48.5954" lon="1.96398">
        <ele>166.39999389648</ele>
        <time>2020-05-26T08:50:14.000Z</time>
      </trkpt>
      <trkpt lat="48.59541" lon="1.96396">
        <ele>166.80000305176</ele>
        <time>2020-05-26T08:50:15.000Z</time>
      </trkpt>
      <trkpt lat="48.59541" lon="1.96395">
        <ele>167.19999694824</ele>
        <time>2020-05-26T08:50:16.000Z</time>
      </trkpt>
      <trkpt lat="48.59542" lon="1.96393">
        <ele>167.80000305176</ele>
        <time>2020-05-26T08:50:17.000Z</time>
      </trkpt>
      <trkpt lat="48.59546" lon="1.96384">
        <ele>167.80000305176</ele>
        <time>2020-05-26T08:50:23.000Z</time>
      </trkpt>
      <trkpt lat="48.59551" lon="1.96374">
        <ele>167.80000305176</ele>
        <time>2020-05-26T08:50:29.000Z</time>
      </trkpt>
      <trkpt lat="48.59556" lon="1.96363">
        <ele>167.80000305176</ele>
        <time>2020-05-26T08:50:36.000Z</time>
      </trkpt>
      <trkpt lat="48.59558" lon="1.9636">
        <ele>167.80000305176</ele>
        <time>2020-05-26T08:50:38.000Z</time>
      </trkpt>
      <trkpt lat="48.59562" lon="1.96353">
        <ele>167.80000305176</ele>
        <time>2020-05-26T08:50:43.000Z</time>
      </trkpt>
      <trkpt lat="48.59568" lon="1.9634">
        <ele>167.80000305176</ele>
        <time>2020-05-26T08:50:50.000Z</time>
      </trkpt>
      <trkpt lat="48.59572" lon="1.9633">
        <ele>167.80000305176</ele>
        <time>2020-05-26T08:50:56.000Z</time>
      </trkpt>
      <trkpt lat="48.59578" lon="1.96318">
        <ele>167.80000305176</ele>
        <time>2020-05-26T08:51:03.000Z</time>
      </trkpt>
      <trkpt lat="48.59583" lon="1.96307">
        <ele>167.80000305176</ele>
        <time>2020-05-26T08:51:10.000Z</time>
      </trkpt>
      <trkpt lat="48.59587" lon="1.96297">
        <ele>167.80000305176</ele>
        <time>2020-05-26T08:51:16.000Z</time>
      </trkpt>
      <trkpt lat="48.59592" lon="1.96285">
        <ele>167.80000305176</ele>
        <time>2020-05-26T08:51:23.000Z</time>
      </trkpt>
      <trkpt lat="48.59598" lon="1.96273">
        <ele>167.80000305176</ele>
        <time>2020-05-26T08:51:31.000Z</time>
      </trkpt>
      <trkpt lat="48.59601" lon="1.96265">
        <ele>167.39999389648</ele>
        <time>2020-05-26T08:51:37.000Z</time>
      </trkpt>
      <trkpt lat="48.59602" lon="1.96265">
        <ele>167</ele>
        <time>2020-05-26T08:51:38.000Z</time>
      </trkpt>
      <trkpt lat="48.59603" lon="1.96263">
        <ele>166.39999389648</ele>
        <time>2020-05-26T08:51:39.000Z</time>
      </trkpt>
      <trkpt lat="48.59604" lon="1.96261">
        <ele>166</ele>
        <time>2020-05-26T08:51:40.000Z</time>
      </trkpt>
      <trkpt lat="48.59604" lon="1.9626">
        <ele>165.60000610352</ele>
        <time>2020-05-26T08:51:41.000Z</time>
      </trkpt>
      <trkpt lat="48.59606" lon="1.96255">
        <ele>165.60000610352</ele>
        <time>2020-05-26T08:51:44.000Z</time>
      </trkpt>
      <trkpt lat="48.59608" lon="1.96249">
        <ele>165.60000610352</ele>
        <time>2020-05-26T08:51:50.000Z</time>
      </trkpt>
      <trkpt lat="48.59609" lon="1.96246">
        <ele>165.19999694824</ele>
        <time>2020-05-26T08:51:54.000Z</time>
      </trkpt>
      <trkpt lat="48.59609" lon="1.96245">
        <ele>164.80000305176</ele>
        <time>2020-05-26T08:51:55.000Z</time>
      </trkpt>
      <trkpt lat="48.59609" lon="1.96244">
        <ele>164.39999389648</ele>
        <time>2020-05-26T08:51:56.000Z</time>
      </trkpt>
      <trkpt lat="48.59622" lon="1.96212">
        <ele>159.19999694824</ele>
        <time>2020-05-26T08:52:21.000Z</time>
      </trkpt>
      <trkpt lat="48.59627" lon="1.96201">
        <ele>158.80000305176</ele>
        <time>2020-05-26T08:52:28.000Z</time>
      </trkpt>
      <trkpt lat="48.59628" lon="1.962">
        <ele>158.39999389648</ele>
        <time>2020-05-26T08:52:29.000Z</time>
      </trkpt>
      <trkpt lat="48.59628" lon="1.96199">
        <ele>158</ele>
        <time>2020-05-26T08:52:30.000Z</time>
      </trkpt>
      <trkpt lat="48.59629" lon="1.96198">
        <ele>157.60000610352</ele>
        <time>2020-05-26T08:52:31.000Z</time>
      </trkpt>
      <trkpt lat="48.5963" lon="1.96197">
        <ele>157.19999694824</ele>
        <time>2020-05-26T08:52:32.000Z</time>
      </trkpt>
      <trkpt lat="48.59632" lon="1.96193">
        <ele>157.19999694824</ele>
        <time>2020-05-26T08:52:36.000Z</time>
      </trkpt>
      <trkpt lat="48.59633" lon="1.96188">
        <ele>157.19999694824</ele>
        <time>2020-05-26T08:52:39.000Z</time>
      </trkpt>
      <trkpt lat="48.59633" lon="1.96186">
        <ele>156.80000305176</ele>
        <time>2020-05-26T08:52:40.000Z</time>
      </trkpt>
      <trkpt lat="48.59634" lon="1.96185">
        <ele>156.39999389648</ele>
        <time>2020-05-26T08:52:41.000Z</time>
      </trkpt>
      <trkpt lat="48.59635" lon="1.96183">
        <ele>156</ele>
        <time>2020-05-26T08:52:42.000Z</time>
      </trkpt>
      <trkpt lat="48.59636" lon="1.96182">
        <ele>155.60000610352</ele>
        <time>2020-05-26T08:52:43.000Z</time>
      </trkpt>
      <trkpt lat="48.59636" lon="1.96182">
        <ele>155</ele>
        <time>2020-05-26T08:52:44.000Z</time>
      </trkpt>
      <trkpt lat="48.597" lon="1.96049">
        <ele>146.80000305176</ele>
        <time>2020-05-26T08:54:11.000Z</time>
      </trkpt>
      <trkpt lat="48.59702" lon="1.96046">
        <ele>146.80000305176</ele>
        <time>2020-05-26T08:54:13.000Z</time>
      </trkpt>
      <trkpt lat="48.59708" lon="1.96034">
        <ele>146.80000305176</ele>
        <time>2020-05-26T08:54:20.000Z</time>
      </trkpt>
      <trkpt lat="48.59713" lon="1.96024">
        <ele>146.39999389648</ele>
        <time>2020-05-26T08:54:26.000Z</time>
      </trkpt>
      <trkpt lat="48.59714" lon="1.96021">
        <ele>146</ele>
        <time>2020-05-26T08:54:27.000Z</time>
      </trkpt>
      <trkpt lat="48.59714" lon="1.96019">
        <ele>145.60000610352</ele>
        <time>2020-05-26T08:54:28.000Z</time>
      </trkpt>
      <trkpt lat="48.59715" lon="1.96018">
        <ele>144.80000305176</ele>
        <time>2020-05-26T08:54:29.000Z</time>
      </trkpt>
      <trkpt lat="48.59716" lon="1.96014">
        <ele>144.80000305176</ele>
        <time>2020-05-26T08:54:32.000Z</time>
      </trkpt>
      <trkpt lat="48.59717" lon="1.96012">
        <ele>144.80000305176</ele>
        <time>2020-05-26T08:54:33.000Z</time>
      </trkpt>
      <trkpt lat="48.59721" lon="1.96003">
        <ele>144.80000305176</ele>
        <time>2020-05-26T08:54:39.000Z</time>
      </trkpt>
      <trkpt lat="48.59728" lon="1.95992">
        <ele>144.80000305176</ele>
        <time>2020-05-26T08:54:45.000Z</time>
      </trkpt>
      <trkpt lat="48.59734" lon="1.95976">
        <ele>144.80000305176</ele>
        <time>2020-05-26T08:54:52.000Z</time>
      </trkpt>
      <trkpt lat="48.59741" lon="1.95963">
        <ele>144.80000305176</ele>
        <time>2020-05-26T08:54:58.000Z</time>
      </trkpt>
      <trkpt lat="48.59748" lon="1.95944">
        <ele>144.80000305176</ele>
        <time>2020-05-26T08:55:06.000Z</time>
      </trkpt>
      <trkpt lat="48.59749" lon="1.95942">
        <ele>144.39999389648</ele>
        <time>2020-05-26T08:55:07.000Z</time>
      </trkpt>
      <trkpt lat="48.5975" lon="1.95941">
        <ele>144</ele>
        <time>2020-05-26T08:55:08.000Z</time>
      </trkpt>
      <trkpt lat="48.59751" lon="1.9594">
        <ele>143.60000610352</ele>
        <time>2020-05-26T08:55:09.000Z</time>
      </trkpt>
      <trkpt lat="48.59752" lon="1.95938">
        <ele>143.19999694824</ele>
        <time>2020-05-26T08:55:10.000Z</time>
      </trkpt>
      <trkpt lat="48.59753" lon="1.95937">
        <ele>142.80000305176</ele>
        <time>2020-05-26T08:55:11.000Z</time>
      </trkpt>
      <trkpt lat="48.59754" lon="1.95933">
        <ele>142.80000305176</ele>
        <time>2020-05-26T08:55:14.000Z</time>
      </trkpt>
      <trkpt lat="48.59757" lon="1.95922">
        <ele>142.80000305176</ele>
        <time>2020-05-26T08:55:21.000Z</time>
      </trkpt>
      <trkpt lat="48.59845" lon="1.95693">
        <ele>140.60000610352</ele>
        <time>2020-05-26T09:00:02.000Z</time>
      </trkpt>
      <trkpt lat="48.59844" lon="1.95693">
        <ele>140.60000610352</ele>
        <time>2020-05-26T09:00:03.000Z</time>
      </trkpt>
      <trkpt lat="48.59673" lon="1.95646">
        <ele>136.60000610352</ele>
        <time>2020-05-26T09:02:25.000Z</time>
      </trkpt>
      <trkpt lat="48.59659" lon="1.95643">
        <ele>136.60000610352</ele>
        <time>2020-05-26T09:02:32.000Z</time>
      </trkpt>
      <trkpt lat="48.59649" lon="1.95643">
        <ele>136.60000610352</ele>
        <time>2020-05-26T09:02:36.000Z</time>
      </trkpt>
      <trkpt lat="48.59638" lon="1.95642">
        <ele>136.60000610352</ele>
        <time>2020-05-26T09:02:40.000Z</time>
      </trkpt>
      <trkpt lat="48.59636" lon="1.95642">
        <ele>136.60000610352</ele>
        <time>2020-05-26T09:02:41.000Z</time>
      </trkpt>
      <trkpt lat="48.59625" lon="1.95644">
        <ele>136.60000610352</ele>
        <time>2020-05-26T09:02:47.000Z</time>
      </trkpt>
      <trkpt lat="48.59623" lon="1.95645">
        <ele>136.60000610352</ele>
        <time>2020-05-26T09:02:48.000Z</time>
      </trkpt>
      <trkpt lat="48.59616" lon="1.95647">
        <ele>136.60000610352</ele>
        <time>2020-05-26T09:02:53.000Z</time>
      </trkpt>
      <trkpt lat="48.59612" lon="1.95649">
        <ele>136.60000610352</ele>
        <time>2020-05-26T09:02:57.000Z</time>
      </trkpt>
      <trkpt lat="48.59608" lon="1.9565">
        <ele>136.60000610352</ele>
        <time>2020-05-26T09:03:00.000Z</time>
      </trkpt>
      <trkpt lat="48.59604" lon="1.9565">
        <ele>136.60000610352</ele>
        <time>2020-05-26T09:03:04.000Z</time>
      </trkpt>
      <trkpt lat="48.59602" lon="1.9565">
        <ele>136.60000610352</ele>
        <time>2020-05-26T09:03:05.000Z</time>
      </trkpt>
      <trkpt lat="48.59593" lon="1.95648">
        <ele>136.60000610352</ele>
        <time>2020-05-26T09:03:12.000Z</time>
      </trkpt>
      <trkpt lat="48.59589" lon="1.95646">
        <ele>136.60000610352</ele>
        <time>2020-05-26T09:03:15.000Z</time>
      </trkpt>
      <trkpt lat="48.59575" lon="1.95634">
        <ele>136.60000610352</ele>
        <time>2020-05-26T09:03:33.000Z</time>
      </trkpt>
      <trkpt lat="48.59572" lon="1.95632">
        <ele>136.60000610352</ele>
        <time>2020-05-26T09:03:35.000Z</time>
      </trkpt>
      <trkpt lat="48.59572" lon="1.9563">
        <ele>136.60000610352</ele>
        <time>2020-05-26T09:03:37.000Z</time>
      </trkpt>
      <trkpt lat="48.5956" lon="1.95624">
        <ele>136.60000610352</ele>
        <time>2020-05-26T09:03:50.000Z</time>
      </trkpt>
      <trkpt lat="48.59559" lon="1.95623">
        <ele>136.60000610352</ele>
        <time>2020-05-26T09:03:51.000Z</time>
      </trkpt>
      <trkpt lat="48.5955" lon="1.95617">
        <ele>136.60000610352</ele>
        <time>2020-05-26T09:03:57.000Z</time>
      </trkpt>
      <trkpt lat="48.59546" lon="1.95612">
        <ele>136.60000610352</ele>
        <time>2020-05-26T09:04:00.000Z</time>
      </trkpt>
      <trkpt lat="48.59522" lon="1.95592">
        <ele>136.60000610352</ele>
        <time>2020-05-26T09:04:25.000Z</time>
      </trkpt>
      <trkpt lat="48.5952" lon="1.95591">
        <ele>136.60000610352</ele>
        <time>2020-05-26T09:04:26.000Z</time>
      </trkpt>
      <trkpt lat="48.59516" lon="1.95589">
        <ele>136.60000610352</ele>
        <time>2020-05-26T09:04:29.000Z</time>
      </trkpt>
      <trkpt lat="48.59514" lon="1.95587">
        <ele>136.60000610352</ele>
        <time>2020-05-26T09:04:31.000Z</time>
      </trkpt>
      <trkpt lat="48.59512" lon="1.95587">
        <ele>136.60000610352</ele>
        <time>2020-05-26T09:04:32.000Z</time>
      </trkpt>
      <trkpt lat="48.59508" lon="1.95585">
        <ele>136.60000610352</ele>
        <time>2020-05-26T09:04:35.000Z</time>
      </trkpt>
      <trkpt lat="48.59507" lon="1.95583">
        <ele>136.60000610352</ele>
        <time>2020-05-26T09:04:37.000Z</time>
      </trkpt>
      <trkpt lat="48.59504" lon="1.95579">
        <ele>136.60000610352</ele>
        <time>2020-05-26T09:04:40.000Z</time>
      </trkpt>
      <trkpt lat="48.59493" lon="1.95552">
        <ele>136.60000610352</ele>
        <time>2020-05-26T09:05:01.000Z</time>
      </trkpt>
      <trkpt lat="48.59486" lon="1.95545">
        <ele>136.60000610352</ele>
        <time>2020-05-26T09:05:06.000Z</time>
      </trkpt>
      <trkpt lat="48.59475" lon="1.95538">
        <ele>136.60000610352</ele>
        <time>2020-05-26T09:05:10.000Z</time>
      </trkpt>
      <trkpt lat="48.59339" lon="1.95409">
        <ele>136.60000610352</ele>
        <time>2020-05-26T09:07:21.000Z</time>
      </trkpt>
      <trkpt lat="48.59337" lon="1.95408">
        <ele>136.60000610352</ele>
        <time>2020-05-26T09:07:22.000Z</time>
      </trkpt>
      <trkpt lat="48.59329" lon="1.95401">
        <ele>136.60000610352</ele>
        <time>2020-05-26T09:07:29.000Z</time>
      </trkpt>
      <trkpt lat="48.59324" lon="1.95395">
        <ele>136.60000610352</ele>
        <time>2020-05-26T09:07:36.000Z</time>
      </trkpt>
      <trkpt lat="48.59314" lon="1.95382">
        <ele>136.60000610352</ele>
        <time>2020-05-26T09:07:43.000Z</time>
      </trkpt>
      <trkpt lat="48.59312" lon="1.95381">
        <ele>136.60000610352</ele>
        <time>2020-05-26T09:07:44.000Z</time>
      </trkpt>
      <trkpt lat="48.59283" lon="1.95343">
        <ele>138.80000305176</ele>
        <time>2020-05-26T09:08:17.000Z</time>
      </trkpt>
      <trkpt lat="48.59278" lon="1.95341">
        <ele>138.80000305176</ele>
        <time>2020-05-26T09:08:19.000Z</time>
      </trkpt>
      <trkpt lat="48.59275" lon="1.9534">
        <ele>138.80000305176</ele>
        <time>2020-05-26T09:08:21.000Z</time>
      </trkpt>
      <trkpt lat="48.59248" lon="1.95317">
        <ele>140</ele>
        <time>2020-05-26T09:08:43.000Z</time>
      </trkpt>
      <trkpt lat="48.59246" lon="1.95316">
        <ele>140.39999389648</ele>
        <time>2020-05-26T09:08:44.000Z</time>
      </trkpt>
      <trkpt lat="48.59245" lon="1.95314">
        <ele>140.80000305176</ele>
        <time>2020-05-26T09:08:45.000Z</time>
      </trkpt>
      <trkpt lat="48.59245" lon="1.95313">
        <ele>140.80000305176</ele>
        <time>2020-05-26T09:08:46.000Z</time>
      </trkpt>
      <trkpt lat="48.59194" lon="1.95246">
        <ele>142.80000305176</ele>
        <time>2020-05-26T09:09:42.000Z</time>
      </trkpt>
      <trkpt lat="48.59191" lon="1.95244">
        <ele>142.80000305176</ele>
        <time>2020-05-26T09:09:44.000Z</time>
      </trkpt>
      <trkpt lat="48.59178" lon="1.95233">
        <ele>142.80000305176</ele>
        <time>2020-05-26T09:09:52.000Z</time>
      </trkpt>
      <trkpt lat="48.59164" lon="1.95225">
        <ele>142.80000305176</ele>
        <time>2020-05-26T09:09:59.000Z</time>
      </trkpt>
      <trkpt lat="48.5915" lon="1.95216">
        <ele>142.80000305176</ele>
        <time>2020-05-26T09:10:05.000Z</time>
      </trkpt>
      <trkpt lat="48.59141" lon="1.95209">
        <ele>142.80000305176</ele>
        <time>2020-05-26T09:10:12.000Z</time>
      </trkpt>
      <trkpt lat="48.59132" lon="1.952">
        <ele>142.80000305176</ele>
        <time>2020-05-26T09:10:18.000Z</time>
      </trkpt>
      <trkpt lat="48.59123" lon="1.95193">
        <ele>142.80000305176</ele>
        <time>2020-05-26T09:10:24.000Z</time>
      </trkpt>
      <trkpt lat="48.59116" lon="1.95186">
        <ele>142.80000305176</ele>
        <time>2020-05-26T09:10:30.000Z</time>
      </trkpt>
      <trkpt lat="48.59115" lon="1.95184">
        <ele>142.80000305176</ele>
        <time>2020-05-26T09:10:31.000Z</time>
      </trkpt>
      <trkpt lat="48.5911" lon="1.95181">
        <ele>142.80000305176</ele>
        <time>2020-05-26T09:10:35.000Z</time>
      </trkpt>
      <trkpt lat="48.59104" lon="1.95173">
        <ele>142.80000305176</ele>
        <time>2020-05-26T09:10:41.000Z</time>
      </trkpt>
      <trkpt lat="48.59103" lon="1.95172">
        <ele>143.19999694824</ele>
        <time>2020-05-26T09:10:42.000Z</time>
      </trkpt>
      <trkpt lat="48.59044" lon="1.95106">
        <ele>144.80000305176</ele>
        <time>2020-05-26T09:11:40.000Z</time>
      </trkpt>
      <trkpt lat="48.59042" lon="1.95104">
        <ele>144.80000305176</ele>
        <time>2020-05-26T09:11:42.000Z</time>
      </trkpt>
      <trkpt lat="48.59041" lon="1.95103">
        <ele>144.80000305176</ele>
        <time>2020-05-26T09:11:43.000Z</time>
      </trkpt>
      <trkpt lat="48.59037" lon="1.951">
        <ele>144.80000305176</ele>
        <time>2020-05-26T09:11:46.000Z</time>
      </trkpt>
      <trkpt lat="48.59034" lon="1.95096">
        <ele>144.80000305176</ele>
        <time>2020-05-26T09:11:49.000Z</time>
      </trkpt>
      <trkpt lat="48.59031" lon="1.95094">
        <ele>144.80000305176</ele>
        <time>2020-05-26T09:11:52.000Z</time>
      </trkpt>
      <trkpt lat="48.5903" lon="1.95093">
        <ele>145.19999694824</ele>
        <time>2020-05-26T09:11:53.000Z</time>
      </trkpt>
      <trkpt lat="48.5903" lon="1.95092">
        <ele>145.60000610352</ele>
        <time>2020-05-26T09:11:54.000Z</time>
      </trkpt>
      <trkpt lat="48.58938" lon="1.9497">
        <ele>151</ele>
        <time>2020-05-26T09:13:31.000Z</time>
      </trkpt>
      <trkpt lat="48.58936" lon="1.9497">
        <ele>151</ele>
        <time>2020-05-26T09:13:32.000Z</time>
      </trkpt>
      <trkpt lat="48.58928" lon="1.94962">
        <ele>151</ele>
        <time>2020-05-26T09:13:37.000Z</time>
      </trkpt>
      <trkpt lat="48.58922" lon="1.94953">
        <ele>151</ele>
        <time>2020-05-26T09:13:42.000Z</time>
      </trkpt>
      <trkpt lat="48.5892" lon="1.94951">
        <ele>151</ele>
        <time>2020-05-26T09:13:45.000Z</time>
      </trkpt>
      <trkpt lat="48.58611" lon="1.94717">
        <ele>177.39999389648</ele>
        <time>2020-05-26T09:19:15.000Z</time>
      </trkpt>
      <trkpt lat="48.5861" lon="1.94716">
        <ele>177.80000305176</ele>
        <time>2020-05-26T09:19:16.000Z</time>
      </trkpt>
      <trkpt lat="48.58599" lon="1.9471">
        <ele>177.80000305176</ele>
        <time>2020-05-26T09:19:21.000Z</time>
      </trkpt>
      <trkpt lat="48.58592" lon="1.94708">
        <ele>177.80000305176</ele>
        <time>2020-05-26T09:19:24.000Z</time>
      </trkpt>
      <trkpt lat="48.58491" lon="1.94666">
        <ele>179.80000305176</ele>
        <time>2020-05-26T09:23:58.000Z</time>
      </trkpt>
      <trkpt lat="48.58487" lon="1.94661">
        <ele>179.80000305176</ele>
        <time>2020-05-26T09:24:04.000Z</time>
      </trkpt>
      <trkpt lat="48.58481" lon="1.94655">
        <ele>179.80000305176</ele>
        <time>2020-05-26T09:24:11.000Z</time>
      </trkpt>
      <trkpt lat="48.58474" lon="1.94651">
        <ele>179.80000305176</ele>
        <time>2020-05-26T09:24:17.000Z</time>
      </trkpt>
      <trkpt lat="48.58471" lon="1.9465">
        <ele>179.80000305176</ele>
        <time>2020-05-26T09:24:19.000Z</time>
      </trkpt>
      <trkpt lat="48.58467" lon="1.9465">
        <ele>179.80000305176</ele>
        <time>2020-05-26T09:24:22.000Z</time>
      </trkpt>
      <trkpt lat="48.58464" lon="1.94649">
        <ele>179.80000305176</ele>
        <time>2020-05-26T09:24:24.000Z</time>
      </trkpt>
      <trkpt lat="48.58459" lon="1.94648">
        <ele>179.80000305176</ele>
        <time>2020-05-26T09:24:28.000Z</time>
      </trkpt>
      <trkpt lat="48.58451" lon="1.94647">
        <ele>179.80000305176</ele>
        <time>2020-05-26T09:24:35.000Z</time>
      </trkpt>
      <trkpt lat="48.5845" lon="1.94646">
        <ele>179.39999389648</ele>
        <time>2020-05-26T09:24:37.000Z</time>
      </trkpt>
      <trkpt lat="48.58449" lon="1.94646">
        <ele>179</ele>
        <time>2020-05-26T09:24:38.000Z</time>
      </trkpt>
      <trkpt lat="48.58447" lon="1.94646">
        <ele>178.60000610352</ele>
        <time>2020-05-26T09:24:39.000Z</time>
      </trkpt>
      <trkpt lat="48.58446" lon="1.94646">
        <ele>178.19999694824</ele>
        <time>2020-05-26T09:24:40.000Z</time>
      </trkpt>
      <trkpt lat="48.58445" lon="1.94646">
        <ele>177.80000305176</ele>
        <time>2020-05-26T09:24:41.000Z</time>
      </trkpt>
      <trkpt lat="48.58438" lon="1.94643">
        <ele>177.39999389648</ele>
        <time>2020-05-26T09:24:48.000Z</time>
      </trkpt>
      <trkpt lat="48.58436" lon="1.94642">
        <ele>177</ele>
        <time>2020-05-26T09:24:49.000Z</time>
      </trkpt>
      <trkpt lat="48.58435" lon="1.94641">
        <ele>176.60000610352</ele>
        <time>2020-05-26T09:24:50.000Z</time>
      </trkpt>
      <trkpt lat="48.58434" lon="1.94641">
        <ele>176.19999694824</ele>
        <time>2020-05-26T09:24:51.000Z</time>
      </trkpt>
      <trkpt lat="48.58434" lon="1.94642">
        <ele>175.80000305176</ele>
        <time>2020-05-26T09:24:52.000Z</time>
      </trkpt>
      <trkpt lat="48.58427" lon="1.94641">
        <ele>175.80000305176</ele>
        <time>2020-05-26T09:24:55.000Z</time>
      </trkpt>
      <trkpt lat="48.58424" lon="1.94639">
        <ele>175.39999389648</ele>
        <time>2020-05-26T09:24:58.000Z</time>
      </trkpt>
      <trkpt lat="48.58422" lon="1.94639">
        <ele>175</ele>
        <time>2020-05-26T09:24:59.000Z</time>
      </trkpt>
      <trkpt lat="48.58421" lon="1.94639">
        <ele>174.60000610352</ele>
        <time>2020-05-26T09:25:00.000Z</time>
      </trkpt>
      <trkpt lat="48.5842" lon="1.94639">
        <ele>174.19999694824</ele>
        <time>2020-05-26T09:25:01.000Z</time>
      </trkpt>
      <trkpt lat="48.58418" lon="1.94638">
        <ele>173.80000305176</ele>
        <time>2020-05-26T09:25:02.000Z</time>
      </trkpt>
      <trkpt lat="48.5841" lon="1.94636">
        <ele>173.80000305176</ele>
        <time>2020-05-26T09:25:09.000Z</time>
      </trkpt>
      <trkpt lat="48.58401" lon="1.94638">
        <ele>171.60000610352</ele>
        <time>2020-05-26T09:25:20.000Z</time>
      </trkpt>
      <trkpt lat="48.58401" lon="1.94637">
        <ele>171.19999694824</ele>
        <time>2020-05-26T09:25:21.000Z</time>
      </trkpt>
      <trkpt lat="48.584" lon="1.94637">
        <ele>170.80000305176</ele>
        <time>2020-05-26T09:25:22.000Z</time>
      </trkpt>
      <trkpt lat="48.58369" lon="1.94641">
        <ele>167.60000610352</ele>
        <time>2020-05-26T09:25:45.000Z</time>
      </trkpt>
      <trkpt lat="48.58368" lon="1.94641">
        <ele>167</ele>
        <time>2020-05-26T09:25:46.000Z</time>
      </trkpt>
      <trkpt lat="48.58368" lon="1.94641">
        <ele>166.19999694824</ele>
        <time>2020-05-26T09:25:47.000Z</time>
      </trkpt>
      <trkpt lat="48.58366" lon="1.94641">
        <ele>165.80000305176</ele>
        <time>2020-05-26T09:25:48.000Z</time>
      </trkpt>
      <trkpt lat="48.58365" lon="1.94641">
        <ele>165.39999389648</ele>
        <time>2020-05-26T09:25:49.000Z</time>
      </trkpt>
      <trkpt lat="48.58361" lon="1.9464">
        <ele>165.39999389648</ele>
        <time>2020-05-26T09:25:52.000Z</time>
      </trkpt>
      <trkpt lat="48.58358" lon="1.9464">
        <ele>165.39999389648</ele>
        <time>2020-05-26T09:25:54.000Z</time>
      </trkpt>
      <trkpt lat="48.58354" lon="1.94639">
        <ele>165.39999389648</ele>
        <time>2020-05-26T09:25:58.000Z</time>
      </trkpt>
      <trkpt lat="48.58352" lon="1.9464">
        <ele>165.39999389648</ele>
        <time>2020-05-26T09:25:59.000Z</time>
      </trkpt>
      <trkpt lat="48.58347" lon="1.94639">
        <ele>165.39999389648</ele>
        <time>2020-05-26T09:26:03.000Z</time>
      </trkpt>
      <trkpt lat="48.58345" lon="1.94639">
        <ele>165</ele>
        <time>2020-05-26T09:26:05.000Z</time>
      </trkpt>
      <trkpt lat="48.58344" lon="1.94639">
        <ele>164.60000610352</ele>
        <time>2020-05-26T09:26:06.000Z</time>
      </trkpt>
      <trkpt lat="48.58339" lon="1.94638">
        <ele>163.80000305176</ele>
        <time>2020-05-26T09:26:08.000Z</time>
      </trkpt>
      <trkpt lat="48.58337" lon="1.94637">
        <ele>163.39999389648</ele>
        <time>2020-05-26T09:26:09.000Z</time>
      </trkpt>
      <trkpt lat="48.58325" lon="1.94637">
        <ele>163.39999389648</ele>
        <time>2020-05-26T09:26:14.000Z</time>
      </trkpt>
      <trkpt lat="48.58317" lon="1.94636">
        <ele>163.39999389648</ele>
        <time>2020-05-26T09:26:19.000Z</time>
      </trkpt>
      <trkpt lat="48.58315" lon="1.94636">
        <ele>163.39999389648</ele>
        <time>2020-05-26T09:26:20.000Z</time>
      </trkpt>
      <trkpt lat="48.58307" lon="1.94638">
        <ele>163.39999389648</ele>
        <time>2020-05-26T09:26:26.000Z</time>
      </trkpt>
      <trkpt lat="48.58306" lon="1.94637">
        <ele>163</ele>
        <time>2020-05-26T09:26:27.000Z</time>
      </trkpt>
      <trkpt lat="48.58305" lon="1.94637">
        <ele>162.60000610352</ele>
        <time>2020-05-26T09:26:28.000Z</time>
      </trkpt>
      <trkpt lat="48.58303" lon="1.94637">
        <ele>162.19999694824</ele>
        <time>2020-05-26T09:26:29.000Z</time>
      </trkpt>
      <trkpt lat="48.58302" lon="1.94636">
        <ele>161.80000305176</ele>
        <time>2020-05-26T09:26:30.000Z</time>
      </trkpt>
      <trkpt lat="48.58301" lon="1.94636">
        <ele>161.39999389648</ele>
        <time>2020-05-26T09:26:31.000Z</time>
      </trkpt>
      <trkpt lat="48.5829" lon="1.94636">
        <ele>161.39999389648</ele>
        <time>2020-05-26T09:26:38.000Z</time>
      </trkpt>
      <trkpt lat="48.58284" lon="1.94635">
        <ele>161.39999389648</ele>
        <time>2020-05-26T09:26:42.000Z</time>
      </trkpt>
      <trkpt lat="48.58281" lon="1.94635">
        <ele>161.39999389648</ele>
        <time>2020-05-26T09:26:45.000Z</time>
      </trkpt>
      <trkpt lat="48.58273" lon="1.94633">
        <ele>161.39999389648</ele>
        <time>2020-05-26T09:26:50.000Z</time>
      </trkpt>
      <trkpt lat="48.58272" lon="1.94633">
        <ele>161</ele>
        <time>2020-05-26T09:26:52.000Z</time>
      </trkpt>
      <trkpt lat="48.5827" lon="1.94633">
        <ele>160.60000610352</ele>
        <time>2020-05-26T09:26:53.000Z</time>
      </trkpt>
      <trkpt lat="48.58269" lon="1.94634">
        <ele>160.19999694824</ele>
        <time>2020-05-26T09:26:54.000Z</time>
      </trkpt>
      <trkpt lat="48.58268" lon="1.94634">
        <ele>159.80000305176</ele>
        <time>2020-05-26T09:26:55.000Z</time>
      </trkpt>
      <trkpt lat="48.58267" lon="1.94634">
        <ele>159.39999389648</ele>
        <time>2020-05-26T09:26:56.000Z</time>
      </trkpt>
      <trkpt lat="48.58259" lon="1.94632">
        <ele>159.39999389648</ele>
        <time>2020-05-26T09:27:01.000Z</time>
      </trkpt>
      <trkpt lat="48.58256" lon="1.94631">
        <ele>159.39999389648</ele>
        <time>2020-05-26T09:27:03.000Z</time>
      </trkpt>
      <trkpt lat="48.58249" lon="1.9463">
        <ele>159.39999389648</ele>
        <time>2020-05-26T09:27:08.000Z</time>
      </trkpt>
      <trkpt lat="48.58247" lon="1.9463">
        <ele>159.39999389648</ele>
        <time>2020-05-26T09:27:09.000Z</time>
      </trkpt>
      <trkpt lat="48.58238" lon="1.94628">
        <ele>159.39999389648</ele>
        <time>2020-05-26T09:27:16.000Z</time>
      </trkpt>
      <trkpt lat="48.58236" lon="1.94628">
        <ele>158.80000305176</ele>
        <time>2020-05-26T09:27:18.000Z</time>
      </trkpt>
      <trkpt lat="48.58235" lon="1.94627">
        <ele>158.39999389648</ele>
        <time>2020-05-26T09:27:19.000Z</time>
      </trkpt>
      <trkpt lat="48.58234" lon="1.94628">
        <ele>158</ele>
        <time>2020-05-26T09:27:20.000Z</time>
      </trkpt>
      <trkpt lat="48.58233" lon="1.94627">
        <ele>157.60000610352</ele>
        <time>2020-05-26T09:27:21.000Z</time>
      </trkpt>
      <trkpt lat="48.58232" lon="1.94627">
        <ele>157.19999694824</ele>
        <time>2020-05-26T09:27:22.000Z</time>
      </trkpt>
      <trkpt lat="48.58224" lon="1.94627">
        <ele>157.19999694824</ele>
        <time>2020-05-26T09:27:27.000Z</time>
      </trkpt>
      <trkpt lat="48.58212" lon="1.94622">
        <ele>157.19999694824</ele>
        <time>2020-05-26T09:27:33.000Z</time>
      </trkpt>
      <trkpt lat="48.58204" lon="1.94616">
        <ele>157.19999694824</ele>
        <time>2020-05-26T09:27:38.000Z</time>
      </trkpt>
      <trkpt lat="48.58203" lon="1.94616">
        <ele>156.80000305176</ele>
        <time>2020-05-26T09:27:39.000Z</time>
      </trkpt>
      <trkpt lat="48.58201" lon="1.94615">
        <ele>156.39999389648</ele>
        <time>2020-05-26T09:27:40.000Z</time>
      </trkpt>
      <trkpt lat="48.58199" lon="1.94615">
        <ele>155.80000305176</ele>
        <time>2020-05-26T09:27:41.000Z</time>
      </trkpt>
      <trkpt lat="48.58197" lon="1.94614">
        <ele>155.39999389648</ele>
        <time>2020-05-26T09:27:42.000Z</time>
      </trkpt>
      <trkpt lat="48.58195" lon="1.94613">
        <ele>155</ele>
        <time>2020-05-26T09:27:43.000Z</time>
      </trkpt>
      <trkpt lat="48.58194" lon="1.94613">
        <ele>155</ele>
        <time>2020-05-26T09:27:44.000Z</time>
      </trkpt>
      <trkpt lat="48.58179" lon="1.94608">
        <ele>155</ele>
        <time>2020-05-26T09:27:53.000Z</time>
      </trkpt>
      <trkpt lat="48.58169" lon="1.94603">
        <ele>155</ele>
        <time>2020-05-26T09:28:00.000Z</time>
      </trkpt>
      <trkpt lat="48.58159" lon="1.946">
        <ele>154.60000610352</ele>
        <time>2020-05-26T09:28:07.000Z</time>
      </trkpt>
      <trkpt lat="48.58158" lon="1.946">
        <ele>154.19999694824</ele>
        <time>2020-05-26T09:28:08.000Z</time>
      </trkpt>
      <trkpt lat="48.58156" lon="1.94599">
        <ele>153.80000305176</ele>
        <time>2020-05-26T09:28:09.000Z</time>
      </trkpt>
      <trkpt lat="48.58154" lon="1.946">
        <ele>153.39999389648</ele>
        <time>2020-05-26T09:28:10.000Z</time>
      </trkpt>
      <trkpt lat="48.58153" lon="1.94599">
        <ele>153</ele>
        <time>2020-05-26T09:28:11.000Z</time>
      </trkpt>
      <trkpt lat="48.58149" lon="1.94597">
        <ele>153</ele>
        <time>2020-05-26T09:28:14.000Z</time>
      </trkpt>
      <trkpt lat="48.5814" lon="1.94595">
        <ele>153</ele>
        <time>2020-05-26T09:28:21.000Z</time>
      </trkpt>
      <trkpt lat="48.58133" lon="1.946">
        <ele>153</ele>
        <time>2020-05-26T09:28:27.000Z</time>
      </trkpt>
      <trkpt lat="48.58129" lon="1.9461">
        <ele>153</ele>
        <time>2020-05-26T09:28:33.000Z</time>
      </trkpt>
      <trkpt lat="48.58125" lon="1.94619">
        <ele>152.60000610352</ele>
        <time>2020-05-26T09:28:38.000Z</time>
      </trkpt>
      <trkpt lat="48.58125" lon="1.94621">
        <ele>152.19999694824</ele>
        <time>2020-05-26T09:28:39.000Z</time>
      </trkpt>
      <trkpt lat="48.58125" lon="1.94622">
        <ele>151.80000305176</ele>
        <time>2020-05-26T09:28:40.000Z</time>
      </trkpt>
      <trkpt lat="48.58125" lon="1.94624">
        <ele>151</ele>
        <time>2020-05-26T09:28:41.000Z</time>
      </trkpt>
      <trkpt lat="48.58125" lon="1.94631">
        <ele>151</ele>
        <time>2020-05-26T09:28:44.000Z</time>
      </trkpt>
      <trkpt lat="48.58123" lon="1.94644">
        <ele>151</ele>
        <time>2020-05-26T09:28:50.000Z</time>
      </trkpt>
      <trkpt lat="48.58123" lon="1.94648">
        <ele>151</ele>
        <time>2020-05-26T09:28:52.000Z</time>
      </trkpt>
      <trkpt lat="48.58121" lon="1.94658">
        <ele>151</ele>
        <time>2020-05-26T09:28:57.000Z</time>
      </trkpt>
      <trkpt lat="48.58121" lon="1.94667">
        <ele>151</ele>
        <time>2020-05-26T09:29:01.000Z</time>
      </trkpt>
      <trkpt lat="48.5812" lon="1.94671">
        <ele>151</ele>
        <time>2020-05-26T09:29:03.000Z</time>
      </trkpt>
      <trkpt lat="48.58119" lon="1.94678">
        <ele>150.60000610352</ele>
        <time>2020-05-26T09:29:07.000Z</time>
      </trkpt>
      <trkpt lat="48.58119" lon="1.94681">
        <ele>150.19999694824</ele>
        <time>2020-05-26T09:29:08.000Z</time>
      </trkpt>
      <trkpt lat="48.58119" lon="1.94683">
        <ele>149.60000610352</ele>
        <time>2020-05-26T09:29:09.000Z</time>
      </trkpt>
      <trkpt lat="48.58119" lon="1.94685">
        <ele>149.19999694824</ele>
        <time>2020-05-26T09:29:10.000Z</time>
      </trkpt>
      <trkpt lat="48.58118" lon="1.94687">
        <ele>148.80000305176</ele>
        <time>2020-05-26T09:29:11.000Z</time>
      </trkpt>
      <trkpt lat="48.58116" lon="1.94698">
        <ele>148.80000305176</ele>
        <time>2020-05-26T09:29:16.000Z</time>
      </trkpt>
      <trkpt lat="48.58115" lon="1.94707">
        <ele>148.80000305176</ele>
        <time>2020-05-26T09:29:21.000Z</time>
      </trkpt>
      <trkpt lat="48.58115" lon="1.94709">
        <ele>148.80000305176</ele>
        <time>2020-05-26T09:29:22.000Z</time>
      </trkpt>
      <trkpt lat="48.58114" lon="1.94716">
        <ele>148.80000305176</ele>
        <time>2020-05-26T09:29:26.000Z</time>
      </trkpt>
      <trkpt lat="48.58113" lon="1.9472">
        <ele>148.80000305176</ele>
        <time>2020-05-26T09:29:28.000Z</time>
      </trkpt>
      <trkpt lat="48.58111" lon="1.94729">
        <ele>148.80000305176</ele>
        <time>2020-05-26T09:29:34.000Z</time>
      </trkpt>
      <trkpt lat="48.5811" lon="1.94741">
        <ele>148.80000305176</ele>
        <time>2020-05-26T09:29:39.000Z</time>
      </trkpt>
      <trkpt lat="48.5811" lon="1.94743">
        <ele>148.80000305176</ele>
        <time>2020-05-26T09:29:40.000Z</time>
      </trkpt>
      <trkpt lat="48.5811" lon="1.94745">
        <ele>148.80000305176</ele>
        <time>2020-05-26T09:29:41.000Z</time>
      </trkpt>
      <trkpt lat="48.58109" lon="1.94754">
        <ele>148.80000305176</ele>
        <time>2020-05-26T09:29:45.000Z</time>
      </trkpt>
      <trkpt lat="48.58107" lon="1.94764">
        <ele>148.80000305176</ele>
        <time>2020-05-26T09:29:51.000Z</time>
      </trkpt>
      <trkpt lat="48.58106" lon="1.94775">
        <ele>148.80000305176</ele>
        <time>2020-05-26T09:29:56.000Z</time>
      </trkpt>
      <trkpt lat="48.58106" lon="1.94777">
        <ele>148.80000305176</ele>
        <time>2020-05-26T09:29:57.000Z</time>
      </trkpt>
      <trkpt lat="48.58106" lon="1.94778">
        <ele>148.80000305176</ele>
        <time>2020-05-26T09:29:58.000Z</time>
      </trkpt>
      <trkpt lat="48.58104" lon="1.94787">
        <ele>148.80000305176</ele>
        <time>2020-05-26T09:30:03.000Z</time>
      </trkpt>
      <trkpt lat="48.58102" lon="1.94795">
        <ele>148.39999389648</ele>
        <time>2020-05-26T09:30:07.000Z</time>
      </trkpt>
      <trkpt lat="48.58102" lon="1.94798">
        <ele>148</ele>
        <time>2020-05-26T09:30:08.000Z</time>
      </trkpt>
      <trkpt lat="48.58102" lon="1.948">
        <ele>147.60000610352</ele>
        <time>2020-05-26T09:30:09.000Z</time>
      </trkpt>
      <trkpt lat="48.58102" lon="1.94802">
        <ele>147.19999694824</ele>
        <time>2020-05-26T09:30:10.000Z</time>
      </trkpt>
      <trkpt lat="48.58102" lon="1.94804">
        <ele>146.80000305176</ele>
        <time>2020-05-26T09:30:11.000Z</time>
      </trkpt>
      <trkpt lat="48.58101" lon="1.94817">
        <ele>146.80000305176</ele>
        <time>2020-05-26T09:30:17.000Z</time>
      </trkpt>
      <trkpt lat="48.581" lon="1.94818">
        <ele>146.80000305176</ele>
        <time>2020-05-26T09:30:18.000Z</time>
      </trkpt>
      <trkpt lat="48.58099" lon="1.94829">
        <ele>146.80000305176</ele>
        <time>2020-05-26T09:30:23.000Z</time>
      </trkpt>
      <trkpt lat="48.58097" lon="1.94842">
        <ele>146.80000305176</ele>
        <time>2020-05-26T09:30:30.000Z</time>
      </trkpt>
      <trkpt lat="48.58096" lon="1.94853">
        <ele>146.80000305176</ele>
        <time>2020-05-26T09:30:35.000Z</time>
      </trkpt>
      <trkpt lat="48.58095" lon="1.94857">
        <ele>146.80000305176</ele>
        <time>2020-05-26T09:30:37.000Z</time>
      </trkpt>
      <trkpt lat="48.58093" lon="1.94872">
        <ele>146.80000305176</ele>
        <time>2020-05-26T09:30:44.000Z</time>
      </trkpt>
      <trkpt lat="48.58092" lon="1.94884">
        <ele>146.80000305176</ele>
        <time>2020-05-26T09:30:50.000Z</time>
      </trkpt>
      <trkpt lat="48.5809" lon="1.94899">
        <ele>146.80000305176</ele>
        <time>2020-05-26T09:30:57.000Z</time>
      </trkpt>
      <trkpt lat="48.58088" lon="1.94913">
        <ele>146.80000305176</ele>
        <time>2020-05-26T09:31:04.000Z</time>
      </trkpt>
      <trkpt lat="48.58087" lon="1.94925">
        <ele>146.80000305176</ele>
        <time>2020-05-26T09:31:10.000Z</time>
      </trkpt>
      <trkpt lat="48.58085" lon="1.94939">
        <ele>146.80000305176</ele>
        <time>2020-05-26T09:31:16.000Z</time>
      </trkpt>
      <trkpt lat="48.58083" lon="1.94949">
        <ele>146.80000305176</ele>
        <time>2020-05-26T09:31:21.000Z</time>
      </trkpt>
      <trkpt lat="48.58083" lon="1.94951">
        <ele>146.80000305176</ele>
        <time>2020-05-26T09:31:22.000Z</time>
      </trkpt>
      <trkpt lat="48.5808" lon="1.94958">
        <ele>146.80000305176</ele>
        <time>2020-05-26T09:31:26.000Z</time>
      </trkpt>
      <trkpt lat="48.58074" lon="1.94962">
        <ele>146.80000305176</ele>
        <time>2020-05-26T09:31:32.000Z</time>
      </trkpt>
      <trkpt lat="48.5807" lon="1.94963">
        <ele>146.80000305176</ele>
        <time>2020-05-26T09:31:36.000Z</time>
      </trkpt>
      <trkpt lat="48.58068" lon="1.94964">
        <ele>146.80000305176</ele>
        <time>2020-05-26T09:31:38.000Z</time>
      </trkpt>
      <trkpt lat="48.58063" lon="1.94965">
        <ele>146.80000305176</ele>
        <time>2020-05-26T09:31:43.000Z</time>
      </trkpt>
      <trkpt lat="48.58054" lon="1.94962">
        <ele>146.80000305176</ele>
        <time>2020-05-26T09:31:50.000Z</time>
      </trkpt>
      <trkpt lat="48.58044" lon="1.94963">
        <ele>146.80000305176</ele>
        <time>2020-05-26T09:31:56.000Z</time>
      </trkpt>
      <trkpt lat="48.58038" lon="1.94963">
        <ele>146.80000305176</ele>
        <time>2020-05-26T09:32:02.000Z</time>
      </trkpt>
      <trkpt lat="48.58033" lon="1.94965">
        <ele>146.80000305176</ele>
        <time>2020-05-26T09:32:07.000Z</time>
      </trkpt>
      <trkpt lat="48.58033" lon="1.94965">
        <ele>146.80000305176</ele>
        <time>2020-05-26T09:32:08.000Z</time>
      </trkpt>
      <trkpt lat="48.58031" lon="1.9497">
        <ele>146.80000305176</ele>
        <time>2020-05-26T09:32:13.000Z</time>
      </trkpt>
      <trkpt lat="48.5803" lon="1.94971">
        <ele>146.80000305176</ele>
        <time>2020-05-26T09:32:15.000Z</time>
      </trkpt>
      <trkpt lat="48.58028" lon="1.94975">
        <ele>146.80000305176</ele>
        <time>2020-05-26T09:32:18.000Z</time>
      </trkpt>
      <trkpt lat="48.58023" lon="1.94982">
        <ele>146.80000305176</ele>
        <time>2020-05-26T09:32:24.000Z</time>
      </trkpt>
      <trkpt lat="48.58021" lon="1.94984">
        <ele>146.80000305176</ele>
        <time>2020-05-26T09:32:29.000Z</time>
      </trkpt>
      <trkpt lat="48.5801" lon="1.94993">
        <ele>146.80000305176</ele>
        <time>2020-05-26T09:32:40.000Z</time>
      </trkpt>
      <trkpt lat="48.58005" lon="1.94997">
        <ele>146.80000305176</ele>
        <time>2020-05-26T09:32:44.000Z</time>
      </trkpt>
      <trkpt lat="48.58004" lon="1.94998">
        <ele>146.80000305176</ele>
        <time>2020-05-26T09:32:46.000Z</time>
      </trkpt>
      <trkpt lat="48.57984" lon="1.95017">
        <ele>146.39999389648</ele>
        <time>2020-05-26T09:33:08.000Z</time>
      </trkpt>
      <trkpt lat="48.57982" lon="1.95018">
        <ele>146</ele>
        <time>2020-05-26T09:33:09.000Z</time>
      </trkpt>
      <trkpt lat="48.57981" lon="1.95017">
        <ele>145.60000610352</ele>
        <time>2020-05-26T09:33:10.000Z</time>
      </trkpt>
      <trkpt lat="48.5798" lon="1.95018">
        <ele>144.80000305176</ele>
        <time>2020-05-26T09:33:11.000Z</time>
      </trkpt>
      <trkpt lat="48.57973" lon="1.95017">
        <ele>144.80000305176</ele>
        <time>2020-05-26T09:33:17.000Z</time>
      </trkpt>
      <trkpt lat="48.57966" lon="1.95015">
        <ele>144.80000305176</ele>
        <time>2020-05-26T09:33:22.000Z</time>
      </trkpt>
      <trkpt lat="48.57959" lon="1.95015">
        <ele>144.80000305176</ele>
        <time>2020-05-26T09:33:28.000Z</time>
      </trkpt>
      <trkpt lat="48.57953" lon="1.95016">
        <ele>144.39999389648</ele>
        <time>2020-05-26T09:33:35.000Z</time>
      </trkpt>
      <trkpt lat="48.57953" lon="1.95016">
        <ele>143.60000610352</ele>
        <time>2020-05-26T09:33:36.000Z</time>
      </trkpt>
      <trkpt lat="48.57951" lon="1.95017">
        <ele>143.19999694824</ele>
        <time>2020-05-26T09:33:37.000Z</time>
      </trkpt>
      <trkpt lat="48.5795" lon="1.95017">
        <ele>142.80000305176</ele>
        <time>2020-05-26T09:33:38.000Z</time>
      </trkpt>
      <trkpt lat="48.57948" lon="1.95017">
        <ele>142.80000305176</ele>
        <time>2020-05-26T09:33:40.000Z</time>
      </trkpt>
      <trkpt lat="48.5794" lon="1.95017">
        <ele>142.80000305176</ele>
        <time>2020-05-26T09:33:48.000Z</time>
      </trkpt>
      <trkpt lat="48.57936" lon="1.95013">
        <ele>142.80000305176</ele>
        <time>2020-05-26T09:33:54.000Z</time>
      </trkpt>
      <trkpt lat="48.57936" lon="1.95013">
        <ele>142.80000305176</ele>
        <time>2020-05-26T09:33:55.000Z</time>
      </trkpt>
      <trkpt lat="48.57903" lon="1.94986">
        <ele>142.80000305176</ele>
        <time>2020-05-26T09:34:18.000Z</time>
      </trkpt>
      <trkpt lat="48.57902" lon="1.94984">
        <ele>142.80000305176</ele>
        <time>2020-05-26T09:34:20.000Z</time>
      </trkpt>
      <trkpt lat="48.57897" lon="1.94975">
        <ele>142</ele>
        <time>2020-05-26T09:34:25.000Z</time>
      </trkpt>
      <trkpt lat="48.57896" lon="1.94974">
        <ele>141.60000610352</ele>
        <time>2020-05-26T09:34:26.000Z</time>
      </trkpt>
      <trkpt lat="48.57896" lon="1.94972">
        <ele>141</ele>
        <time>2020-05-26T09:34:27.000Z</time>
      </trkpt>
      <trkpt lat="48.57895" lon="1.94971">
        <ele>140.60000610352</ele>
        <time>2020-05-26T09:34:28.000Z</time>
      </trkpt>
      <trkpt lat="48.57892" lon="1.94965">
        <ele>140.60000610352</ele>
        <time>2020-05-26T09:34:32.000Z</time>
      </trkpt>
      <trkpt lat="48.57892" lon="1.94962">
        <ele>140.60000610352</ele>
        <time>2020-05-26T09:34:36.000Z</time>
      </trkpt>
      <trkpt lat="48.57868" lon="1.94936">
        <ele>140.60000610352</ele>
        <time>2020-05-26T09:35:07.000Z</time>
      </trkpt>
      <trkpt lat="48.57867" lon="1.94934">
        <ele>140.60000610352</ele>
        <time>2020-05-26T09:35:08.000Z</time>
      </trkpt>
      <trkpt lat="48.57865" lon="1.94925">
        <ele>140.60000610352</ele>
        <time>2020-05-26T09:35:13.000Z</time>
      </trkpt>
      <trkpt lat="48.57859" lon="1.94912">
        <ele>140.60000610352</ele>
        <time>2020-05-26T09:35:21.000Z</time>
      </trkpt>
      <trkpt lat="48.57856" lon="1.94903">
        <ele>140.60000610352</ele>
        <time>2020-05-26T09:35:28.000Z</time>
      </trkpt>
      <trkpt lat="48.57851" lon="1.94894">
        <ele>140.60000610352</ele>
        <time>2020-05-26T09:35:35.000Z</time>
      </trkpt>
      <trkpt lat="48.57843" lon="1.94884">
        <ele>140.60000610352</ele>
        <time>2020-05-26T09:35:42.000Z</time>
      </trkpt>
      <trkpt lat="48.57832" lon="1.94871">
        <ele>140.60000610352</ele>
        <time>2020-05-26T09:35:50.000Z</time>
      </trkpt>
      <trkpt lat="48.5782" lon="1.94859">
        <ele>140.60000610352</ele>
        <time>2020-05-26T09:35:57.000Z</time>
      </trkpt>
      <trkpt lat="48.57811" lon="1.94852">
        <ele>140.60000610352</ele>
        <time>2020-05-26T09:36:03.000Z</time>
      </trkpt>
    </trkseg>
  </trk>
</gpx>